[[{"header":{"parameterUnit":"m.s-1","parameterCategory":1,"la1":30.6,"la2":28.766,"lo1":-90.7593,"lo2":-88.6598,"dy":0.0162,"dx":0.0183,"nx":116,"ny":114,"refTime":"2024-04-21T12:00:00:Z","depth":0,"parameterNumber":2,"parameterNumberName":"U-component_of_WINDS"},"data":[0.0,0.0,0.0,0.0,0.0,0.0,0.0,0.0,0.0,0.0,0.0,0.0,0.0,0.0,0.0,0.0,0.0,0.0,0.0,0.0,0.0,0.0,0.0,0.0,0.0,0.0,0.0,0.0,0.0,0.0,0.0,0.0,0.0,0.0,0.0,0.0,0.0,0.0,0.0,0.0,0.0,0.0,0.0,0.0,0.0,0.0,0.0,0.0,0.0,0.0,0.0,0.0,0.0,0.0,0.0,0.0,0.0,0.0,0.0,0.0,0.0,0.0,0.0,0.0,0.0,0.0,0.0,0.0,0.0,0.0,0.0,0.0,0.0,0.0,0.0,0.0,0.0,0.0,0.0,0.0,0.0,0.0,0.0,0.0,0.0,0.0,0.0,0.0,0.0,0.0,0.0,0.0,0.0,0.0,0.0,0.0,0.0,0.0,0.0,0.0,0.0,0.0,0.0,0.0,0.0,0.0,0.0,0.0,0.0,0.0,0.0,0.0,0.0,0.0,0.0,0.0,0.0,0.0,0.0,0.0,0.0,0.0,0.0,0.0,0.0,0.0,0.0,0.0,0.0,0.0,0.0,0.0,0.0,0.0,0.0,0.0,0.0,0.0,0.0,0.0,0.0,0.0,0.0,0.0,0.0,0.0,0.0,0.0,0.0,0.0,0.0,0.0,0.0,0.0,0.0,0.0,0.0,0.0,0.0,0.0,0.0,0.0,0.0,0.0,0.0,0.0,0.0,0.0,0.0,0.0,0.0,0.0,0.0,0.0,0.0,0.0,0.0,0.0,0.0,0.0,0.0,0.0,0.0,0.0,0.0,0.0,0.0,0.0,0.0,0.0,0.0,0.0,0.0,0.0,0.0,0.0,0.0,0.0,0.0,0.0,0.0,0.0,0.0,0.0,0.0,0.0,0.0,0.0,0.0,0.0,0.0,0.0,0.0,0.0,0.0,0.0,0.0,0.0,0.0,0.0,0.0,0.0,0.0,0.0,0.0,0.0,0.0,0.0,0.0,0.0,0.0,0.0,0.0,0.0,0.0,0.0,0.0,0.0,0.0,0.0,0.0,0.0,0.0,0.0,0.0,0.0,0.0,0.0,0.0,0.0,0.0,0.0,0.0,0.0,0.0,0.0,0.0,0.0,0.0,0.0,0.0,0.0,0.0,0.0,0.0,0.0,0.0,0.0,0.0,0.0,0.0,0.0,0.0,0.0,0.0,0.0,0.0,0.0,0.0,0.0,0.0,0.0,0.0,0.0,0.0,0.0,0.0,0.0,0.0,0.0,0.0,0.0,0.0,0.0,0.0,0.0,0.0,0.0,0.0,0.0,0.0,0.0,0.0,0.0,0.0,0.0,0.0,0.0,0.0,0.0,0.0,0.0,0.0,0.0,0.0,0.0,0.0,0.0,0.0,0.0,0.0,0.0,0.0,0.0,0.0,0.0,0.0,0.0,0.0,0.0,0.0,0.0,0.0,0.0,0.0,0.0,0.0,0.0,0.0,0.0,0.0,0.0,0.0,0.0,0.0,0.0,0.0,0.0,0.0,0.0,0.0,0.0,0.0,0.0,0.0,0.0,0.0,0.0,0.0,0.0,0.0,0.0,0.0,0.0,0.0,0.0,0.0,0.0,0.0,0.0,0.0,0.0,0.0,0.0,0.0,0.0,0.0,0.0,0.0,0.0,0.0,0.0,0.0,0.0,0.0,0.0,0.0,0.0,0.0,0.0,0.0,0.0,0.0,0.0,0.0,0.0,0.0,0.0,0.0,0.0,0.0,0.0,0.0,0.0,0.0,0.0,0.0,0.0,0.0,0.0,0.0,0.0,0.0,0.0,0.0,0.0,0.0,0.0,0.0,0.0,0.0,0.0,0.0,0.0,0.0,0.0,0.0,0.0,0.0,0.0,0.0,0.0,0.0,0.0,0.0,0.0,0.0,0.0,0.0,0.0,0.0,0.0,0.0,0.0,0.0,0.0,0.0,0.0,0.0,0.0,0.0,0.0,0.0,0.0,0.0,0.0,0.0,0.0,0.0,0.0,0.0,0.0,0.0,0.0,0.0,0.0,0.0,0.0,0.0,0.0,0.0,0.0,0.0,0.0,0.0,0.0,0.0,0.0,0.0,0.0,0.0,0.0,0.0,0.0,0.0,0.0,0.0,0.0,0.0,0.0,0.0,0.0,0.0,0.0,0.0,0.0,0.0,0.0,0.0,0.0,0.0,0.0,0.0,0.0,0.0,0.0,0.0,0.0,0.0,0.0,0.0,0.0,0.0,0.0,0.0,0.0,0.0,0.0,0.0,0.0,0.0,0.0,0.0,0.0,0.0,0.0,0.0,0.0,0.0,0.0,0.0,0.0,0.0,0.0,0.0,0.0,0.0,0.0,0.0,0.0,0.0,0.0,0.0,0.0,0.0,0.0,0.0,0.0,0.0,0.0,0.0,0.0,0.0,0.0,0.0,0.0,0.0,0.0,0.0,0.0,0.0,0.0,0.0,0.0,0.0,0.0,0.0,0.0,0.0,0.0,0.0,0.0,0.0,0.0,0.0,0.0,0.0,0.0,0.0,0.0,0.0,0.0,0.0,0.0,0.0,0.0,0.0,0.0,0.0,0.0,0.0,0.0,0.0,0.0,0.0,0.0,0.0,0.0,0.0,0.0,0.0,0.0,0.0,0.0,0.0,0.0,0.0,0.0,0.0,0.0,0.0,0.0,0.0,0.0,0.0,0.0,0.0,0.0,0.0,0.0,0.0,0.0,0.0,0.0,0.0,0.0,0.0,0.0,0.0,0.0,0.0,0.0,0.0,0.0,0.0,0.0,0.0,0.0,0.0,0.0,0.0,0.0,0.0,0.0,0.0,0.0,0.0,0.0,0.0,0.0,0.0,0.0,0.0,0.0,0.0,0.0,0.0,0.0,0.0,0.0,0.0,0.0,0.0,0.0,0.0,0.0,0.0,0.0,0.0,0.0,0.0,0.0,0.0,0.0,0.0,0.0,0.0,0.0,0.0,0.0,0.0,0.0,0.0,0.0,0.0,0.0,0.0,0.0,0.0,0.0,0.0,0.0,0.0,0.0,0.0,0.0,0.0,0.0,0.0,0.0,0.0,0.0,0.0,0.0,0.0,0.0,0.0,0.0,0.0,0.0,0.0,0.0,0.0,0.0,0.0,0.0,0.0,0.0,0.0,0.0,0.0,0.0,0.0,0.0,0.0,0.0,0.0,0.0,0.0,0.0,0.0,0.0,0.0,0.0,0.0,0.0,0.0,0.0,0.0,0.0,0.0,0.0,0.0,0.0,0.0,0.0,0.0,0.0,0.0,0.0,0.0,0.0,0.0,0.0,0.0,0.0,0.0,0.0,0.0,0.0,0.0,0.0,0.0,0.0,0.0,0.0,0.0,0.0,0.0,0.0,0.0,0.0,0.0,0.0,0.0,0.0,0.0,0.0,0.0,0.0,0.0,0.0,0.0,0.0,0.0,0.0,0.0,0.0,0.0,0.0,0.0,0.0,0.0,0.0,0.0,0.0,0.0,0.0,0.0,0.0,0.0,0.0,0.0,0.0,0.0,0.0,0.0,0.0,0.0,0.0,0.0,0.0,0.0,0.0,0.0,0.0,0.0,0.0,0.0,0.0,0.0,0.0,0.0,0.0,0.0,0.0,0.0,0.0,0.0,0.0,0.0,0.0,0.0,0.0,0.0,0.0,0.0,0.0,0.0,0.0,0.0,0.0,0.0,0.0,0.0,0.0,0.0,0.0,0.0,0.0,0.0,0.0,0.0,0.0,0.0,0.0,0.0,0.0,0.0,0.0,0.0,0.0,0.0,0.0,0.0,0.0,0.0,0.0,0.0,0.0,0.0,0.0,0.0,0.0,0.0,0.0,0.0,0.0,0.0,0.0,0.0,0.0,0.0,0.0,0.0,0.0,0.0,0.0,0.0,0.0,0.0,0.0,0.0,0.0,0.0,0.0,0.0,0.0,0.0,0.0,0.0,0.0,0.0,0.0,0.0,0.0,0.0,0.0,0.0,0.0,0.0,0.0,0.0,0.0,0.0,0.0,0.0,0.0,0.0,0.0,0.0,0.0,0.0,0.0,0.0,0.0,0.0,0.0,0.0,0.0,0.0,0.0,0.0,0.0,0.0,0.0,0.0,0.0,0.0,0.0,0.0,0.0,0.0,0.0,0.0,0.0,0.0,0.0,0.0,0.0,0.0,0.0,0.0,0.0,0.0,0.0,0.0,0.0,0.0,0.0,0.0,0.0,0.0,0.0,0.0,0.0,0.0,0.0,0.0,0.0,0.0,0.0,0.0,0.0,0.0,0.0,0.0,0.0,0.0,0.0,0.0,0.0,0.0,0.0,0.0,0.0,0.0,0.0,0.0,0.0,0.0,0.0,0.0,0.0,0.0,0.0,0.0,0.0,0.0,0.0,0.0,0.0,0.0,0.0,0.0,0.0,0.0,0.0,0.0,0.0,0.0,0.0,0.0,0.0,0.0,0.0,0.0,0.0,0.0,0.0,0.0,0.0,0.0,0.0,0.0,0.0,0.0,0.0,0.0,0.0,0.0,0.0,0.0,0.0,0.0,0.0,0.0,0.0,0.0,0.0,0.0,0.0,0.0,0.0,0.0,0.0,0.0,0.0,0.0,0.0,0.0,0.0,0.0,0.0,0.0,0.0,0.0,0.0,0.0,0.0,0.0,0.0,0.0,0.0,0.0,0.0,0.0,0.0,0.0,0.0,0.0,0.0,0.0,0.0,0.0,0.0,0.0,0.0,0.0,0.0,0.0,0.0,0.0,0.0,0.0,0.0,0.0,0.0,0.0,0.0,0.0,0.0,0.0,0.0,0.0,0.0,0.0,0.0,0.0,0.0,0.0,0.0,0.0,0.0,0.0,0.0,0.0,0.0,0.0,0.0,0.0,0.0,0.0,0.0,0.0,0.0,0.0,0.0,0.0,0.0,0.0,0.0,0.0,0.0,0.0,0.0,0.0,0.0,0.0,0.0,0.0,0.0,0.0,0.0,0.0,0.0,0.0,0.0,0.0,0.0,0.0,0.0,0.0,0.0,0.0,0.0,0.0,0.0,0.0,0.0,0.0,0.0,0.0,0.0,0.0,0.0,0.0,0.0,0.0,0.0,0.0,0.0,0.0,0.0,0.0,0.0,0.0,0.0,0.0,0.0,0.0,0.0,0.0,0.0,0.0,0.0,0.0,0.0,0.0,0.0,0.0,0.0,0.0,0.0,0.0,0.0,0.0,0.0,0.0,0.0,0.0,0.0,0.0,0.0,0.0,0.0,0.0,0.0,0.0,0.0,0.0,0.0,0.0,0.0,0.0,0.0,0.0,0.0,0.0,0.0,0.0,0.0,0.0,0.0,0.0,0.0,0.0,0.0,0.0,0.0,0.0,0.0,0.0,0.0,0.0,0.0,0.0,0.0,0.0,0.0,0.0,0.0,0.0,0.0,0.0,0.0,0.0,0.0,0.0,0.0,0.0,0.0,0.0,0.0,0.0,0.0,0.0,0.0,0.0,0.0,0.0,0.0,0.0,0.0,0.0,0.0,0.0,0.0,0.0,0.0,0.0,0.0,0.0,0.0,0.0,0.0,0.0,0.0,0.0,0.0,0.0,0.0,0.0,0.0,0.0,0.0,0.0,0.0,0.0,0.0,0.0,0.0,0.0,0.0,0.0,0.0,0.0,0.0,0.0,0.0,0.0,0.0,0.0,0.0,0.0,0.0,0.0,0.0,0.0,0.0,0.0,0.0,0.0,0.0,0.0,0.0,0.0,0.0,0.0,0.0,0.0,0.0,0.0,0.0,0.0,0.0,0.0,0.0,0.0,0.0,0.0,0.0,0.0,0.0,0.0,0.0,0.0,0.0,0.0,0.0,0.0,0.0,0.0,0.0,0.0,0.0,0.0,0.0,0.0,0.0,0.0,0.0,0.0,0.0,0.0,0.0,0.0,0.0,0.0,0.0,0.0,0.0,0.0,0.0,0.0,0.0,0.0,0.0,0.0,0.0,0.0,0.0,0.0,0.0,0.0,0.0,0.0,0.0,0.0,0.0,0.0,0.0,0.0,0.0,0.0,0.0,0.0,0.0,0.0,0.0,2.002,0.0,0.0,0.0,0.0,0.0,0.0,0.0,0.0,0.0,0.0,0.0,0.0,0.0,0.0,0.0,0.0,0.0,0.0,0.0,0.0,0.0,0.0,0.0,0.0,1.0906,1.0735,1.0808,1.0871,1.1146,1.1714,0.0,0.0,0.0,0.0,0.0,1.4705,1.4756,1.5042,1.5577,1.5326,1.4879,1.4217,1.4929,1.5256,1.5239,0.0,0.0,0.0,0.0,0.0,0.0,0.0,0.0,0.0,0.0,0.0,0.0,0.0,0.0,0.0,0.0,0.0,0.0,0.0,0.0,0.0,0.0,0.0,0.0,0.0,0.0,0.0,0.0,0.0,0.0,0.0,0.0,0.0,0.0,0.0,0.0,0.0,0.0,0.0,0.0,0.0,0.0,0.0,0.0,0.0,0.0,0.0,0.0,0.0,0.0,0.0,0.0,0.0,0.0,0.0,0.0,0.0,0.0,0.0,0.0,0.0,0.0,0.0,0.0,0.0,0.0,0.0,0.0,0.0,0.0,0.0,2.013,0.0,0.0,0.0,0.0,0.0,0.0,0.0,0.0,0.0,0.0,0.0,0.0,0.0,0.0,0.0,0.0,0.0,0.0,0.0,0.0,0.0,1.1962,1.1759,1.142,1.1351,1.1715,1.1465,1.1718,1.2695,1.3005,1.3359,1.3856,1.4068,1.4549,1.54,1.54,1.5864,1.6866,1.6039,1.5582,1.5488,1.5942,1.6104,1.6065,1.559,0.0,0.0,0.0,0.0,0.0,0.0,0.0,0.0,0.0,0.0,0.0,0.0,0.0,0.0,0.0,0.0,0.0,0.0,0.0,0.0,0.0,0.0,0.0,0.0,0.0,0.0,0.0,0.0,0.0,0.0,0.0,0.0,0.0,0.0,0.0,0.0,0.0,0.0,0.0,0.0,0.0,0.0,0.0,0.0,0.0,0.0,0.0,0.0,0.0,0.0,0.0,0.0,0.0,0.0,0.0,0.0,0.0,0.0,0.0,0.0,0.0,0.0,0.0,2.3601,2.4128,2.4963,2.4811,2.4838,2.4927,2.2873,2.2362,2.2824,0.0,0.0,0.0,0.0,0.0,0.0,0.0,0.0,0.0,0.0,0.0,0.0,0.0,0.0,0.0,0.0,0.0,0.0,0.0,0.0,1.3296,1.3155,1.2685,1.2335,1.2293,1.2147,1.2222,1.26,1.3038,1.3444,1.3793,1.3955,1.448,1.5465,1.5101,1.5107,1.5547,1.4912,1.5291,1.6599,1.668,1.6973,1.7438,1.5662,0.0,0.0,0.0,0.0,0.0,0.0,0.0,0.0,0.0,0.0,0.0,0.0,0.0,0.0,0.0,0.0,0.0,0.0,0.0,0.0,0.0,0.0,0.0,0.0,0.0,0.0,0.0,0.0,0.0,0.0,0.0,0.0,0.0,0.0,0.0,0.0,0.0,0.0,0.0,0.0,0.0,0.0,0.0,1.6308,1.9159,0.0,0.0,0.0,0.0,0.0,0.0,0.0,0.0,0.0,0.0,0.0,0.0,0.0,0.0,2.3513,2.568,2.615,2.4932,2.7775,2.8886,2.8369,2.8988,2.979,3.0541,2.7348,0.0,2.39,2.3593,0.0,0.0,0.0,0.0,0.0,0.0,0.0,0.0,0.0,0.0,0.0,0.0,0.0,0.0,0.0,0.0,0.0,0.0,0.0,0.0,0.0,1.4167,1.4214,1.4083,1.4808,1.4821,1.3748,1.4309,1.4452,1.3876,1.4054,1.4691,1.5811,1.5166,1.5078,1.5645,1.5953,1.6363,1.6846,1.7157,1.7626,1.8182,1.6678,1.5686,1.5174,1.4784,0.0,0.0,0.0,0.0,0.0,0.0,0.0,0.0,0.0,0.0,0.0,0.0,0.0,0.0,0.0,0.0,0.0,0.0,0.0,0.0,0.0,0.0,0.0,0.0,0.0,0.0,0.0,0.0,0.0,0.0,0.0,0.0,0.0,0.0,0.0,0.0,0.0,0.0,0.0,1.6517,1.7329,1.8431,1.9111,1.9212,0.0,0.0,0.0,0.0,0.0,0.0,0.0,0.0,0.0,2.3458,2.545,2.6386,2.6166,2.8597,2.9587,2.9155,3.1582,3.2722,3.2722,3.3057,3.3456,3.3792,3.1472,2.9816,2.8527,2.5922,2.4433,2.3696,0.0,0.0,0.0,0.0,2.1295,2.2596,0.0,0.0,0.0,0.0,0.0,0.0,0.0,0.0,0.0,0.0,0.0,0.0,1.467,1.5214,1.5651,1.6004,1.6677,1.6412,1.4866,1.505,1.4917,1.4237,1.4413,1.5049,1.613,1.5521,1.5741,1.6895,1.7513,1.7708,1.7533,1.8101,1.8602,1.8986,1.8113,1.7129,1.6126,1.5621,1.4613,0.0,0.0,0.0,0.0,0.0,0.0,0.0,0.0,0.0,0.0,0.0,0.0,0.0,0.0,0.0,0.0,0.0,0.0,0.0,0.0,0.0,0.0,0.0,0.0,0.0,0.0,0.0,0.0,0.0,0.0,0.0,0.0,0.0,0.0,0.0,0.0,0.0,0.0,1.7345,1.811,1.8268,1.9719,2.0184,0.0,0.0,0.0,0.0,0.0,0.0,2.2926,2.4805,2.5896,2.5953,2.8903,3.0163,2.9459,3.1277,3.2321,3.2576,3.3972,3.5016,3.564,3.5821,3.5879,3.5859,3.4759,3.3728,3.2574,2.8685,2.663,2.5885,2.5276,2.4147,2.2922,2.3441,2.433,2.5397,0.0,0.0,0.0,0.0,0.0,0.0,0.0,0.0,0.0,0.0,0.0,1.428,1.5591,1.5484,1.5974,1.7625,1.6261,1.5387,1.5525,1.4331,1.4054,1.5004,1.5112,1.5498,1.6265,1.6248,1.7333,1.96,1.9117,1.9029,1.9294,1.9814,2.0062,2.0086,2.0038,1.8967,1.706,1.6095,1.4989,1.3877,0.0,0.0,0.0,0.0,0.0,0.0,0.0,0.0,0.0,0.0,0.0,0.0,0.0,0.0,0.0,0.0,0.0,0.0,0.0,0.0,0.0,0.0,0.0,0.0,0.0,0.0,0.0,0.0,0.0,0.0,0.0,0.0,0.0,0.0,0.0,0.0,0.0,0.0,0.0,1.9866,2.3087,0.0,0.0,0.0,0.0,2.5035,2.5724,2.6659,2.7771,2.8275,2.9687,3.2242,3.2877,3.3518,3.4254,3.4288,3.4066,3.3457,3.4158,3.4908,3.57,3.6342,3.6671,3.6721,3.6637,3.5757,3.4227,3.2231,3.0938,3.0041,2.8625,2.8021,2.7732,2.6027,2.6793,2.8638,0.0,0.0,0.0,0.0,0.0,1.4078,1.3874,1.3851,1.362,1.3003,1.4195,1.5276,1.5757,1.7591,1.8896,1.9212,1.929,1.8665,1.7117,1.6211,1.5801,1.5862,1.4979,1.5,1.6077,1.7552,1.8781,1.9735,2.0004,2.0309,2.055,2.065,2.0914,2.1295,2.089,2.0435,1.9859,1.8407,1.7149,1.6022,1.5335,1.4879,0.0,0.0,0.0,0.0,0.0,0.0,0.0,0.0,0.0,0.0,0.0,0.0,0.0,0.0,0.0,0.0,0.0,0.0,0.0,0.0,0.0,0.0,0.0,0.0,0.0,0.0,0.0,0.0,0.0,0.0,0.0,0.0,0.0,0.0,0.0,0.0,0.0,2.3383,2.5769,0.0,0.0,2.7761,2.8182,2.8466,3.0149,3.152,3.2364,3.3493,3.4516,3.536,3.5922,3.614,3.5927,3.5884,3.5493,3.4786,3.5493,3.6287,3.7054,3.7302,3.7719,3.8176,3.7702,3.7195,3.6586,3.5433,3.3813,3.1958,3.1202,3.0886,3.087,3.0934,3.149,3.2363,0.0,0.0,0.0,0.0,0.0,1.3966,1.368,1.357,1.3413,1.3076,1.4572,1.6098,1.7216,1.9264,2.0778,2.1276,2.0933,1.9901,1.8017,1.7046,1.645,1.627,1.5924,1.6527,1.8217,1.9401,2.0524,2.1672,2.1856,2.1898,2.1818,2.1724,2.1753,2.1865,2.1497,2.1583,2.197,2.0677,1.9262,1.78,1.685,1.6329,1.5991,0.0,0.0,0.0,0.0,0.0,0.0,0.0,0.0,0.0,0.0,0.0,0.0,0.0,0.0,0.0,0.0,0.0,0.0,0.0,0.0,0.0,0.0,0.0,0.0,0.0,0.0,0.0,0.0,0.0,0.0,0.0,0.0,0.0,0.0,0.0,2.318,2.5543,2.8216,3.0027,3.0363,3.1046,3.1836,3.2614,3.4457,3.5666,3.5897,3.722,3.7827,3.7547,3.7711,3.7566,3.7061,3.652,3.6006,3.5504,3.6006,3.6631,3.7365,3.7665,3.7785,3.7703,3.8098,3.779,3.6986,3.7097,3.614,3.4528,3.3999,3.3804,3.3921,3.4971,3.5326,3.5489,0.0,0.0,0.0,0.0,0.0,1.3853,1.3518,1.3309,1.3361,1.3906,1.483,1.6676,1.9889,2.0312,2.13,2.3646,2.0806,1.8659,1.8107,1.6498,1.5752,1.6175,1.8002,2.0169,2.2648,2.1741,2.2651,2.5536,2.4739,2.3892,2.3081,2.3047,2.2676,2.1939,2.1939,2.2396,2.3065,2.2585,2.1153,1.925,1.8627,1.8102,1.7464,0.0,0.0,0.0,0.0,0.0,0.0,0.0,0.0,0.0,0.0,0.0,0.0,0.0,0.0,0.0,0.0,0.0,0.0,0.0,0.0,0.0,0.0,0.0,0.0,0.0,0.0,0.0,0.0,0.0,0.0,0.0,0.0,0.0,1.7697,2.259,2.6204,2.6329,3.059,3.3474,3.3301,3.5379,3.6964,3.7594,3.8513,3.8886,3.8426,3.9181,3.9392,3.892,3.8101,3.7652,3.7726,3.6228,3.5504,3.5504,3.5504,3.5894,3.66,3.7456,3.6885,3.5334,3.7903,3.7578,3.5399,3.7188,3.7956,3.7889,3.711,3.6806,3.6874,3.7652,3.7956,3.7973,0.0,0.0,0.0,1.3541,1.3405,1.3089,1.3025,1.2659,1.2104,1.1231,1.4255,1.6561,1.6751,1.9671,2.1758,2.2187,1.9913,1.8212,1.7567,1.5664,1.5081,1.6217,1.9399,2.1748,2.3023,2.3775,2.4941,2.6607,2.5555,2.4912,2.4662,2.416,2.3505,2.2763,2.2763,2.312,2.3753,2.3602,2.382,2.4014,2.167,2.0606,2.032,0.0,0.0,0.0,0.0,0.0,0.0,0.0,0.0,0.0,0.0,0.0,0.0,0.0,0.0,0.0,0.0,0.0,0.0,0.0,0.0,0.0,0.0,0.0,0.0,0.0,0.0,0.0,0.0,0.0,0.0,0.0,0.0,2.2119,2.2853,2.5459,2.8493,3.1598,3.4588,3.6706,3.7565,3.8599,3.9517,4.0256,4.0564,4.0751,4.0819,3.8886,3.7598,3.727,3.5727,3.5023,3.526,3.5415,3.5504,3.5504,3.5504,3.5894,3.66,3.7456,3.7826,3.7945,3.9244,3.9378,3.8738,3.8685,3.9035,3.937,3.8089,3.7263,3.6924,3.8227,3.9039,3.9259,0.0,0.0,0.0,1.3001,1.3165,1.2998,1.2426,1.1916,1.1347,1.0671,1.363,1.5889,1.6067,1.8782,2.0594,2.0557,1.8822,1.7273,1.6253,1.5658,1.6355,1.8588,2.1587,2.3747,2.4853,2.5993,2.7023,2.792,2.7032,2.6296,2.571,2.5067,2.4163,2.3078,2.3078,2.3265,2.364,2.3994,2.4926,2.6144,2.4693,2.3932,2.351,2.1686,2.0986,2.0846,1.9955,1.9986,2.0303,1.9322,0.0,0.0,0.0,0.0,0.0,0.0,0.0,0.0,0.0,0.0,0.0,0.0,0.0,0.0,0.0,0.0,0.0,0.0,0.0,0.0,0.0,0.0,0.0,0.0,2.2203,2.5466,2.7075,2.8663,3.0968,3.4391,3.6482,3.8163,3.9441,4.0375,4.1163,4.1879,4.1686,4.1645,4.1775,3.9593,3.7712,3.6379,3.5771,3.4998,3.4077,3.5018,3.5504,3.5504,3.5504,3.5718,3.6165,3.7279,3.7584,0.0,3.9291,3.9682,3.8975,3.931,3.9561,0.0,0.0,0.0,0.0,0.0,3.9715,3.9851,0.0,0.0,1.2207,1.2258,1.2808,1.2852,1.1655,1.0986,1.072,1.1026,1.2765,1.4618,1.633,1.7508,1.83,1.866,1.7263,1.582,1.4591,1.6003,1.8454,2.1994,2.4052,2.5854,2.7439,2.8138,2.8811,2.9436,2.8681,2.7643,2.6385,2.5713,2.4553,2.3078,2.3185,2.3261,2.3326,2.4138,2.536,2.6715,2.7413,2.7342,2.6585,2.4305,2.3647,2.3778,2.2615,2.2063,2.1811,2.1601,0.0,0.0,0.0,0.0,0.0,0.0,0.0,0.0,0.0,0.0,0.0,0.0,0.0,0.0,0.0,0.0,0.0,0.0,0.0,0.0,0.0,0.0,0.0,0.0,2.4805,2.7998,3.0484,3.1832,3.3322,3.5487,3.7026,3.8431,3.9727,4.0955,4.1937,4.244,4.1979,4.1707,4.1707,0.0,0.0,0.0,0.0,3.6163,3.365,3.4894,3.5504,3.5504,3.5504,3.5504,3.5554,3.7131,3.6905,3.5512,3.8714,3.9194,3.7836,3.9446,3.9698,3.9106,3.8937,3.892,3.9056,3.9529,3.9868,3.9969,0.0,0.963,1.0052,1.1155,1.0907,1.0409,1.0,0.9374,0.8966,0.8965,1.0715,1.2348,1.3346,1.5031,1.6104,1.6184,1.421,1.3221,1.3906,1.5421,1.8288,2.2768,2.5189,2.7278,2.9097,2.9122,2.9715,3.0873,2.9168,2.7859,2.7015,2.5887,2.4553,2.3138,2.3767,2.4236,2.4494,2.5296,2.6741,2.8478,2.8663,2.8497,2.8107,2.7101,2.6309,2.5727,2.5415,2.5534,2.5587,2.4116,2.3484,2.3102,2.1761,0.0,0.0,0.0,0.0,0.0,0.0,0.0,0.0,0.0,0.0,0.0,0.0,0.0,0.0,0.0,0.0,0.0,0.0,0.0,0.0,2.5703,2.8147,3.0497,3.253,3.355,3.4675,3.6349,3.7364,3.8461,3.9914,4.0664,4.1133,4.1223,4.1133,4.1087,4.1087,3.8469,0.0,3.5629,3.493,3.4135,3.3238,3.4723,3.5504,3.5504,0.0,0.0,3.5554,3.7131,3.7604,3.7364,3.9268,3.9918,3.9614,3.9969,4.0003,3.9749,3.8582,3.8481,3.8853,3.7804,3.8548,3.9884,0.0,0.9325,0.9824,1.0389,1.0078,0.9577,0.9086,0.8207,0.762,0.7655,0.907,1.0339,1.102,1.2061,1.2706,1.2734,1.2225,1.2823,1.4956,1.7418,2.0609,2.4632,2.6725,2.8301,2.9326,2.9673,2.9864,2.9955,2.9206,2.8326,2.7255,2.5969,2.4781,2.3721,2.403,2.4236,2.4482,2.5441,2.6969,2.8609,2.8979,2.9478,2.9998,2.931,2.8583,2.7887,2.7486,2.7051,2.6494,2.5464,2.4813,2.4182,2.2618,2.1752,2.073,0.0,0.0,0.0,0.0,0.0,0.0,0.0,0.0,0.0,0.0,0.0,0.0,0.0,0.0,2.2858,2.3543,0.0,2.6417,2.8203,3.0054,3.1862,3.3694,3.459,3.5622,3.7161,3.7347,3.8058,3.9901,4.0233,4.0504,4.0868,4.0903,4.0903,4.0903,3.9149,3.722,3.5207,3.5553,3.4831,3.2836,3.4613,3.5504,3.5504,3.5504,3.5504,3.5554,3.7131,3.7822,3.7879,3.9454,4.007,4.0054,3.9681,3.9529,3.9462,3.8734,3.8903,3.9445,3.87,3.9123,3.9918,0.0,0.9277,0.9922,0.966,0.9416,0.8986,0.8198,0.7088,0.6414,0.66,0.7502,0.8357,0.8888,0.9105,0.9157,0.9029,1.0521,1.2786,1.5899,1.9397,2.2956,2.6541,2.7998,2.8912,2.9319,2.988,2.9741,2.8814,2.9108,2.8685,2.7539,2.6108,2.5075,2.4464,2.4201,2.4078,2.4243,2.5426,2.6738,2.8147,2.8955,2.9987,3.1025,3.0526,2.9939,2.9312,2.8578,2.7349,2.6006,2.5859,2.5205,2.4216,2.2908,2.2897,2.2573,1.8552,1.8858,0.0,0.0,0.0,0.0,0.0,0.0,0.0,0.0,0.0,2.3031,2.3663,2.5035,2.634,2.6995,2.784,2.8935,3.04,3.1688,3.2942,3.432,3.5131,3.6079,3.7313,3.706,3.7584,3.9665,3.9744,3.9939,4.0681,4.0733,4.0733,4.0733,4.0319,3.8637,3.5455,3.6966,3.6256,3.311,3.4696,3.5504,3.5504,3.5504,3.5504,3.5569,3.6935,3.7632,3.7879,3.9454,4.007,4.002,3.9445,3.9208,3.9208,3.9208,3.9563,4.007,4.007,4.007,4.0003,0.0,0.8781,0.8836,0.8681,0.8054,0.7335,0.6651,0.5727,0.5234,0.5597,0.5729,0.5997,0.6597,0.6693,0.6371,0.554,0.8379,1.1564,1.4779,1.8693,2.2954,2.7624,2.8217,2.8986,3.0139,2.9614,2.9454,2.9685,2.8942,2.8483,2.8263,2.6321,2.5279,2.5051,2.4524,2.4438,2.4796,2.5532,2.6614,2.7827,2.8716,2.9247,2.9551,2.9633,2.928,2.8636,2.7904,2.6355,2.4757,2.502,2.4232,2.3119,2.3253,2.2457,2.1274,2.0077,1.9566,1.8897,1.6747,1.5074,1.4799,1.8415,1.9335,2.0354,0.0,0.0,2.8483,2.8743,3.0482,3.207,3.2465,3.2711,3.3055,3.3533,3.3945,3.4303,3.4472,3.5131,3.569,3.5859,3.6417,3.7398,3.8954,3.912,3.9374,4.0153,4.0204,4.0204,4.0204,4.0121,3.9285,3.7527,3.7694,3.6946,3.5175,3.54,3.5504,3.5504,3.5504,3.5504,3.5504,3.6337,3.7144,3.7879,3.9454,4.007,4.007,3.9986,3.9952,3.9952,3.9952,4.0003,4.007,4.007,4.007,4.007,0.0,0.86,0.8476,0.7811,0.696,0.6325,0.6208,0.4894,0.4121,0.4716,0.4775,0.4834,0.5067,0.4811,0.4387,0.3835,0.6625,1.0191,1.4298,1.8159,2.2361,2.7044,2.8027,2.8481,2.8547,2.8588,2.8489,2.8265,2.8063,2.7898,2.7904,2.665,2.6032,2.5925,2.5137,2.4831,2.5032,2.5537,2.6337,2.7299,2.7608,2.818,2.8627,2.7584,2.6568,2.557,2.4717,2.3489,0.0,0.0,2.1682,2.1837,2.1774,2.1468,2.0923,1.9789,1.8585,1.7522,1.7045,1.7734,1.9284,0.0,2.3915,2.568,2.8439,3.0287,3.1626,3.2163,3.3531,3.4687,3.509,3.4747,3.4528,0.0,3.4617,3.4526,3.5036,3.5047,3.481,3.4387,3.3102,3.3194,3.5637,3.6564,3.7208,3.7623,3.8766,3.9631,4.0054,4.007,3.961,3.8469,3.8035,3.7472,3.6829,3.5973,3.5733,3.6102,3.5733,3.5504,3.5519,3.6689,3.7847,3.9072,3.9811,4.007,4.007,4.007,4.007,4.007,4.007,4.007,4.007,4.007,4.007,4.007,0.0,0.8504,0.8294,0.7196,0.6185,0.5522,0.549,0.4138,0.3231,0.357,0.3727,0.3801,0.3815,0.3441,0.3059,0.2786,0.5682,0.9253,1.3333,1.7318,2.1434,2.5736,2.6847,2.7211,2.6918,2.7297,2.7203,2.6611,2.6849,2.7098,2.729,2.6374,2.6064,2.6199,2.4921,2.455,2.4833,2.4722,2.5243,2.6061,2.6047,2.6267,2.6538,2.4761,2.3339,2.2236,2.1613,2.0602,0.0,0.0,1.8967,2.0013,1.9771,2.0113,2.0291,1.8745,1.7258,1.6396,1.796,0.0,0.0,2.5578,2.7714,2.9604,3.1861,3.3197,3.4087,3.4668,3.5312,3.5763,3.5672,3.5023,3.461,3.4922,3.4594,3.4532,3.5188,3.4658,3.3541,3.1765,2.9482,2.8435,2.9406,3.2466,3.4972,3.6333,3.8021,3.9309,4.0037,4.007,3.961,3.8635,3.8092,3.7589,3.7175,3.6085,3.5782,3.6275,3.5797,3.5609,3.5854,3.7496,3.8705,3.9625,4.0146,4.0273,4.007,4.007,4.007,4.007,4.007,4.007,4.007,4.007,4.007,4.007,0.0,0.0,0.8125,0.6925,0.5831,0.4856,0.4085,0.3365,0.2655,0.1962,0.2267,0.2626,0.2816,0.2703,0.249,0.2151,0.5773,0.9083,1.1432,1.5953,2.0168,2.3827,2.4276,2.4893,2.5927,2.5768,2.5517,2.5146,2.5496,2.5974,2.6602,2.5238,2.4905,2.5414,2.3419,2.3126,2.4066,2.289,2.3037,2.4066,2.3791,2.335,2.2631,2.1143,1.9943,1.9084,1.922,0.0,0.0,1.6111,1.6581,1.7402,1.7393,1.8297,0.0,1.7103,1.5799,1.5801,0.0,0.0,2.084,2.7288,2.8938,3.002,3.3982,3.5569,3.6221,3.624,3.5939,3.5313,3.4033,3.3441,3.3218,3.3422,3.4049,3.4506,3.4523,3.3897,3.1816,2.7418,2.6201,2.3988,0.0,2.6573,3.3136,3.7516,3.8548,3.9309,4.0037,4.007,3.9401,3.7863,3.7806,3.7071,3.5554,3.5504,3.5504,3.5504,3.5504,3.5833,3.6543,3.8811,3.9486,3.8921,4.0484,4.0747,4.007,4.007,4.007,4.007,4.007,4.007,4.007,4.007,4.007,4.007,0.0,0.0,0.0,0.0,0.0,0.4188,0.2845,0.2379,0.2147,0.2075,0.2427,0.0,0.0,0.0,0.0,0.0,0.3092,0.5641,0.9091,1.2318,1.5541,1.8724,2.1323,2.2685,2.2656,2.3226,2.3844,2.4435,2.3906,2.3984,2.4597,2.4133,2.3997,2.4143,2.2609,2.2156,2.2434,2.1594,2.1656,2.2292,2.1406,2.1186,2.1173,1.9141,1.7868,1.71,0.0,0.0,1.4599,1.3689,1.4384,1.5558,1.5463,1.6042,1.6304,1.4195,1.5838,1.8538,0.0,0.0,2.6175,3.0332,3.2632,3.4486,3.6909,3.7276,3.6927,3.6413,3.3876,3.1369,2.9938,2.7267,2.6202,2.8971,2.7437,2.7704,3.3026,2.9475,2.7188,2.9411,2.5848,0.0,0.0,0.0,0.0,3.1072,3.5131,3.8058,3.9292,3.9343,3.9086,3.8525,3.7557,3.7263,3.7774,3.6737,3.6737,3.7716,3.7142,3.7483,3.8622,3.9503,4.0317,4.1063,4.1167,4.1153,4.1035,4.0358,4.007,4.007,4.007,4.007,4.007,4.007,4.007,4.007,0.0,0.0,0.0,0.0,0.0,0.0,0.0,0.0,0.0,0.0,0.0,0.0,0.0,0.0,0.0,0.0,0.0,0.3911,0.6995,0.9815,1.2525,1.5097,1.802,1.9488,1.9288,2.0026,2.0774,2.1469,2.1005,2.0956,2.1342,2.1247,2.127,2.141,2.037,2.0011,2.0125,1.9278,1.9095,1.9309,1.8025,1.7798,1.7965,1.6036,1.5117,0.0,0.0,0.0,1.3064,1.2367,1.3206,1.4479,1.4003,1.3978,1.415,1.4396,1.6568,1.9343,0.0,2.5308,2.9619,3.2961,3.5327,3.7082,3.7831,3.7266,3.6256,3.5089,3.1804,2.847,2.6234,2.3522,2.2559,2.5363,2.3997,2.4913,3.1675,2.8253,2.6234,2.958,2.6017,2.4421,0.0,0.0,0.0,2.8283,3.2647,3.5676,3.667,3.6861,3.7324,3.8068,3.7365,3.7365,3.8044,3.7365,3.7492,3.8431,3.8074,3.8598,3.9734,4.0357,4.0845,4.1189,4.1473,4.1186,4.0457,4.0189,4.007,4.007,4.007,4.007,4.007,4.007,4.007,4.007,0.0,0.0,0.0,0.0,0.0,0.0,0.0,0.0,0.0,0.0,0.0,0.0,0.0,0.0,0.0,0.0,0.0,0.0,0.5203,0.8381,0.0,1.2913,1.4416,1.5472,1.6022,1.6392,1.6562,1.661,1.6939,1.7111,1.7078,1.6761,1.6888,1.7309,1.6732,1.6771,1.7209,1.6041,1.5542,1.5457,1.3938,1.3344,1.3297,1.2102,0.0,0.0,0.0,0.0,1.2209,1.2066,1.3093,1.4217,1.3304,1.2651,1.3074,1.7442,1.8,1.8699,2.5472,2.8725,3.1124,3.4994,3.6899,3.7623,3.6759,3.5648,3.4229,3.2264,2.9492,2.6364,0.0,0.0,2.1687,2.2628,2.3415,2.5542,3.026,2.9634,2.8484,0.0,0.0,0.0,0.0,0.0,0.0,2.9327,0.0,3.2711,3.2868,3.3358,3.4541,3.6522,3.7338,3.7397,3.6676,3.7515,3.788,3.7794,3.8319,3.9082,3.9944,4.1325,4.1032,3.9617,4.1519,4.086,3.8621,3.9699,4.007,4.007,4.007,4.007,4.007,4.007,4.007,4.007,0.0,0.0,0.0,0.0,0.0,0.0,0.0,0.0,0.0,0.0,0.0,0.0,0.0,0.0,0.0,0.0,0.0,0.0,0.3776,0.6267,0.0,0.0,0.0,0.0,0.0,0.0,0.0,1.5424,1.495,1.4564,1.4327,1.4128,1.4024,1.3937,1.38,1.3917,1.4185,1.3421,1.3563,1.4154,0.0,1.2147,1.242,0.0,0.0,0.0,0.0,0.0,0.0,0.0,0.0,0.0,0.0,1.7486,1.7909,1.8687,2.1377,2.4605,2.6969,3.0679,3.4411,3.637,3.6952,3.6633,3.5213,3.3422,3.1074,2.7751,2.332,1.926,0.0,0.0,0.0,1.8935,1.751,0.0,2.5732,2.543,0.0,2.7343,0.0,2.9484,3.1398,3.3347,0.0,0.0,3.301,3.5317,3.6394,3.6022,3.6051,3.6584,3.6783,3.71,3.7515,3.8832,3.9731,4.0134,3.9218,4.0046,4.2369,4.1625,4.1662,4.2339,4.2331,4.1709,4.0762,4.0307,4.007,4.007,4.007,4.007,4.007,4.007,4.007,4.007,0.0,0.0,0.0,0.0,0.0,0.0,0.0,0.0,0.0,0.0,0.0,0.0,0.0,0.0,0.0,0.0,0.0,0.0,0.0,0.4606,0.59,0.0,0.0,0.0,0.0,0.0,0.0,0.0,0.0,0.0,1.0625,1.0328,1.0319,1.0518,1.0583,1.0825,1.1203,1.0998,0.0,0.0,0.0,0.0,0.0,0.0,0.0,0.0,0.0,0.0,0.0,0.0,0.0,1.7321,1.9555,2.0693,2.153,2.2987,0.0,2.8009,3.0108,3.2758,3.5304,3.6683,3.6078,3.4498,3.211,2.9412,2.6376,2.2658,1.8932,0.0,0.0,0.0,0.0,0.0,0.0,0.0,2.3295,2.3514,2.4298,0.0,2.8984,0.0,3.4624,3.5496,3.511,0.0,3.3827,3.4304,3.4524,3.433,3.4805,3.6072,3.6737,3.7674,3.8778,3.9679,4.0417,4.1025,3.9829,4.0522,4.2795,4.1564,4.1247,4.1665,0.0,4.1184,4.0204,4.0121,4.007,4.007,4.007,4.007,4.007,4.007,4.007,4.007,0.0,0.0,0.0,0.0,0.0,0.0,0.0,0.0,0.0,0.0,0.006,0.0,0.0,0.0,0.0,0.0,0.0,0.0,0.0,0.0,0.0,0.0,0.0,0.0,0.0,0.0,0.0,0.0,0.0,0.0,0.0,0.0,0.0,0.0,0.0,0.0,0.0,0.0,0.0,0.0,0.0,0.0,0.0,0.0,0.0,0.0,0.0,0.0,0.0,0.0,1.8645,1.8796,2.19,2.3415,2.4693,2.8144,2.9343,3.0251,3.3372,3.4489,3.5064,3.6197,3.4717,3.2104,2.8869,2.5142,2.1371,1.7844,0.0,1.3642,1.14,1.0837,1.1644,1.4476,0.0,1.6881,2.1026,2.2698,2.4829,2.8222,2.892,3.0811,3.5064,3.4731,3.4873,3.6326,3.4185,3.231,3.1207,3.1544,3.3035,3.5721,3.7115,3.8557,4.007,4.007,4.0419,4.1007,4.0081,4.0508,4.2154,4.1165,4.0348,3.9792,0.0,0.0,3.8689,3.9699,4.007,4.007,4.007,4.007,4.007,4.007,4.007,4.007,0.0,0.0,0.0,0.0,0.0,0.0,0.0,0.0,0.0,0.0,0.0376,-0.023,0.0,0.0,0.0,0.0,0.0,0.0,0.0,0.0,0.0,0.0,0.0,0.0,0.0,0.0,0.0,0.0,0.0,0.0,0.0,0.0,0.0,0.0,0.0,0.0,0.0,0.0,0.0,0.0,0.0,0.0,0.0,0.0,0.0,0.0,0.0,0.0,0.0,0.0,1.8534,2.056,2.5323,2.7789,2.9039,2.9719,3.163,3.3406,3.2814,3.4489,3.6146,3.5131,3.3494,3.1444,2.8851,2.3819,0.0,0.0,1.2271,1.0081,1.1204,1.0791,1.1476,1.505,0.0,0.0,0.0,0.0,2.5177,0.0,0.0,0.0,0.0,0.0,0.0,0.0,0.0,3.5186,3.546,3.5012,3.5597,3.7338,3.7648,3.8557,4.007,4.007,4.0459,4.1146,3.9135,3.96,4.2223,4.0165,3.9893,4.0914,4.1101,0.0,3.9834,4.002,4.007,4.007,4.007,4.007,4.007,4.007,4.007,4.007,0.0,0.0,0.0,0.0,0.0,0.0,0.0,0.089,0.0075,-0.0764,-0.009,0.007,-0.0986,-0.1285,-0.1136,0.0,0.0,0.0,0.0,0.0,0.0,0.0,0.0,0.0,0.0,0.0,0.0,0.0,0.0,0.0,0.0,0.0,0.0,0.0,0.0,0.0,0.0,0.0,0.0,0.0,0.0,0.0,0.0,0.0,0.0,0.0,0.0,0.0,0.0,0.0,1.632,1.7924,2.4557,2.7994,2.9516,2.9387,3.1516,3.3659,3.2517,3.3872,3.5418,3.4341,3.1779,2.841,2.423,0.0,0.0,0.0,0.8345,0.7343,0.8659,0.0,0.0,0.0,0.0,0.0,0.0,0.0,0.0,0.0,0.0,0.0,0.0,0.0,0.0,0.0,0.0,3.3211,3.5415,3.5473,3.6211,3.7764,3.7822,3.8557,4.007,4.007,4.0289,4.0608,3.9106,3.9374,4.1092,3.9598,3.9561,4.0629,4.0629,0.0,3.9069,3.9799,3.9664,3.9103,3.9816,4.007,4.007,4.007,4.007,4.007,0.0,0.0,0.0,0.0,0.0,0.0,0.0,0.0941,0.0012,-0.2234,-0.1023,-0.0278,-0.1134,-0.1331,-0.1126,0.0,0.0,0.0,0.0,0.0,0.0,0.0,0.0,0.0,0.0,0.0,0.0,0.0,0.0,0.0,0.0,0.0,0.0,0.0,0.0,0.0,0.0,0.0,0.0,0.0,0.0,0.0,0.0,0.0,0.0,0.0,0.0,0.0,0.0,0.0,1.3953,1.464,2.1501,2.5323,2.7383,2.7961,3.0174,3.2352,3.1909,3.2818,3.373,3.2834,2.9542,2.5138,1.9882,1.5535,0.0,0.0,0.5567,0.5535,0.675,0.0,0.8548,0.0,0.0,0.0,0.0,0.0,0.0,0.0,0.0,0.0,0.0,0.0,0.0,0.0,0.0,0.0,3.4547,3.5205,3.6211,3.7764,3.7822,3.8557,4.007,3.9952,3.9843,3.9836,3.8841,3.8818,3.9598,3.8952,3.9102,3.9833,4.002,0.0,0.0,3.9511,3.9257,3.815,3.9545,4.007,4.007,4.007,4.007,4.007,0.0,0.0,0.0,0.0,0.0,0.0,0.0,0.0519,-0.0073,-0.175,-0.2414,-0.2453,-0.1721,-0.1133,-0.0534,0.0,0.0,0.0,0.0,0.0,0.0,0.0,0.0,0.0,0.0,0.0,0.0,0.0,0.0,0.0,0.0,0.0,0.0,0.0,0.0,0.0,0.0,0.0,0.0,0.0,0.0,0.0,0.0,0.0,0.0,0.0,0.0,0.0,0.0,0.0,0.0,1.3165,1.6403,1.9395,2.2329,2.5445,0.0,0.0,3.0493,3.1293,3.142,2.9517,2.6481,2.3082,1.9726,0.0,0.0,0.7797,0.5771,0.5248,0.7985,0.9216,1.0695,1.3439,0.0,1.1234,0.0,0.0,0.0,0.0,0.0,0.0,0.0,0.0,0.0,0.0,0.0,0.0,3.5325,3.5474,3.6211,3.7764,3.7822,3.8557,4.007,3.9385,3.8995,3.9007,3.7499,3.7235,3.8017,3.7953,3.8318,3.9032,3.9782,0.0,0.0,3.9511,3.9257,3.815,3.9545,4.007,4.007,4.007,4.007,4.007,0.0,0.0,0.0,0.0,0.0,0.0,0.0186,-0.0825,-0.166,-0.2134,-0.2203,-0.2244,-0.2355,-0.1298,-0.0399,0.0039,0.0,0.0,0.0,0.0,0.0,0.0,0.0,0.0,0.0,0.0,0.0,0.0,0.0,0.0,0.0,0.0,0.0,0.0,0.0,0.0,0.0,0.0,0.0,0.0,0.0,0.0,0.0,0.0,0.0,0.0,0.0,0.0,0.0,0.0,0.0,0.0,1.1582,1.269,0.0,0.0,2.2459,2.508,2.4451,2.6412,2.8171,2.6263,2.4145,2.1298,1.6399,0.0,0.934,0.5678,0.4064,0.3891,0.572,0.6446,0.7846,1.1094,1.0639,0.0,0.0,0.0,0.0,0.0,0.0,0.0,0.0,0.0,0.0,0.0,0.0,0.0,3.4726,3.528,3.6211,3.7764,3.7822,3.8557,4.007,3.9315,3.869,3.8246,3.7128,3.6798,3.7084,3.7573,3.8189,3.8962,3.9782,0.0,0.0,3.9188,3.8764,3.6951,3.9238,4.007,4.007,4.007,4.007,4.007,0.0,0.0,0.0,0.0,0.0,0.0681,0.0048,-0.1045,-0.1851,-0.202,-0.1723,-0.1733,-0.2376,-0.1243,-0.0326,-0.0032,0.1135,0.0,0.0,0.0,0.0,0.0,0.0,0.0,0.0,0.0,0.2385,0.1838,0.2624,0.0,0.0,0.0,0.0,0.0,0.0,0.0,0.0,0.0,0.0,0.0,0.0,0.0,0.0,0.0,0.0,0.0,0.0,0.0,0.0,0.0,0.0,0.0,0.0,0.0,0.0,0.0,1.7455,2.0212,1.9599,2.1792,2.3932,2.2437,2.0563,1.7742,0.0,0.0,0.767,0.365,0.2923,0.3265,0.4041,0.4545,0.6048,0.9702,1.016,1.1819,1.6895,0.0,0.0,0.0,0.0,0.0,0.0,0.0,0.0,0.0,0.0,0.0,0.0,3.4943,3.5982,3.7748,3.7822,3.843,3.9731,3.8978,3.8173,3.7456,3.6631,3.6075,3.5753,3.6911,3.768,3.8084,0.0,0.0,0.0,3.912,3.8662,3.6746,3.9171,4.007,4.007,4.007,4.007,4.007,0.0,0.0,0.0,0.0,0.0,0.0,0.0295,0.0446,0.0143,-0.1055,-0.1208,-0.1308,-0.1582,-0.0836,-0.0218,-0.0016,0.123,0.0,0.0,0.0,0.0,0.0,0.0,0.0,0.0,0.0,0.3927,0.2384,0.3797,0.4277,0.3905,0.0,0.0,0.0,0.0,0.0,0.0,0.0,0.0,0.0,0.0,0.0,0.0,0.0,0.0,0.0,0.0,0.0,0.0,0.0,0.0,0.0,0.0,0.8852,0.9263,1.1635,1.3506,1.5234,1.7284,1.8208,1.8425,1.7809,1.5057,1.1797,0.0,0.0,0.4706,0.2389,0.2913,0.3802,0.3892,0.4882,0.6733,0.997,1.0553,0.0,1.4169,0.0,0.0,0.0,0.0,0.0,0.0,0.0,0.0,0.0,0.0,0.0,0.0,3.4592,3.5539,3.7732,3.7822,3.8149,3.8908,3.8189,3.7397,3.6615,3.5831,3.488,3.3819,3.5723,3.6405,0.0,0.0,0.0,0.0,3.9511,3.924,3.8116,3.9528,4.007,4.007,4.007,4.007,4.007,0.0,0.0,0.0,0.0,0.0,0.0,0.0,-0.0792,-0.1096,-0.1244,-0.1275,-0.1158,-0.0872,-0.0518,0.0133,0.1212,0.227,0.0,0.0,0.0,0.0,0.0,0.0,0.0,0.0,0.0,0.4906,0.4921,0.4967,0.4819,0.4548,0.6006,0.6899,0.0,0.0,0.0,0.0,0.0,0.0,0.0,0.0,0.0,0.0,0.0,0.0,0.0,0.0,0.0,0.0,0.0,0.0,0.0,0.0,0.0,0.0,0.8496,1.0074,1.1885,1.2786,1.3588,1.3963,1.3056,1.1722,0.9864,0.6937,0.0,0.4369,0.2318,0.2508,0.3167,0.3556,0.4425,0.6097,0.9183,1.0009,0.0,0.0,0.0,0.0,0.0,0.0,0.0,0.0,0.0,0.0,0.0,0.0,0.0,0.0,3.4152,3.5049,3.7716,3.7279,3.7381,3.8133,3.7381,3.6843,3.66,3.5831,3.4865,3.3743,3.5723,0.0,0.0,0.0,0.0,0.0,3.9511,3.9257,3.815,3.9545,4.007,4.007,4.007,4.007,4.007,0.0,0.0,0.0,0.0,0.0,0.0,0.0,-0.0838,-0.1006,-0.0695,-0.0724,-0.0644,-0.0312,-0.006,0.0472,0.1473,0.2631,0.0,0.0,0.0,0.0,0.0,0.0,0.0,0.0,0.5138,0.5688,0.6093,0.6087,0.6043,0.5997,0.7097,0.7821,0.8171,0.8901,0.0,0.0,0.0,0.0,0.0,0.0,0.0,0.6096,0.0,0.0,0.0,0.0,0.0,0.0,0.0,0.0,0.0,0.0,0.0,0.0,0.0,0.7421,0.8296,0.9326,1.0084,1.0418,0.9542,0.8623,0.7394,0.0,0.0,0.3644,0.2194,0.3066,0.3986,0.3635,0.4972,0.652,0.7739,0.9805,0.0,0.0,0.0,0.0,0.0,0.0,0.0,0.0,0.0,0.0,0.0,0.0,0.0,0.0,3.4287,3.4935,3.7317,3.6883,3.6843,3.7338,3.6843,3.6446,3.6165,3.5733,3.4865,3.3743,3.5445,0.0,0.0,0.0,0.0,0.0,3.9748,3.9579,3.8834,3.9412,3.9662,3.9662,4.002,3.9901,3.9662,0.0,0.0,0.0,0.0,0.0,0.0,0.0,0.0,0.0067,0.0372,0.0271,0.0175,0.0201,0.0508,0.0813,0.1091,0.2488,0.0,0.0,0.0,0.0,0.0,0.0,0.0,0.4533,0.5682,0.6282,0.6264,0.72,0.7739,0.7953,0.8415,0.8838,0.9173,0.8581,0.8464,0.0,0.0,0.0,0.0,0.6395,0.6846,0.0,0.0,0.0,0.0,0.0,0.0,0.0,0.0,0.0,0.0,0.0,0.0,0.0,0.0,0.0,0.0,0.0,0.7506,0.7561,0.7058,0.5823,0.457,0.4001,0.0,0.0,0.2135,0.4337,0.5841,0.4184,0.6387,0.793,0.6293,0.9962,0.0,0.0,0.0,0.0,0.0,0.0,0.0,0.0,0.0,0.0,0.0,0.0,0.0,0.0,3.4904,3.5107,3.6662,3.6557,3.6446,3.6492,3.6492,3.6119,3.537,3.5459,3.482,3.3607,3.4925,0.0,0.0,0.0,0.0,0.0,4.007,4.007,4.002,3.9193,3.8908,3.8962,3.9731,3.9542,3.9032,0.0,0.0,0.0,0.0,0.0,0.0,0.0,0.0,0.0,0.0,0.0654,0.0911,0.1219,0.0972,0.1169,0.0,0.0,0.0,0.0,0.0,0.0,0.0,0.0,0.0,0.5767,0.6115,0.6831,0.7934,0.861,0.8757,0.8383,0.9352,0.9615,0.9249,0.869,0.821,0.0,0.0,0.0,0.0,0.7278,0.7378,0.0,0.0,0.0,0.0,0.9525,0.9742,0.0,0.0,0.0,0.0,0.0,0.0,0.0,0.0,0.4123,0.3731,0.4545,0.0,0.4524,0.4328,0.3568,0.2808,0.0,0.2386,0.0,0.0,0.0,0.589,0.553,0.7943,0.9831,0.9368,0.0,0.0,0.0,0.0,0.0,0.0,0.0,0.0,0.0,0.0,0.0,0.0,0.0,0.0,0.0,3.4444,3.4679,3.6646,3.5598,3.5238,3.5782,3.5782,3.522,3.4117,3.5075,3.4388,3.2428,3.4553,0.0,0.0,0.0,0.0,4.007,4.007,4.007,4.002,3.9193,3.8908,3.8908,3.9086,3.9086,3.9032,0.0,0.0,0.0,0.0,0.0,0.0,0.0,0.0,0.0,0.0,0.0878,0.1099,0.147,0.1335,0.1738,0.0,0.0,0.0,0.0,0.0,0.0,0.0,0.0,0.6255,0.6464,0.6713,0.7348,0.8356,0.8592,0.8884,0.9193,0.9469,0.959,0.9557,0.8954,0.8284,0.763,0.0,0.0,0.0,0.807,0.0,0.0,0.0,0.0,0.0,0.9208,0.94,0.0,0.9735,0.9243,0.841,0.0,0.0,0.0,0.0,0.3188,0.2926,0.3471,0.3577,0.3689,0.4304,0.3625,0.2988,0.3687,0.3315,0.0,0.0,0.0,0.6313,0.5824,0.7718,0.0,0.0,0.0,0.0,0.0,0.0,0.0,0.0,0.0,0.0,0.0,0.0,0.0,0.0,0.0,0.0,0.0,3.4603,3.4541,3.5703,3.4956,3.4801,3.5489,3.5504,3.4895,3.3713,3.4925,3.4553,3.2808,3.4625,3.5984,0.0,0.0,0.0,4.0054,3.9378,3.9496,3.9969,3.8816,3.8414,3.8414,3.8414,3.8414,3.858,0.0,0.0,0.0,0.0,0.0,0.0,0.0,0.0,0.0,0.0,0.0,0.0,0.0,0.0,0.0,0.0,0.0,0.0,0.0,0.0,0.0,0.0,0.7076,0.7258,0.7169,0.7269,0.7687,0.8442,0.8234,0.87,0.9806,0.9316,0.9305,0.9663,0.9246,0.8636,0.7888,0.7893,0.0,0.0,0.8845,0.0,0.0,0.0,0.0,0.0,0.0,0.0,0.0,0.9643,0.9078,0.8112,0.7085,0.0,0.0,0.0,0.0,0.0,0.3024,0.3329,0.3831,0.5427,0.4928,0.433,0.5513,0.0,0.0,0.0,0.0,0.0,0.6003,0.7722,0.0,0.0,0.0,0.0,0.0,0.0,0.0,0.0,0.0,0.0,0.0,0.0,0.0,0.0,0.0,0.0,0.0,3.4757,3.442,3.4409,3.4254,3.4502,3.519,3.54,3.4895,3.3713,3.4925,3.4865,3.3743,3.4955,3.6305,0.0,0.0,0.0,4.002,3.8803,3.8955,3.9782,3.8374,3.769,3.7632,3.7748,3.7822,3.8035,0.0,0.0,0.0,0.0,0.0,0.0,0.0,0.0,0.0,0.0,0.0,0.0,0.0,0.0,0.0,0.0,0.0,0.0,0.0,0.0,0.0,0.8535,0.7143,0.7169,0.8795,0.7285,0.7492,0.955,0.9295,0.9094,0.8995,0.9616,0.9496,0.8748,0.9499,0.942,0.8765,0.9416,0.971,0.972,0.97,0.0,0.0,0.0,0.0,0.0,0.0,0.0,0.0,0.9269,0.8406,0.7242,0.6344,0.0,0.0,0.0,0.0,0.0,0.2693,0.2783,0.3358,0.5853,0.6466,0.6412,0.6176,0.0,0.0,0.0,0.0,0.0,0.0,1.1756,0.0,0.0,0.0,0.0,0.0,0.0,0.0,0.0,0.0,0.0,0.0,0.0,0.0,0.0,0.0,0.0,0.0,0.0,3.3752,3.3684,3.3135,3.314,3.3799,3.4936,3.4895,3.3713,3.4925,3.4865,3.3743,3.4955,3.6305,0.0,0.0,3.8498,4.007,3.9851,3.951,3.8978,3.8149,3.7381,3.6843,3.7573,3.7822,3.8035,0.0,0.0,0.0,0.0,0.0,0.0,0.0,0.0,0.0,0.0,0.0,0.0,0.0,0.0,0.0,0.0,0.0,0.0,0.0,0.0,0.9784,0.946,0.8533,0.8624,0.9879,0.8214,0.829,1.023,0.906,0.877,0.9355,0.968,0.9603,0.922,0.9797,0.988,0.9627,0.9882,0.9963,0.9892,0.0,0.0,0.0,0.0,0.0,0.0,0.0,0.0,0.0,0.0,0.8222,0.699,0.6127,0.0,0.0,0.0,0.0,0.0,0.2897,0.2841,0.3422,0.6606,0.6049,0.5348,0.0,0.0,0.0,0.0,0.0,0.0,0.0,0.0,0.0,0.0,0.0,0.0,0.0,0.0,0.0,0.0,0.0,0.0,0.0,0.0,0.0,0.0,0.0,0.0,0.0,0.0,3.343,3.302,3.2697,3.2662,3.2961,3.4277,3.434,3.3156,3.476,3.4865,3.3743,3.5336,3.6707,3.779,0.0,3.8346,4.0054,3.926,3.893,3.8854,3.8092,3.7338,3.6737,3.7515,3.8318,3.9156,0.0,0.0,0.0,0.0,0.0,0.0,0.0,0.0,0.0,0.0,0.0,0.0,0.0,0.0,0.0,0.0,0.0,0.0,0.0,0.0,0.9848,0.9897,0.9824,0.9987,1.0388,0.8993,0.8946,1.035,0.8664,0.8458,0.9646,0.9583,0.9657,0.9829,0.9974,1.0087,1.0183,1.0001,0.9861,0.9763,0.0,0.0,0.0,0.0,0.0,0.0,0.0,0.0,0.0,0.0,0.0,0.0,0.0,0.0,0.0,0.2656,0.2455,0.2667,0.346,0.332,0.3824,0.7426,0.0,0.0,0.0,0.0,0.0,0.0,0.0,0.0,0.0,0.0,0.0,0.0,0.0,0.0,0.0,0.0,0.0,0.0,0.0,0.0,0.0,0.0,0.0,0.0,0.0,0.0,0.0,0.0,3.2945,3.2136,3.2204,3.2287,3.2287,3.344,3.3726,3.3156,3.476,3.503,3.4194,3.5861,3.7024,3.779,3.744,3.8344,4.0037,3.8922,3.857,3.858,3.8035,3.7456,3.698,3.7573,3.8778,4.007,0.0,0.0,0.0,0.0,0.0,0.0,0.0,0.0,0.0,0.0,0.0,0.0,0.0,0.0,0.0,0.0,0.0,0.0,0.0,0.0,0.9906,0.9897,1.0183,1.029,1.0133,0.8985,0.8781,0.9575,0.8693,0.8582,0.9251,0.9348,0.9586,0.9897,0.9833,0.9967,1.0186,1.0055,0.9772,0.9404,0.9144,0.0,0.0,0.0,0.0,0.0,0.0,0.0,0.0,0.0,0.0,0.0,0.0,0.0,0.3809,0.2583,0.2608,0.3299,0.4473,0.4267,0.4569,0.8124,0.6363,0.0,0.9129,0.659,0.0,1.0068,0.0,0.0,0.0,0.0,0.0,0.0,0.0,0.0,0.0,0.0,0.0,0.0,0.0,0.0,0.0,0.0,0.0,0.0,0.0,0.0,0.0,0.0,0.0,3.0679,3.124,3.1541,3.1541,3.2302,3.3215,3.44,3.513,3.5444,3.5434,3.6229,3.7024,3.7806,3.8476,3.9265,4.007,3.9969,3.9123,3.7863,3.7822,3.7748,3.769,3.7764,3.8778,4.007,0.0,0.0,0.0,0.0,0.0,0.0,0.0,0.0,0.0,0.0,0.0,0.0,0.0,0.0,0.0,0.0,0.0,0.0,0.0,0.974,0.9813,0.9599,1.0195,1.0112,0.9248,0.9055,0.9207,0.9689,0.9126,0.9002,0.9275,0.9532,0.972,0.9842,0.9938,1.0078,1.0186,1.0055,0.9791,0.9423,0.9071,0.8203,0.0,0.0,0.0,0.0,0.0,0.0,0.0,0.0,0.687,0.5542,0.4846,0.4253,0.3722,0.3413,0.3271,0.3527,0.4898,0.4754,0.501,0.8235,0.6371,0.0,0.0,0.729,0.6024,1.0671,0.9818,0.0,0.0,0.0,0.0,0.0,0.0,0.0,0.0,0.0,0.0,0.0,0.0,0.0,0.0,0.0,0.0,0.0,0.0,0.0,0.0,0.0,0.0,3.0563,3.118,3.1482,3.1482,3.2183,3.2766,3.3275,3.4352,3.4651,3.434,3.6424,3.7261,3.7279,3.8957,3.9833,4.007,3.9542,3.8761,3.7764,3.7263,3.7338,3.7863,3.8302,3.9156,4.007,0.0,0.0,0.0,0.0,0.0,0.0,0.0,0.0,0.0,0.0,0.0,0.0,0.0,0.0,0.0,0.0,0.0,0.0,0.9376,0.9183,0.9143,0.9355,0.9804,0.9673,0.8818,0.9446,0.9748,0.9702,0.9561,0.9587,0.978,0.9746,0.9774,0.9836,0.9976,1.0093,1.0167,1.0006,0.9738,0.937,0.889,0.8134,0.0,0.0,0.0,0.0,0.0,0.0,0.0,0.0,0.6477,0.5155,0.4617,0.4265,0.399,0.3879,0.3742,0.3924,0.5213,0.5475,0.6002,0.8587,0.0,0.0,0.9939,0.8279,0.6979,1.1111,1.0884,0.0,0.0,0.0,0.0,0.0,0.0,0.0,0.0,0.0,0.0,0.0,0.0,0.0,0.0,0.0,0.0,0.0,0.0,0.0,0.0,0.0,0.0,0.0,3.0866,3.1315,3.1482,3.1988,3.2198,3.2213,3.332,3.3844,3.389,3.6346,3.7383,3.7215,3.922,4.007,4.002,3.9262,3.8302,3.7397,3.6783,3.7084,3.7863,3.8635,3.9437,4.007,0.0,0.0,0.0,0.0,0.0,0.0,0.0,0.0,0.2833,0.2624,0.2179,0.0,0.0,0.0,0.0,0.0,0.0,0.0,0.9132,0.7945,0.7831,0.9241,0.904,0.8929,0.8992,1.0175,1.0372,0.95,0.9912,1.0322,1.0758,0.9979,0.972,0.9893,0.9912,0.9981,1.0083,0.9903,0.9573,0.9143,0.8549,0.8064,0.7621,0.0,0.0,0.0,0.0,0.0,0.0,0.0,0.5898,0.4733,0.3798,0.4141,0.4707,0.3779,0.3938,0.4605,0.547,0.6477,0.7665,0.9289,0.0,0.0,1.1699,0.9536,0.7634,1.1502,0.0,0.0,0.0,0.0,0.0,0.0,0.0,0.0,0.0,0.0,0.0,0.0,0.0,0.0,0.0,0.0,0.0,0.0,0.0,0.0,0.0,0.0,0.0,0.0,3.0178,3.0821,3.1452,3.1467,3.1467,3.1482,3.2198,3.3185,3.4505,3.609,3.7158,3.7847,3.9437,4.007,4.0003,3.9193,3.7987,3.66,3.6615,3.71,3.7863,3.8635,3.9437,4.007,0.0,0.0,0.0,0.0,0.0,0.0,0.0,0.0,0.2587,0.2729,0.1715,0.0,0.0,0.0,0.0,0.0,0.0,0.0,0.9278,0.8434,0.8301,0.9196,0.9071,0.8936,0.8852,0.9852,1.0246,0.9991,0.9882,0.9916,1.0089,0.9899,0.9862,1.0009,1.0706,1.0621,0.9991,1.0655,1.0275,0.9224,0.871,0.8388,0.8147,0.0,0.0,0.0,0.0,0.0,0.0,0.0,0.0,0.0,0.4105,0.3993,0.395,0.4148,0.4499,0.5121,0.6457,0.6434,0.0,0.8912,0.0,0.0,0.0,0.9134,0.0,0.0,0.0,0.0,0.0,0.0,0.0,0.0,0.0,0.0,0.0,0.0,0.0,0.0,0.0,0.0,0.0,0.0,0.0,0.0,0.0,0.0,0.0,0.0,0.0,0.0,2.952,3.0163,3.0806,3.0806,3.1046,3.1482,3.1676,3.2294,3.3249,3.5126,3.6109,3.6443,3.8455,3.9326,3.9244,3.8455,3.7219,3.5958,3.7055,3.7573,3.7978,3.9279,3.9901,4.007,0.0,0.0,0.0,0.0,0.0,0.0,0.0,0.0,0.2706,0.2469,0.2116,0.2171,0.0,0.0,0.0,0.0,0.0,0.0,0.0,0.8157,0.8154,0.9152,0.905,0.9225,0.9772,0.9932,1.0293,1.0891,1.0357,1.0165,1.0276,1.0025,0.9897,0.9904,1.051,1.0426,0.9875,1.0586,1.039,0.9565,0.9002,0.8735,0.8661,0.0,0.0,0.0,0.0,0.0,0.0,0.0,0.0,0.0,0.4279,0.3723,0.3303,0.4502,0.4876,0.543,0.7727,0.784,0.0,1.1042,1.016,0.8688,0.9165,0.0,0.0,0.0,0.0,0.0,0.0,0.0,0.0,0.0,0.0,0.0,0.0,0.0,0.0,0.0,0.0,0.0,0.0,0.0,0.0,0.0,0.0,0.0,0.0,0.0,0.0,0.0,2.8846,2.9505,3.0133,3.0372,3.0717,3.1135,3.1347,3.2048,3.3033,3.4622,3.557,3.6207,3.7834,3.822,3.7663,3.7439,3.6648,3.5689,3.7184,3.7978,3.8374,3.961,4.007,4.007,0.0,0.0,0.2251,0.3135,0.0,0.0,0.0,0.0,0.3021,0.2144,0.2968,0.3331,0.0,0.0,0.0,0.0,0.0,0.0,0.0,0.7291,0.7536,0.9028,0.8985,0.9686,1.1282,1.025,1.0408,1.192,1.1048,1.0724,1.0894,1.0206,0.9831,0.9708,0.9791,0.9784,0.9699,0.9995,1.0099,0.9973,0.9208,0.9034,0.9094,0.8227,0.0,0.0,0.0,0.0,0.0,0.0,0.0,0.0,0.4374,0.3557,0.3033,0.4877,0.5212,0.5665,0.8886,0.9719,1.052,1.3916,1.2174,0.0,1.1904,1.2273,1.347,0.0,0.0,0.0,0.0,0.0,0.0,0.0,0.0,0.0,0.0,0.0,0.0,0.0,0.0,0.0,0.0,0.0,0.0,0.0,0.0,0.0,0.0,0.0,0.0,2.7625,2.8113,2.8771,2.949,3.0043,3.0357,0.0,3.1102,3.2127,3.3422,3.4258,3.5364,3.6769,3.7399,3.6953,3.5758,3.6342,3.6232,3.5773,3.7223,3.8253,3.9016,3.9782,4.007,4.007,0.0,0.0,0.3278,0.3219,0.0,0.0,0.0,0.0,0.0,0.2996,0.0,0.0,0.0,0.0,0.0,0.0,0.0,0.0,0.0,0.6388,0.6636,0.8263,0.8798,0.9834,1.1505,1.0286,1.0418,1.2059,1.0725,1.0125,1.0216,0.9949,0.9807,0.9818,1.055,1.0348,0.9502,1.0144,1.0086,0.9468,0.8515,0.8556,0.9094,0.8168,0.7941,0.0,0.0,0.0,0.0,0.0,0.0,0.0,0.4366,0.4546,0.4936,0.5405,0.5899,0.663,0.8228,0.7678,0.0,0.0,0.9635,1.069,1.5661,1.5539,1.5107,0.0,0.0,0.0,0.0,0.0,0.0,0.0,0.0,0.0,0.0,0.0,0.0,0.0,0.0,0.0,0.0,0.0,0.0,0.0,0.0,0.0,0.0,0.0,0.0,2.7595,2.7215,2.759,2.8801,2.8936,2.9265,0.0,3.0418,3.1165,3.1966,3.323,3.4938,3.674,3.6354,3.5985,3.571,3.587,3.5789,3.5727,3.7245,3.8253,3.9016,3.9782,4.007,4.007,0.0,0.0,0.0,0.0,0.0,0.0,0.0,0.0,0.0,0.0,0.0,0.0,0.0,0.0,0.0,0.0,0.0,0.0,0.0,0.0,0.7328,0.8423,0.8564,0.9414,1.1084,1.0215,1.0399,1.1724,1.0526,0.996,0.9996,0.9952,0.985,0.9735,1.0259,1.0042,0.9357,1.0228,1.0151,0.9414,0.9094,0.9065,0.9139,0.8168,0.7882,0.7922,0.7275,0.0,0.0,0.0,0.0,0.0,0.0,0.0,0.5037,0.6317,0.6347,0.6453,0.8671,0.0,0.0,1.0401,0.0,1.3382,1.5818,1.6258,1.6557,0.0,0.0,0.0,0.0,0.0,0.0,0.0,0.0,0.0,0.0,0.0,0.0,0.0,0.0,0.0,0.0,0.0,0.0,0.0,0.0,0.0,0.0,2.563,2.5779,2.6153,2.6437,2.6931,2.7634,2.8278,2.8771,2.9116,3.0057,3.1187,3.2495,3.353,3.4684,3.5746,3.5315,3.4816,3.425,3.4892,3.5379,3.5805,3.7264,3.8457,3.9542,3.9952,4.007,4.0121,0.0,0.0,0.0,0.0,0.0,0.0,0.0,0.0,0.0,0.0,0.0,0.0,0.0,0.0,0.0,0.0,0.0,0.0,0.0,0.0,0.0,0.8474,0.8352,0.8984,1.0538,1.0235,1.0451,1.1245,1.041,1.0171,1.0526,1.0489,1.0366,1.0176,1.0122,0.9861,0.946,1.0075,0.9986,0.9466,0.9575,0.9493,0.9204,0.8198,0.7915,0.7944,0.7073,0.6397,0.5848,0.5252,0.0,0.0,0.0,0.0,0.494,0.7264,0.6977,0.654,0.9588,1.0692,1.1337,1.2858,1.4374,0.0,1.4866,1.579,0.0,0.0,0.0,0.0,0.0,0.0,0.0,0.0,0.0,0.0,0.0,0.0,0.0,0.0,0.0,0.0,0.0,0.0,0.0,0.0,0.0,0.0,2.4567,2.5031,2.5121,2.4761,2.5854,2.6482,2.6587,2.7814,2.8464,2.8568,2.9871,3.1454,3.3297,3.3868,3.428,3.4576,3.4479,3.3735,3.2687,3.3905,3.4915,3.5712,3.7088,3.8554,3.9884,3.9884,3.9969,4.0171,0.0,0.0,0.0,0.0,0.0,0.0,0.0,0.0,0.0,0.0,0.4637,0.4858,0.0,0.4694,0.4549,0.5501,0.5863,0.6084,0.6163,0.0,0.0,0.6819,0.819,0.9429,1.042,1.0656,1.0871,1.1044,1.0336,1.0887,0.0,0.0,0.0,1.2437,1.1977,1.1239,1.0263,0.9239,0.9003,0.9228,0.812,0.8362,0.9275,0.8209,0.8032,0.818,0.0,0.62,0.5596,0.4712,0.4309,0.0,0.0,0.0,0.6652,0.7823,0.8388,0.8985,1.0434,0.0,1.1094,0.0,1.185,1.237,0.0,0.0,0.0,0.0,0.0,0.0,0.0,0.0,0.0,0.0,0.0,0.0,0.0,0.0,0.0,0.0,0.0,0.0,0.0,0.0,0.0,0.0,0.0,0.0,2.4552,2.4148,2.4358,2.5435,2.5644,2.6019,2.6587,2.7335,2.7996,2.8521,2.9736,3.1097,3.2454,3.2602,3.3387,3.4576,3.3987,3.3287,3.2656,3.3435,3.4194,3.5009,3.6387,3.7858,3.914,3.914,3.9529,4.0171,0.0,0.0,0.0,0.0,0.0,0.0,0.0,0.0,0.0,0.0,0.0,0.5827,0.6098,0.536,0.5484,0.7037,0.6872,0.668,0.6675,0.6772,0.6785,0.6614,0.7822,0.8966,0.9981,1.0228,1.0408,1.0541,1.0176,1.1224,0.0,1.3261,1.2995,0.0,0.0,0.0,0.9739,1.0048,0.9655,0.8748,0.8318,0.8293,0.8435,0.0,0.0,0.0,0.0,0.0,0.0,0.4876,0.4564,0.4337,0.4468,0.0,0.0,0.0,0.7481,0.87,0.9676,1.026,1.0919,0.0,1.1858,1.198,1.5674,0.0,0.0,0.0,0.0,0.0,0.0,0.0,0.0,0.0,0.0,0.0,0.0,0.0,0.0,0.0,0.0,0.0,0.0,0.0,0.0,0.0,0.0,2.3729,2.4029,2.3759,2.3864,2.4462,2.4852,2.5196,2.5495,2.6512,2.771,2.8996,2.9892,3.0858,3.1783,3.1841,3.2433,3.3404,3.2768,3.2535,3.261,3.2927,3.3901,3.5411,3.6863,3.8058,3.9039,3.9445,3.98,4.0171,0.0,0.0,0.0,0.0,0.0,0.0,0.0,0.0,0.0,0.0,0.0,0.6863,0.7187,0.0,0.0,0.0,0.8346,0.802,0.7769,0.7411,0.7145,0.6986,0.7672,0.8545,0.9622,0.9781,0.9941,1.0112,1.0039,1.1389,1.4015,1.3701,1.341,0.0,1.309,0.0,0.0,0.0,0.0,0.8909,0.8962,0.8515,0.7743,0.0,0.0,0.0,0.0,0.0,0.0,0.0,0.0,0.0,0.0,0.0,0.0,0.0,0.0,0.8054,0.0,0.0,1.0488,1.1991,1.1491,1.1402,0.0,0.0,0.0,0.0,0.0,0.0,0.0,0.0,0.0,0.0,0.0,0.0,0.0,0.0,0.0,0.0,0.0,0.0,0.0,0.0,0.0,0.0,0.0,2.3595,2.3595,2.3595,2.3595,2.3595,2.4268,2.4582,2.4582,2.6103,2.7581,2.9179,2.994,3.0573,3.1127,3.1134,3.135,3.17,3.1482,3.1756,3.2346,3.2514,3.3713,3.558,3.7043,3.8075,3.8802,3.9529,3.9918,4.0171,0.0,0.0,0.0,0.0,0.0,0.0,0.0,0.0,0.0,0.0,0.0,0.7618,0.9505,0.9064,0.8854,0.9382,1.0042,1.0096,0.9337,0.8683,0.8144,0.7766,0.803,0.0,0.9499,0.9633,0.9786,0.9916,0.9978,1.1401,1.4087,1.3306,1.353,1.4544,1.3875,1.3405,1.3064,0.0,0.0,1.0256,0.9687,0.8803,0.0,0.0,0.0,0.0,0.0,0.0,0.0,0.0,0.0,0.0,0.0,0.0,0.0,0.0,0.0,0.0,0.0,0.9077,0.0,0.9763,0.9392,0.0,0.0,0.0,0.0,0.0,0.0,0.0,0.0,0.0,0.0,0.0,0.0,0.0,0.0,0.0,0.0,0.0,0.0,0.0,0.0,0.0,0.0,0.0,0.0,2.3595,2.3595,2.3595,2.3595,2.3595,2.4268,2.4582,2.4582,2.6474,2.7776,2.8469,2.9695,3.0309,3.0375,3.0416,3.0165,2.9707,3.0344,3.1027,3.1678,3.2323,3.3421,3.4804,3.6269,3.7297,3.8058,3.8785,3.9478,4.0171,0.0,0.0,0.0,0.0,0.0,0.0,0.0,0.0,0.0,0.0,0.0,0.0,0.0,0.9538,0.9156,1.0177,1.0162,0.9728,0.8869,0.8953,0.8759,0.8158,0.8669,0.9193,0.9685,0.9774,0.9869,0.9957,0.9946,1.087,1.2609,1.2121,1.259,1.3898,1.446,1.3418,1.1313,1.1815,0.0,0.0,0.0,0.0,0.0,0.0,0.0,0.0,0.0,0.0,0.0,0.0,0.0,0.0,0.0,0.0,0.0,0.0,0.0,0.0,0.0,0.0,0.0,0.8896,0.811,0.7927,0.0,0.0,0.0,0.0,0.0,0.0,0.0,0.0,0.0,0.0,0.0,0.0,0.0,0.0,0.0,0.0,0.0,0.0,0.0,0.0,0.0,0.0,0.0,0.0,2.355,2.29,2.2825,2.3565,2.3834,2.4339,2.5114,2.6675,2.7913,2.8943,2.9863,3.0123,2.9733,2.9357,2.8867,2.8323,2.8984,3.0407,3.2276,3.2449,3.3614,3.5388,3.6899,3.7669,3.8058,3.9242,3.9851,4.0121,0.0,0.0,0.0,0.0,0.0,0.9072,0.8813,0.9401,1.0121,0.0,0.0,0.0,0.0,0.0,0.9984,1.0975,1.0276,0.9601,0.9228,0.939,0.9387,0.9111,0.9361,0.9717,1.0193,0.9988,0.9893,0.9957,0.9904,1.0413,1.1463,1.1306,1.178,1.2764,1.3901,1.3231,0.0,0.0,0.0,0.9758,0.0,0.0,0.8488,0.0,0.0,0.0,0.0,0.0,0.0,0.0,0.0,0.0,0.0,0.0,0.0,0.0,0.0,0.0,0.5142,0.0,0.0,0.0,0.0,0.7085,0.0,0.0,0.0,0.0,0.0,0.0,0.0,0.0,0.0,0.0,0.0,0.0,0.0,0.0,0.0,0.0,0.0,0.0,0.0,0.0,0.0,0.0,0.0,0.0,2.355,2.287,2.2836,2.3565,2.3752,2.4261,2.5045,2.6441,2.7602,2.8559,2.9522,2.9673,2.9088,2.8701,2.8271,2.7959,2.8543,3.0149,3.2305,3.2449,3.3734,3.574,3.7043,3.7686,3.8058,3.9276,3.9868,4.007,0.0,0.0,0.9296,0.8571,0.9806,1.0632,0.9839,1.003,1.0805,1.2301,0.0,0.0,0.0,0.0,0.0,1.1727,1.0512,0.9976,1.0537,1.0038,1.0017,1.0665,1.008,1.0143,1.1005,1.0229,0.985,0.9925,0.9832,1.0139,1.0785,0.0,1.1193,1.1444,1.2295,1.2881,1.3242,0.0,1.2491,1.1682,0.0,1.0564,0.9466,0.0,0.0,0.0,0.725,0.6379,0.0,0.0,0.0,0.0,0.0,0.0,0.0,0.0,0.0,0.0,0.0,0.0,0.0,0.0,0.0,0.0,0.6045,0.0,0.0,0.0,0.0,0.0,0.0,0.0,0.0,0.0,0.0,0.0,0.0,0.0,0.0,0.0,0.0,0.0,0.0,0.0,0.0,0.0,0.0,2.355,2.3595,2.3595,2.3595,2.3638,2.4116,2.443,2.443,2.5839,2.6828,2.7352,2.8734,2.9088,2.8511,2.8463,2.8463,2.8511,2.9134,3.0236,3.1645,3.2253,3.3734,3.5673,3.6468,3.7246,3.799,3.8717,3.9462,4.007,0.0,1.0096,0.9997,0.9502,0.9985,1.0443,1.0353,1.1091,1.1807,0.0,0.0,0.0,0.0,0.0,0.0,1.0875,1.0486,1.0168,0.9894,1.0273,1.0583,1.0767,1.0646,1.0956,1.1783,1.0442,0.9998,1.0558,0.9957,0.9946,0.0,0.0,0.0,0.0,1.2136,1.2194,1.2124,1.2694,0.0,0.0,1.1313,1.0631,0.0,0.0,0.0,0.0,0.0,0.697,0.0,0.0,0.5208,0.4234,0.0,0.0,0.0,0.0,0.0,0.0,0.3626,0.0,0.0,0.0,0.0,0.0,0.6729,0.8994,0.0,0.0,0.0,0.0,0.0,0.0,0.0,0.0,0.0,0.0,0.0,0.0,0.0,0.0,0.0,0.0,0.0,0.0,0.0,0.0,2.2505,2.2731,2.355,2.3595,2.3752,2.4158,2.4307,2.4776,2.554,2.699,2.7785,2.7898,2.8909,2.9088,2.8463,2.8042,2.8091,2.8511,2.9134,3.0174,3.1544,3.265,3.3802,3.4945,3.6265,3.7246,3.799,3.8717,3.9462,4.007,1.0571,1.0704,1.0643,1.009,1.0625,1.1042,1.0846,1.182,1.2617,0.0,0.0,0.0,0.0,0.0,0.0,1.0919,1.0621,1.0343,1.0006,1.0547,1.0864,1.0811,1.1535,1.1985,1.2095,1.1507,1.1067,1.0794,1.0576,0.0,0.0,0.0,0.0,0.0,1.1952,1.1635,0.0,0.0,0.0,0.0,1.1153,0.0,0.0,1.0775,0.9944,0.0,0.0,0.0,0.7653,0.7655,0.6662,0.0,0.0,0.0,0.0,0.0,0.0,0.0,0.0,0.0,0.0,0.0,0.0,0.0,0.6742,0.9184,1.1264,0.0,0.0,0.0,0.0,0.0,0.0,0.0,0.0,0.0,0.0,0.0,0.0,0.0,0.0,0.0,0.0,0.0,0.0,2.1819,2.1834,2.2209,2.3161,2.3701,2.4074,2.4389,2.4632,2.5144,2.5997,2.7202,2.7802,2.7753,2.8602,2.8732,2.8091,2.776,2.8091,2.8919,2.9225,3.012,3.14,3.2824,3.3829,3.4607,3.5825,3.6958,3.7956,3.8379,3.9191,4.007,0.0,1.1472,1.1219,1.0519,1.1337,1.19,1.1185,1.2179,1.3067,0.0,0.0,0.0,0.0,0.0,0.0,0.0,1.1001,1.0667,1.0617,1.0977,1.113,1.0949,1.2427,1.2898,1.2104,1.2599,1.2194,1.0785,0.0,0.0,0.0,0.0,0.0,0.0,1.1904,1.138,0.0,0.0,0.0,1.2343,1.1075,1.18,0.0,0.0,1.1116,0.0,1.1547,1.0928,0.9801,0.9707,0.8507,0.0,0.0,0.0,0.0,0.0,0.388,0.0,0.0,0.0,0.0,0.0,0.0,0.0,0.6323,0.9288,1.1748,0.0,0.0,0.0,0.0,0.0,0.0,0.0,0.0,0.0,0.0,0.0,0.0,0.0,0.0,0.0,0.0,1.9854,2.0177,2.0669,2.1321,2.1979,2.2679,2.3703,2.4353,2.4471,2.5012,2.554,2.6013,2.6847,2.7182,2.7005,2.7921,2.8066,2.7505,2.7595,2.8271,2.9406,2.9406,3.0064,3.1309,3.2696,3.3711,3.4455,3.5301,3.6552,3.7905,3.7905,3.8819,4.007,1.1995,1.1857,1.1447,1.11,1.1364,1.149,1.1082,1.178,1.2385,1.2437,0.0,0.0,0.0,0.0,0.0,0.0,0.0,1.1727,1.1405,1.2038,1.223,1.1789,1.214,1.225,1.2024,1.0849,1.0367,1.0653,0.0,0.0,0.0,0.0,0.0,0.0,1.2629,1.2081,0.0,0.0,0.0,1.1426,1.1748,0.0,1.2582,1.2616,1.1691,1.0443,1.1424,1.0976,0.981,0.0,0.8749,0.8096,0.0,0.0,0.0,0.0,0.0,0.0,0.0,0.0,0.0,0.0,0.0,0.0,0.6245,0.7573,0.8951,0.0,0.0,0.0,0.0,0.0,0.0,0.0,0.0,0.0,0.0,0.0,0.0,0.0,0.0,0.0,0.0,1.9971,2.0593,2.0669,2.1321,2.1979,2.2679,2.3259,2.4053,2.4996,2.5577,2.5888,2.6013,2.6759,2.6663,2.5788,2.7053,2.7409,2.6797,2.732,2.8271,2.9406,2.9406,3.0064,3.1258,3.2138,3.2949,3.3761,3.5098,3.6552,3.7905,3.7905,3.8819,4.007,1.1073,1.1017,1.0874,1.0937,1.1252,1.1424,1.1234,1.1915,1.244,1.241,0.0,0.0,0.0,0.0,0.0,0.0,0.0,0.0,0.0,0.0,1.2016,1.1275,1.2172,1.2276,1.1364,1.1318,1.1079,1.0651,0.0,0.0,0.0,0.0,0.0,0.0,0.0,0.0,0.0,0.0,1.0688,1.1179,1.1548,0.0,1.2803,1.3334,1.2913,1.208,1.2622,1.1938,1.0742,1.0002,0.9328,0.0,0.0,0.6565,0.545,0.0,0.4236,0.3522,0.0,0.0,0.0,0.4118,0.0,0.0,0.0,0.7781,0.9038,1.0129,0.0,0.0,0.0,0.0,0.0,0.0,0.0,0.0,0.0,0.0,0.0,0.0,0.0,0.0,0.0,1.9678,2.0348,2.0692,2.1021,2.1635,2.2664,2.3136,2.3834,2.476,2.5335,2.5615,2.5615,2.6021,2.5986,2.5431,2.652,2.6894,2.6602,2.7606,2.8543,2.9406,2.9717,3.0335,3.1258,3.1985,3.273,3.3508,3.4624,3.6231,3.7905,3.7905,3.8819,4.007,1.0185,1.0268,1.0348,1.0648,1.1137,1.1424,1.1219,1.1946,1.2513,0.0,0.0,0.0,0.0,0.0,0.0,0.0,0.0,0.0,0.0,0.0,1.1984,1.099,1.2405,1.2448,1.0847,1.2088,1.2113,1.0816,0.0,0.0,0.0,0.0,0.0,0.0,0.0,0.0,0.0,0.0,0.0,1.1622,0.0,1.2267,1.3006,1.3894,1.4027,1.3712,1.3799,1.3044,1.1853,1.093,0.0,0.912,0.8967,0.7717,0.0,0.0,0.0,0.0,0.0,0.0,0.0,0.0,0.0,0.6183,0.0,0.0,0.0,1.0209,0.0,0.0,0.0,0.0,0.0,0.0,0.0,0.0,0.0,0.0,0.0,0.0,0.0,0.0,0.0,1.8817,1.9573,2.0453,2.0513,2.112,2.2561,2.3016,2.367,2.4681,2.5144,2.5297,2.5221,2.5318,2.5319,2.5259,2.6059,2.6467,2.6651,2.7931,2.8826,2.9451,3.0038,3.0658,3.1258,3.1985,3.273,3.3474,3.4201,3.5893,3.7905,3.7905,3.8819,4.007,1.1041,1.106,1.0853,1.0728,1.1131,1.1256,1.0527,1.1278,0.0,0.0,0.0,0.0,0.0,0.0,0.0,0.0,0.0,0.0,1.3471,0.0,0.0,1.2581,1.2745,1.2345,1.1259,1.1411,1.1399,1.1229,0.0,0.0,0.0,0.0,0.0,0.0,1.1997,0.0,0.0,0.0,1.1922,0.0,1.3753,1.3127,0.0,1.3953,1.4159,1.3415,1.3694,1.3362,1.2541,0.0,1.038,1.0173,0.0,0.7555,0.0,0.0,0.0,0.0,0.0,0.0,0.0,0.0,0.5991,0.0,0.0,0.0,0.7798,0.8889,0.0,0.0,0.0,0.0,0.0,0.0,0.0,0.0,0.0,0.0,0.0,0.0,0.0,0.0,0.0,0.0,1.8204,1.9705,1.9794,2.0585,2.2331,2.2468,2.3512,2.5766,2.5888,2.5689,2.5205,2.5224,2.503,2.4717,2.5375,2.6019,2.6651,2.7931,2.8826,2.9451,3.0038,3.0658,3.1258,3.1985,3.273,3.3474,3.4201,3.5893,3.7905,3.7905,3.8819,4.007,1.0711,1.0768,1.0643,1.0644,1.0971,1.1056,1.0643,1.1174,0.0,0.0,0.0,0.0,0.0,0.0,0.0,0.0,0.0,1.5633,0.0,0.0,0.0,0.0,1.282,1.1885,1.0573,1.1418,1.1449,1.0547,1.1496,0.0,0.0,0.0,0.0,0.0,1.1903,0.0,1.1978,0.0,0.0,0.0,0.0,0.0,0.0,1.473,1.5105,1.4004,1.3334,1.3017,1.2657,0.0,1.0876,0.0,0.0,0.0,0.0,0.0,0.0,0.0,0.0,0.0,0.0,0.0,0.0,0.0,0.0,0.0,0.8528,0.0,0.0,0.0,0.0,0.0,0.0,0.0,0.0,0.0,0.0,0.0,0.0,0.0,0.0,0.0,0.0,0.0,0.0,0.0,0.0,1.9639,2.1225,2.255,2.3815,2.5019,2.5373,2.5144,2.4266,2.4683,2.4752,2.4642,2.6016,2.6841,2.7178,2.8801,2.9673,2.9951,3.0559,3.1211,3.185,3.2154,3.2966,3.4066,3.437,3.5893,3.7905,3.7905,3.8819,4.007,1.0525,0.0,0.0,0.0,1.0777,1.0897,1.0991,0.0,0.0,0.0,0.0,0.0,1.5856,1.5271,0.0,0.0,0.0,1.6392,0.0,0.0,1.3939,0.0,0.0,0.0,0.0,1.1881,1.1758,1.0216,1.1558,0.0,0.0,0.0,0.0,0.0,0.0,1.1795,1.1577,0.0,0.0,1.3149,1.3142,1.305,1.3167,1.5135,1.5492,1.4778,1.3619,1.3167,1.2914,1.1397,1.1284,0.0,1.071,0.0,0.0,0.0,0.0,0.0,0.798,0.0,0.0,0.0,0.0,0.0,0.0,0.0,0.0,0.0,0.0,0.0,0.0,0.0,0.0,0.0,0.0,0.0,0.0,0.0,0.0,0.0,0.0,0.0,0.0,0.0,0.0,0.0,0.0,0.0,2.0668,2.262,2.4045,2.4823,2.5051,2.4831,2.4124,2.4739,2.518,2.5425,2.6977,2.7779,2.7844,2.9518,3.0208,3.0123,3.1079,3.1799,3.2307,3.273,3.3525,3.4523,3.4962,3.6265,3.7905,3.7905,3.8819,4.007,1.0934,1.0412,0.0,0.0,0.0,0.0,0.0,0.0,0.0,0.0,0.0,0.0,0.0,0.0,0.0,0.0,0.0,1.5473,1.6264,0.0,1.48,0.0,0.0,1.3021,0.0,0.0,1.2238,1.0761,1.1919,0.0,0.0,0.0,0.0,0.0,0.0,1.1858,1.3699,1.3516,1.4046,1.5082,1.5986,1.6366,1.6168,0.0,1.4803,1.5499,1.4846,0.0,0.0,1.1836,1.145,0.0,0.0,0.0,0.0,0.0,0.0,0.0,0.0,0.0,0.0,1.0215,0.0,0.0,0.0,0.0,1.0738,0.0,0.0,0.0,0.0,0.0,0.0,0.0,0.0,0.0,0.0,0.0,0.0,0.0,0.0,0.0,0.0,0.0,0.0,0.0,0.0,0.0,2.1305,2.247,2.401,2.5892,2.5449,2.5243,2.5327,2.5955,2.6635,2.7426,2.8069,2.8421,2.8528,2.9761,2.9978,2.9528,3.1433,3.2256,3.2391,3.3829,3.4455,3.4641,3.6129,3.7195,3.7905,3.7905,3.8819,4.007,1.167,0.0,0.0,0.0,0.0,0.0,0.0,1.2912,0.0,0.0,0.0,0.0,0.0,0.0,1.6215,0.0,0.0,1.8393,1.8713,1.745,0.0,0.0,0.0,1.424,0.0,0.0,0.0,0.0,0.0,0.0,0.0,0.0,0.0,0.0,0.0,1.241,0.0,0.0,0.0,0.0,0.0,1.4599,1.499,0.0,0.0,1.4971,1.4789,1.4071,0.0,1.2039,1.2052,1.2388,1.1853,1.1438,1.1236,1.1967,1.1245,0.0,0.0,0.0,1.2941,1.3628,0.0,0.0,0.0,0.0,0.0,0.0,0.0,0.0,0.0,0.0,0.0,0.0,0.0,0.0,0.0,0.0,0.0,0.0,0.0,0.0,0.0,0.0,0.0,0.0,0.0,0.0,0.0,2.0537,2.2573,2.4409,2.4942,2.5082,2.4865,2.592,2.6808,2.7503,2.8548,2.9299,2.9717,3.0123,3.0683,3.1374,3.2032,3.2831,3.3778,3.4286,3.5081,3.6062,3.6586,3.7533,3.8633,3.8633,3.9242,4.007,1.1625,0.0,0.0,0.0,0.0,0.0,0.0,0.0,0.0,0.0,1.5884,0.0,1.5439,0.0,1.7336,0.0,1.8659,1.9247,2.0145,1.7768,0.0,1.7799,1.5515,0.0,0.0,0.0,0.0,0.0,0.0,1.2586,0.0,0.0,0.0,0.0,0.0,1.2108,1.2154,0.0,1.3089,0.0,0.0,1.3696,0.0,0.0,1.5572,1.5257,0.0,1.4061,1.3102,1.2492,1.2541,1.2822,1.2387,1.2176,1.2232,1.289,1.2683,1.2518,1.4212,1.4832,0.0,1.5944,1.5564,0.0,1.5021,0.0,0.0,0.0,0.0,0.0,0.0,0.0,0.0,0.0,0.0,0.0,0.0,1.1868,0.0,0.0,0.0,0.0,0.0,0.0,0.0,0.0,0.0,0.0,0.0,0.0,2.1587,2.2901,2.4623,2.5475,2.5303,2.6539,2.752,2.8182,2.9447,3.0038,2.9978,3.0435,3.1141,3.2009,3.2461,3.3372,3.4506,3.4776,3.5639,3.6806,3.7077,3.7922,3.8988,3.8988,3.9462,4.007,1.0836,1.011,0.0,0.0,1.063,0.0,0.0,0.0,1.8655,0.0,1.9906,2.0067,2.2236,1.9247,1.7545,1.8725,1.7706,0.0,2.0282,1.6543,0.0,0.0,1.4139,1.2862,1.4355,0.0,0.0,0.0,0.0,0.0,0.0,0.0,0.0,0.0,1.1278,0.0,1.0717,1.2031,1.2175,1.154,1.2199,1.3714,1.5433,1.4655,1.5175,1.6208,1.5108,1.4283,1.3684,1.3104,1.2881,1.2881,1.2881,1.3204,1.3527,1.3547,1.4328,1.5359,1.6098,1.6822,1.7326,1.7228,0.0,0.0,0.0,0.0,1.628,0.0,0.0,0.0,0.0,0.0,0.0,0.0,0.0,0.0,0.0,0.0,0.0,0.0,0.0,0.0,0.0,0.0,0.0,0.0,0.0,0.0,0.0,0.0,2.1016,2.1541,2.4467,2.6167,2.6523,2.7763,2.8742,2.9451,3.0651,3.0609,2.9589,3.0742,3.1381,3.1626,3.2908,3.388,3.4607,3.5368,3.6129,3.6907,3.7669,3.8413,3.9039,3.9039,3.9478,4.007,1.0891,1.0027,0.9914,0.0,1.2786,1.4656,0.0,0.0,0.0,0.0,1.9746,2.1042,2.3065,2.0244,1.8089,1.7889,1.8056,0.0,0.0,0.0,0.0,1.7989,1.6652,1.5901,1.5867,1.5272,0.0,1.3997,0.0,0.0,1.3235,0.0,0.0,0.0,0.0,0.0,0.9741,1.0772,1.1199,1.1159,1.0968,1.2234,0.0,0.0,1.4488,1.5656,1.497,1.4014,1.3104,1.2978,1.2881,1.2881,1.2881,1.327,1.379,1.4219,1.4842,1.5724,1.7186,1.7763,1.8099,1.8906,1.8268,1.7451,0.0,0.0,0.0,0.0,0.0,0.0,0.0,0.0,0.0,0.0,0.0,0.0,0.0,0.0,0.0,1.2663,0.0,0.0,0.0,0.0,0.0,0.0,0.0,0.0,0.0,0.0,0.0,2.2217,2.3222,2.4579,2.6507,2.7386,2.8572,3.0081,3.0922,3.1399,3.1558,3.1981,3.2717,3.3725,3.4074,3.4641,3.5385,3.6163,3.6924,3.7686,3.843,3.9157,3.98,3.98,3.9918,4.007,1.0847,0.0,0.0,1.1109,0.0,0.0,1.6822,0.0,0.0,2.107,2.1142,0.0,2.2344,2.0811,1.8979,1.7236,1.7619,0.0,0.0,0.0,0.0,1.8076,1.6592,1.5781,1.5813,1.5483,0.0,1.4193,0.0,0.0,1.3098,0.0,0.0,0.0,0.0,0.9595,0.0,1.0426,1.1118,1.1482,1.1098,0.0,0.0,1.3905,1.4462,1.5415,1.537,1.428,1.291,1.3096,1.3154,1.3184,1.3369,1.3901,1.451,1.5025,1.5875,1.6907,1.8073,1.8609,1.9002,1.962,1.9125,1.8573,1.8878,1.8253,1.767,0.0,0.0,0.0,0.0,0.0,0.0,0.0,0.0,0.0,0.0,0.0,0.0,0.0,0.0,0.0,0.0,0.0,0.0,0.0,0.0,0.0,0.0,0.0,0.0,2.0961,2.3752,2.555,2.6115,2.7715,2.8854,2.9463,3.0767,3.158,3.1926,3.2593,3.346,3.4489,3.4489,3.5115,3.6163,3.6603,3.7415,3.8447,3.9191,3.9715,4.007,4.007,4.007,4.007,1.0951,0.0,0.0,0.0,0.0,0.0,0.0,1.9894,0.0,2.4194,0.0,2.1483,2.0887,2.0824,1.9702,1.685,0.0,1.7196,1.7384,1.6078,1.6072,1.7824,1.5432,1.4424,1.5136,1.4971,0.0,0.0,0.0,0.0,0.0,0.0,0.0,0.0,0.0,0.0,0.0,1.0405,1.1315,0.0,1.1839,1.2896,1.4527,1.4474,1.4799,1.5328,1.5881,1.4718,1.3027,1.3539,1.3698,1.3728,1.4258,1.4893,1.5579,1.6063,1.7156,1.8328,1.8742,1.9307,1.9798,1.9798,1.9798,1.9798,1.9798,1.9861,1.9899,1.9823,1.9861,1.9559,0.0,0.0,0.0,0.0,0.0,0.0,0.0,0.0,0.0,0.0,0.0,0.0,0.0,0.0,0.0,0.0,0.0,0.0,0.0,0.0,0.0,1.9382,2.4776,0.0,2.623,0.0,2.9421,2.9227,3.0789,3.1632,3.1851,3.311,3.4049,3.4641,3.4759,3.5554,3.6789,3.6992,3.7889,3.9191,3.9834,4.007,4.007,4.007,4.007,4.007,0.0,0.0,0.0,0.0,0.0,2.0778,2.1231,2.3296,2.4351,2.3084,2.2214,2.1251,2.0106,1.9629,1.876,1.7222,1.6788,0.0,0.0,0.0,0.0,1.6769,1.63,1.5861,1.5514,1.5472,1.5128,0.0,0.0,0.0,0.0,0.0,0.0,0.0,0.0,0.0,0.97,0.9572,0.0,1.1808,1.2158,1.2791,1.3652,1.4595,1.5025,1.5173,1.5257,1.4481,1.3559,1.4574,1.4664,1.4595,1.5679,1.6428,1.7018,1.7533,1.827,1.8921,1.9443,1.9695,1.9798,1.9798,1.9798,1.9798,1.9798,2.0175,2.0376,1.9899,2.0188,2.0313,1.9597,0.0,0.0,0.0,0.0,0.0,0.0,0.0,0.0,0.0,0.0,0.0,0.0,0.0,0.0,0.0,0.0,0.0,0.0,0.0,0.0,0.0,2.3056,0.0,0.0,0.0,3.0337,3.3419,3.2658,3.2896,3.3987,3.4834,3.5301,3.5453,3.6096,3.6535,3.6874,3.8108,3.9123,3.9901,4.002,4.007,4.007,4.007,4.007,4.007,0.0,0.0,0.0,0.0,0.0,0.0,0.0,2.4004,0.0,2.3158,2.2264,2.1236,2.002,1.9612,1.8951,1.7824,1.7342,1.7047,1.6846,1.6334,1.6006,1.6039,1.5732,0.0,1.4417,1.4864,1.462,1.3532,0.0,0.0,0.0,0.0,0.0,0.0,0.0,0.8909,0.0,0.0,0.0,1.2262,1.2985,1.3659,1.4326,1.5206,1.5478,1.5509,1.617,1.568,1.486,1.5373,1.5719,1.5983,1.6782,1.7462,1.8076,1.8339,1.8888,1.9484,1.9736,1.9798,1.9798,1.9798,1.9798,1.9874,2.0188,2.0464,2.0643,2.0313,2.0476,2.0313,1.897,1.7915,0.0,0.0,0.0,0.0,0.0,0.0,0.0,0.0,0.0,0.0,0.0,0.0,0.0,0.0,0.0,0.0,0.0,0.0,0.0,0.0,0.0,0.0,0.0,0.0,0.0,3.2921,3.3039,3.3573,3.4523,3.5267,3.5842,3.6231,3.662,3.7212,3.8007,3.9106,3.9766,4.007,4.007,4.007,4.007,4.007,4.007,4.007,0.0,1.8781,0.0,0.0,2.2932,0.0,2.4633,2.4218,2.3764,2.3172,2.2197,2.1056,1.9859,1.9623,1.9157,1.8172,1.7683,1.7377,1.7308,1.6131,1.5471,1.5564,1.5017,1.4272,1.3426,1.415,1.3868,0.0,0.0,0.0,0.0,0.0,0.0,0.0,0.0,0.0,0.0,0.0,1.2942,1.3212,1.397,1.4596,1.5201,1.5628,1.5718,1.578,1.6949,1.6896,1.6299,1.645,1.6824,1.7311,1.7909,1.8447,1.8927,1.8927,1.9457,1.9987,1.9987,2.0075,2.0162,2.0162,2.0162,2.0275,2.074,2.0983,2.1033,2.092,2.0894,2.0385,1.8883,1.8449,0.0,0.0,0.0,0.0,0.0,0.0,0.0,0.0,0.0,0.0,0.0,0.0,0.0,0.0,0.0,1.6135,1.6835,1.9202,0.0,0.0,0.0,2.7987,2.929,0.0,3.1873,0.0,3.3309,3.3989,3.4742,3.5351,3.6045,3.6789,3.6958,3.7855,3.9276,3.9834,4.007,4.007,4.007,4.007,4.007,4.007,4.007,4.007,0.0,0.0,0.0,0.0,0.0,0.0,0.0,2.5359,2.4033,2.2133,2.1293,2.0357,1.896,1.8785,1.8545,1.7834,1.6892,1.6527,1.7008,1.5608,1.4959,1.5377,1.4971,1.4378,1.3772,1.382,1.3558,0.0,0.0,0.0,0.0,0.0,0.0,0.0,0.0,0.0,0.0,1.2881,1.3744,1.4612,1.4707,1.5008,1.5351,1.5448,1.5467,1.5525,1.6301,1.6946,1.7555,1.8205,1.823,1.8202,1.9251,1.9643,1.9695,1.9695,2.0122,2.0643,2.0643,2.0953,2.133,2.133,2.133,2.1343,2.1393,2.1794,2.202,2.1518,2.1418,2.1368,2.1204,2.0216,1.9233,0.0,0.0,0.0,0.0,0.0,0.0,0.0,0.0,0.0,0.0,0.0,0.0,0.0,0.0,1.7305,1.9585,1.9562,2.0648,2.3302,0.0,2.7814,3.1302,3.0998,3.2643,3.6287,3.4489,3.4255,3.552,3.5588,3.6045,3.6823,3.7499,3.8616,3.9986,4.0054,4.007,4.007,4.007,4.007,4.007,4.007,4.007,4.007,0.0,0.0,0.0,0.0,0.0,0.0,0.0,2.5272,2.422,2.2283,2.1773,2.1042,1.9512,1.8555,1.7951,1.767,1.7971,1.7523,1.5998,1.5314,1.4789,1.4457,1.3931,1.3525,1.3286,1.3238,1.3152,0.0,0.0,0.0,0.0,0.0,0.0,0.0,0.0,1.277,1.2684,1.3774,1.4453,1.4805,1.5059,1.5264,1.5439,1.5703,1.5801,1.6009,1.7488,1.8228,1.8691,1.9956,1.983,1.9191,1.9672,2.0037,2.0326,2.0326,2.0715,2.1154,2.1154,2.133,2.1493,2.1493,2.1493,2.1581,2.1907,2.2159,2.2246,2.2033,2.1719,2.1493,2.1493,2.0811,2.0127,0.0,0.0,0.0,0.0,0.0,0.0,0.0,0.0,0.0,0.0,0.0,0.0,0.0,0.0,1.6142,1.7463,1.8796,2.0846,2.367,0.0,2.8364,3.2622,3.2172,3.3288,3.6079,3.5211,3.5311,3.6315,3.6315,3.6975,3.8142,3.8886,3.9546,4.007,4.007,4.007,4.007,4.007,4.007,4.007,4.007,4.007,4.0138,2.9708,0.0,2.531,0.0,2.5073,2.5592,2.5848,2.5457,2.4793,2.3881,2.3044,2.1738,1.9751,1.8351,1.7413,1.6968,1.7761,1.7496,1.5719,1.5081,1.4601,1.4139,1.3581,0.0,1.3252,1.3125,1.3125,1.3252,1.232,0.0,0.0,0.0,0.0,0.0,1.3038,1.3559,1.3546,1.4547,1.5049,1.5176,1.5342,1.5488,1.5694,1.6228,1.6467,1.6758,1.8755,1.9467,1.9703,2.1063,2.0953,2.03,2.03,2.0577,2.0957,2.0957,2.1305,2.1732,2.1732,2.1845,2.197,2.197,2.197,2.2071,2.2472,2.2548,2.2548,2.2548,2.2246,2.197,2.197,2.1656,2.1319,2.103,0.0,0.0,0.0,0.0,0.0,0.0,0.0,1.835,1.9693,0.0,0.0,0.0,0.0,0.0,1.7909,1.9167,0.0,0.0,0.0,0.0,0.0,3.2907,3.3989,3.6299,3.6299,3.6569,3.711,3.733,3.8007,3.9039,3.9766,4.007,4.007,4.007,4.007,4.007,4.007,4.007,4.007,4.007,4.0223,4.0493,2.9672,2.9057,2.8481,2.7715,2.758,2.7595,2.756,2.6361,2.5918,2.7327,2.4939,2.1994,1.9239,1.8159,1.7024,1.5526,1.5459,1.572,1.6455,1.5008,1.4324,0.0,0.0,1.4068,1.4068,1.3711,1.3701,1.4068,0.0,0.0,1.3304,0.0,1.3719,1.3322,1.4716,1.5156,1.4795,1.5225,1.5654,1.6066,1.5586,1.5674,1.6176,1.7044,1.7387,1.7627,1.9645,2.0366,2.0493,2.1256,2.1481,2.1468,2.1468,2.1468,2.1481,2.1481,2.187,2.2297,2.2297,2.2698,2.3053,2.3053,2.3053,2.3053,2.3065,2.3065,2.3065,2.3065,2.3065,2.3053,2.3053,2.3053,2.2854,2.2163,0.0,0.0,0.0,0.0,0.0,0.0,1.8627,1.8502,1.9521,0.0,0.0,0.0,0.0,0.0,0.0,0.0,0.0,2.6246,2.6401,0.0,3.259,3.2943,3.4673,3.7872,3.7872,3.7889,3.7922,3.8633,3.8971,3.9039,3.9766,4.007,4.007,4.007,4.007,4.007,4.007,4.007,4.007,4.007,4.0544,4.1187,2.6281,2.6823,2.7894,2.761,2.7625,2.7625,2.7625,2.7188,2.6361,2.4741,2.1646,1.8308,1.4759,1.3469,1.2647,0.0,1.5274,1.6324,0.0,1.472,1.4831,1.4407,1.3293,1.2713,1.2713,1.2595,1.2586,1.2713,0.0,0.0,0.0,1.4013,1.4344,1.4388,1.541,1.5781,1.5684,1.6133,1.6387,1.6514,1.6367,1.6396,1.6605,1.7802,1.8227,1.8529,2.0618,2.1439,2.156,2.2303,2.2611,2.2611,2.2611,2.2347,2.2046,2.2046,2.2447,2.2874,2.2874,2.294,2.3078,2.3078,2.3078,2.3238,2.364,2.4017,2.418,2.3803,2.4029,2.4167,2.3791,2.3401,2.2879,2.2188,2.1703,0.0,0.0,0.0,0.0,0.0,2.0385,2.0153,0.0,2.0249,0.0,0.0,0.0,0.0,0.0,0.0,0.0,0.0,2.9737,0.0,3.5446,3.5243,3.6071,3.7905,3.7905,3.8159,3.8667,3.9394,3.9732,3.9749,3.9969,4.007,4.007,4.007,4.007,4.007,4.007,4.007,4.007,4.007,4.0223,4.0578,2.5786,2.5212,2.5775,2.7345,2.7625,2.7513,2.7216,2.7186,2.5743,2.1726,1.8073,1.4942,1.2586,1.2937,0.0,1.0785,1.4342,1.6056,1.4676,1.5318,1.5475,1.4951,1.3904,1.3041,1.2358,0.0,0.0,1.3359,1.4017,1.4421,1.4591,1.5119,1.5403,1.5537,1.6074,1.6318,1.6328,1.6611,1.6826,1.6963,1.6797,1.7007,1.7547,1.868,1.928,1.9845,2.1675,2.2384,2.2445,2.2944,2.3078,2.3115,2.3389,2.3226,2.2949,2.2949,2.3339,2.3666,2.3514,2.3615,2.3715,2.3514,2.3615,2.3866,2.4217,2.4569,2.472,2.4381,2.4582,2.4657,2.4104,2.3703,2.3223,2.2566,2.2091,2.205,2.2665,0.0,0.0,0.0,0.0,0.0,0.0,2.294,0.0,0.0,0.0,0.0,0.0,0.0,0.0,2.9466,3.1467,0.0,3.6908,3.6684,3.7251,3.8717,3.8717,3.8789,3.9008,3.975,3.9952,3.9662,3.9969,4.007,4.007,4.007,4.007,4.007,4.007,4.007,4.0104,4.0392,4.0679,4.1085,2.7488,2.4447,0.0,0.0,2.7386,0.0,2.6585,2.6533,2.4417,1.8488,1.4656,1.2412,1.2371,1.5471,1.5856,1.1461,0.0,0.0,0.0,1.6547,1.6223,1.6279,1.5692,1.4608,1.2949,1.4166,1.5021,1.5508,1.5908,1.6328,1.6665,1.6665,1.6665,1.6665,1.6758,1.6777,1.6777,1.6807,1.7051,1.7393,1.7047,1.7607,1.8776,1.9709,2.0523,2.1392,2.2637,2.3103,2.3128,2.3128,2.3165,2.3351,2.3891,2.4079,2.4104,2.4067,2.4418,2.4707,2.4192,2.4431,2.4695,2.4192,2.4469,2.487,2.4833,2.4883,2.4921,2.4883,2.4908,2.477,2.4217,2.4079,2.3866,2.3288,2.2698,2.2539,2.328,0.0,0.0,0.0,0.0,0.0,0.0,2.6243,2.6704,0.0,0.0,0.0,0.0,0.0,2.7453,3.1202,3.2082,3.4052,3.737,3.7353,3.8238,4.007,4.007,3.9662,3.8908,3.9731,3.9662,3.8962,3.9782,4.007,4.007,4.007,4.007,4.007,4.007,4.007,4.0172,4.0933,4.1627,4.2337,0.0,0.0,2.5436,2.3252,2.502,2.6726,2.6514,2.6533,2.3727,1.6039,1.4218,1.3494,1.3046,1.3383,1.4379,1.6129,1.6814,1.6844,1.5928,1.667,1.6837,1.6289,1.5345,1.5022,1.5438,1.4921,1.5219,1.6364,1.6523,1.6631,1.6665,1.6665,1.6665,1.6748,1.708,1.7227,1.7246,1.7568,1.7764,1.7919,1.8446,1.8851,1.9327,2.0865,2.1564,2.1834,2.2774,2.3427,2.3791,2.3791,2.4067,2.4443,2.4582,2.4895,2.5134,2.4745,2.472,2.4795,2.4669,2.472,2.4795,2.4657,2.5021,2.531,2.4908,2.5473,2.595,2.5498,2.5762,2.59,2.5322,2.4895,2.4443,2.3891,2.2962,2.2439,2.2858,2.3272,0.0,0.0,2.5299,2.5921,2.5745,2.7087,2.7431,0.0,0.0,0.0,0.0,3.0985,3.2625,3.4449,3.5778,3.7384,3.9379,3.8816,3.9035,4.007,4.007,3.9662,3.8908,3.9731,3.9662,3.8962,3.9782,4.007,4.007,4.007,4.007,4.007,4.007,4.007,4.0172,4.0933,4.1322,4.1538,2.7639,2.7183,2.638,2.4097,2.5294,2.6533,2.6533,2.3262,1.9927,1.7382,1.5304,1.3968,1.3647,1.4299,1.5782,1.8383,1.8277,1.7652,1.671,1.7132,1.7278,1.707,1.6277,1.6258,1.707,1.6457,1.6627,1.7541,1.7541,1.7705,1.79,1.79,1.79,1.791,1.8144,1.8252,1.8252,1.8281,1.8418,1.8644,1.9369,1.9998,2.0718,2.2127,2.2859,2.3252,2.3717,2.4104,2.4381,2.4381,2.4569,2.4858,2.5096,2.5548,2.5988,2.595,2.595,2.5887,2.5636,2.5937,2.6327,2.6327,2.654,2.6678,2.6389,2.659,2.6741,2.6427,2.6414,2.6289,2.5699,2.5172,2.4644,2.4092,2.2955,2.2347,2.3137,2.3568,0.0,2.5862,2.7156,2.7939,2.8039,2.9663,3.0116,2.8638,0.0,0.0,3.2497,3.4296,3.5582,3.6146,3.7551,3.8941,4.007,3.9662,3.9662,4.0087,3.9731,3.9315,3.8908,3.9368,3.9315,3.8962,3.9782,4.007,4.007,4.007,4.007,4.007,4.007,4.029,4.0679,4.1424,4.1685,4.1738,2.8607,2.7277,2.6533,2.6533,2.6533,2.6647,2.6987,1.9799,1.5643,1.9297,1.6487,1.4253,1.4396,1.6212,1.7867,1.9027,1.863,1.8271,1.8271,1.7891,1.7812,1.8125,1.7842,1.7861,1.8262,1.8223,1.8379,1.874,1.874,1.8926,1.9287,1.9287,1.9287,1.9287,1.9287,1.9287,1.9268,1.8887,1.8955,1.9321,1.9906,2.0928,2.2115,2.3089,2.3989,2.482,2.482,2.487,2.4946,2.4946,2.4996,2.5159,2.5686,2.6189,2.676,2.7243,2.7469,2.7406,2.6854,2.7394,2.8109,2.8109,2.8109,2.8109,2.8109,2.7745,2.7406,2.7406,2.6967,2.6465,2.605,2.5347,2.4695,2.4368,2.301,2.2441,2.3647,0.0,2.5103,2.7729,2.8913,2.9859,3.0705,3.2623,3.3246,3.2095,3.3939,3.5349,3.5915,3.6736,3.7186,3.7127,3.8333,3.9278,3.9885,4.002,4.002,3.9901,3.9209,3.8854,3.8745,3.8854,3.8908,3.8962,3.9782,4.007,4.007,4.007,4.007,4.0087,4.0206,4.0577,4.1131,4.1974,4.2149,4.2064,3.1001,2.8488,2.6533,2.6533,2.6533,2.7163,2.8988,2.1474,1.5647,1.5839,1.5108,1.4884,1.5704,1.6141,1.7006,1.8299,1.9069,1.9463,1.9463,1.917,1.8916,1.876,1.8906,1.9141,1.9463,1.9219,1.9121,1.9189,1.9189,1.9219,1.9287,1.9287,1.9287,1.9287,1.9287,1.9287,1.9287,1.9219,1.9228,1.935,2.0185,2.1091,2.2104,2.301,2.3911,2.482,2.482,2.5109,2.5473,2.5473,2.5799,2.6302,2.6854,2.708,2.7268,2.7821,2.831,2.8549,2.7996,2.7971,2.8109,2.8109,2.8109,2.8109,2.8109,2.8047,2.7971,2.7971,2.7544,2.7268,2.7645,2.6126,2.4998,2.569,2.4004,2.3007,2.4055,0.0,2.7028,2.8612,3.0671,3.2034,3.2183,3.3568,3.4382,3.4226,3.5628,3.678,3.7516,3.7635,3.7983,3.865,3.8837,3.897,3.9086,3.9782,3.9782,3.9086,3.8962,3.858,3.7978,3.8635,3.8908,3.8962,3.9782,4.007,4.007,4.007,4.007,4.0138,4.0781,4.0668,4.0271,4.1716,4.1733,4.1132,3.0364,2.8402,2.6911,2.8047,2.826,2.8599,2.9628,2.4036,1.8728,1.5828,1.5077,1.5497,1.7227,1.7728,1.8198,1.8931,1.9923,2.044,2.0236,1.9652,1.9228,1.9111,1.9443,1.9795,2.0176,2.0049,2.0098,2.0332,2.0098,2.0225,2.0674,2.0195,2.0107,2.0322,2.0088,1.9971,1.9961,1.9727,1.9756,2.0102,2.1362,2.2253,2.3007,2.4785,2.5772,2.6189,2.6477,2.6741,2.6954,2.6954,2.713,2.7394,2.7645,2.7934,2.8222,2.8473,2.8737,2.8938,2.9001,2.9013,2.9013,2.9013,2.9013,2.9013,2.9013,2.8775,2.8549,2.8549,2.8109,2.7808,2.8059,2.6791,2.6143,2.7324,2.5428,0.0,0.0,2.7512,2.8695,3.0338,3.2347,3.3574,3.3574,3.4893,3.5395,3.4628,3.595,3.7086,3.7836,3.7462,3.7536,3.8339,3.9149,3.9315,3.8908,3.9262,3.9102,3.8302,3.7889,3.7716,3.7806,3.8149,3.8525,3.8962,3.9782,4.007,4.007,4.007,4.0307,4.0662,4.0528,4.0785,4.1148,4.1406,4.1197,4.0789,2.8787,2.7846,2.7469,2.9453,2.9378,2.887,2.8291,2.484,2.0674,1.6379,1.5807,1.655,1.8469,1.9143,1.9668,2.0016,2.0733,2.1138,2.0771,2.0304,1.9902,1.9788,2.0195,2.0527,2.0859,2.0869,2.1045,2.1387,2.1045,2.1221,2.1875,2.1191,2.1055,2.1367,2.0918,2.0771,2.085,2.041,2.0613,2.1359,2.2573,2.3526,2.4414,2.6396,2.7313,2.7532,2.7959,2.8109,2.8109,2.8109,2.8109,2.8134,2.826,2.8586,2.895,2.9089,2.9126,2.9227,2.9666,2.9792,2.9792,2.9792,2.9792,2.9792,2.9792,2.9453,2.9126,2.9126,2.8687,2.8335,2.8473,2.7683,2.7413,2.8781,0.0,0.0,0.0,2.9508,3.0337,3.206,3.3583,3.4547,3.4696,3.6079,3.6426,3.5081,3.6361,3.7403,3.7801,3.7102,3.6959,3.7499,3.8816,3.9332,3.8908,3.8908,3.8469,3.7515,3.6919,3.7024,3.7822,3.7822,3.8302,3.9193,3.9833,4.007,4.0087,4.0273,4.056,4.0872,4.0558,4.0893,4.1545,4.1023,4.0642,4.0363,2.708,2.7394,2.8373,2.9578,2.8131,2.6058,2.3887,2.1382,1.8848,1.6103,1.708,1.8308,1.8782,1.9634,2.0412,2.1173,2.1347,2.1385,2.1325,2.1804,2.1811,2.1255,2.1598,2.1758,2.1787,2.1787,2.1807,2.1836,2.1807,2.1826,2.1885,2.1816,2.1807,2.1816,2.1377,2.1406,2.1758,2.1318,2.191,2.3318,2.3435,2.4592,2.6407,2.6605,2.725,2.8047,2.8097,2.8109,2.8109,2.8109,2.8109,2.8197,2.8699,2.89,2.9038,2.9566,2.9729,2.9741,2.9779,2.9792,2.9792,2.9792,2.9792,2.9792,2.9792,2.9767,2.9729,2.9729,2.9264,2.9038,2.9566,2.9086,2.8862,2.9736,0.0,0.0,3.063,3.1276,3.209,3.3274,3.4038,3.4726,3.537,3.6812,3.7345,3.6521,3.7883,3.8449,3.7841,3.7006,3.6614,3.6661,3.7515,3.8262,3.8908,3.8908,3.8157,3.6661,3.66,3.7024,3.7822,3.7822,3.8596,4.002,4.007,4.007,4.0121,4.0832,4.0682,4.0127,4.1511,4.111,3.9893,4.0515,4.0209,3.9481,2.8687,2.8863,2.8882,2.79,2.8211,2.7799,2.5557,2.0685,1.6835,1.592,1.6386,1.7987,2.1201,2.1764,2.2016,2.1992,2.2279,2.2242,2.1758,2.1914,2.1977,2.1763,2.1865,2.1885,2.1885,2.1885,2.2012,2.2275,2.2012,2.2158,2.2646,2.2129,2.2021,2.2256,2.1826,2.1728,2.1875,2.1709,2.2342,2.3572,2.4208,2.5292,2.6713,2.7677,2.8288,2.8662,2.9026,2.9151,2.9151,2.9151,2.9151,2.9189,2.9402,2.9704,3.0018,3.0244,3.0306,3.0306,3.0306,3.0055,2.9792,2.9792,2.9792,2.9792,2.9792,2.9792,2.9792,2.9792,2.9616,2.9745,3.0519,3.0171,3.0355,3.2179,0.0,3.1242,3.2909,3.2971,3.3181,3.4023,3.4696,3.522,3.5489,3.6461,3.6753,3.6006,3.6904,3.7365,3.7084,3.6798,3.6615,3.6615,3.6904,3.7188,3.7467,3.7467,3.6964,3.5958,3.5958,3.6568,3.7728,3.778,3.8618,4.0104,4.0104,4.007,4.0138,4.0899,4.0929,4.0656,4.1184,4.096,4.0282,3.9954,3.9666,3.9424,2.9792,2.9792,2.9209,2.7221,2.8119,2.8542,2.6812,2.1725,1.8118,1.8118,1.8118,1.9214,2.2041,2.2775,2.2978,2.2588,2.291,2.2872,2.2349,2.2269,2.2217,2.209,2.2207,2.2275,2.2275,2.2275,2.2422,2.2715,2.2422,2.2578,2.3125,2.2549,2.2432,2.2685,2.2266,2.2158,2.2266,2.2536,2.334,2.4492,2.5532,2.664,2.7697,2.8811,2.9202,2.9277,2.9842,3.0043,3.008,3.0244,3.0294,3.0294,3.0294,3.0545,3.0859,3.0859,3.0859,3.0859,3.0859,3.0583,3.0294,3.0294,3.0294,3.0294,3.0294,3.0294,3.0294,3.0294,3.0168,3.0379,3.1557,3.1556,3.214,3.4295,3.363,3.3363,3.4902,3.4547,3.4292,3.4741,3.522,3.5504,3.5504,3.6165,3.6275,3.5554,3.6165,3.6492,3.6275,3.6275,3.6382,3.6582,3.6597,3.6597,3.6597,3.66,3.6228,3.5504,3.5944,3.6858,3.8105,3.8649,3.9429,4.0484,4.0658,4.0646,4.051,4.1211,4.1299,4.0967,4.088,4.0607,4.0239,3.961,3.9424,3.9424,2.9792,2.9792,2.9287,2.7867,2.7626,2.7371,2.6554,2.4563,2.3135,2.3135,2.3135,2.2492,2.0845,2.2129,2.3135,2.3135,2.3135,2.3135,2.3135,2.3135,2.2949,2.2539,2.292,2.3135,2.3135,2.3135,2.3135,2.3135,2.3135,2.3135,2.3135,2.3135,2.3135,2.3125,2.2705,2.2754,2.3105,2.3907,2.5042,2.6554,2.7683,2.8779,2.9804,2.9804,2.9804,2.988,3.0432,3.062,3.0708,3.1223,3.1386,3.1386,3.1399,3.1399,3.1399,3.1399,3.1399,3.1399,3.1399,3.1399,3.1399,3.1386,3.1386,3.1386,3.1386,3.1386,3.1386,3.1386,3.0984,3.1077,3.2686,3.3335,3.4136,3.5727,3.6291,3.6492,3.6492,3.5923,3.5519,3.5519,3.5519,3.5519,3.5519,3.618,3.629,3.5584,3.618,3.629,3.5569,3.5519,3.5818,3.6477,3.6492,3.6492,3.6492,3.6565,3.6228,3.5519,3.698,3.812,3.898,4.0484,4.1216,4.1271,4.1982,4.188,4.127,4.1913,4.165,4.0849,4.0763,4.0185,3.9424,3.9424,3.9424,3.9424,2.9792,2.8961,2.7959,2.6964,2.6801,2.6224,2.4392,2.356,2.3135,2.3135,2.3135,2.295,2.2403,2.2775,2.3135,2.3135,2.3135,2.3135,2.3135,2.3135,2.3086,2.2959,2.3076,2.3135,2.3135,2.3135,2.3135,2.3135,2.3135,2.3135,2.3135,2.3135,2.3135,2.3135,2.3008,2.3018,2.3125,2.3335,2.4598,2.6565,2.6883,2.8345,3.0369,3.0369,3.0595,3.0934,3.1097,3.116,3.1185,3.1336,3.1386,3.1461,3.1838,3.1964,3.1964,3.1964,3.1964,3.1964,3.1964,3.1964,3.1876,3.1486,3.1386,3.1386,3.1386,3.1386,3.1386,3.1386,3.1893,3.2659,3.3783,3.471,3.5683,3.6777,3.7103,3.7135,3.7135,3.6971,3.6836,3.6836,3.6836,3.6836,3.6836,3.7007,3.7074,3.6836,3.7007,3.7074,3.6836,3.6836,3.6926,3.7135,3.7135,3.7135,3.7135,3.6743,3.6185,3.5504,3.6396,3.7853,3.9686,4.0091,4.1206,4.2743,4.2422,4.1812,4.115,4.1865,4.1329,4.0025,4.0494,4.046,4.0113,4.0113,4.0113,4.0113,2.9197,2.8438,2.736,2.6047,2.5975,2.521,2.2561,2.1033,2.0944,2.2862,2.3135,2.3135,2.3135,2.3135,2.3135,2.3135,2.3135,2.3135,2.3135,2.3135,2.3213,2.3389,2.3232,2.3135,2.3135,2.3135,2.3135,2.3135,2.3135,2.3135,2.3135,2.3135,2.3135,2.3135,2.3135,2.3135,2.3135,2.4059,2.5221,2.6577,2.7685,2.9141,3.0633,3.0846,3.1122,3.1411,3.1637,3.1725,3.175,3.1976,3.2202,3.2478,3.3031,3.3206,3.3206,3.3206,3.3206,3.3206,3.3206,3.3206,3.3131,3.2792,3.2378,3.2051,3.2051,3.2051,3.2051,3.2051,3.2739,3.3712,3.4912,3.5844,3.6765,3.8012,3.7973,3.7808,3.7808,3.7569,3.7404,3.7404,3.7404,3.7404,3.7404,3.7404,3.7404,3.7404,3.7404,3.7404,3.7404,3.7404,3.7524,3.7793,3.7808,3.7808,3.7808,3.7419,3.6911,3.6267,3.7298,3.8676,4.0424,4.0974,4.2038,4.3348,4.2886,4.2226,4.146,4.1565,4.0975,4.0065,4.0155,4.0273,4.0397,4.0397,4.0561,4.0786,2.8347,2.8004,2.7267,2.502,2.4787,2.4094,2.1284,1.8203,1.7848,2.2501,2.3135,2.3135,2.3135,2.3135,2.3164,2.3252,2.3281,2.3281,2.3252,2.3252,2.3437,2.3828,2.3467,2.3252,2.3252,2.3184,2.3154,2.3193,2.3154,2.3135,2.3135,2.3135,2.3164,2.3193,2.3193,2.3213,2.334,2.5518,2.6523,2.6817,2.946,3.0628,3.0809,3.1286,3.1524,3.1687,3.219,3.239,3.2516,3.3043,3.3558,3.406,3.4562,3.4726,3.4726,3.4726,3.4726,3.4726,3.4726,3.4726,3.4726,3.4726,3.3972,3.3219,3.3219,3.3219,3.3219,3.3219,3.3752,3.462,3.6108,3.6968,3.7872,3.9339,3.902,3.8571,3.8571,3.8003,3.7584,3.7584,3.7584,3.7584,3.7584,3.7584,3.7584,3.7584,3.7584,3.7584,3.7584,3.7584,3.7868,3.8467,3.8482,3.8482,3.8482,3.8482,3.8123,3.7419,3.8959,4.0193,4.1036,4.2598,4.3315,4.3373,4.3322,4.2851,4.1978,4.1078,4.0653,4.0578,3.9828,3.9948,4.0561,4.0502,4.0905,4.1535,2.8347,2.7441,2.6097,2.3725,2.2465,2.1915,2.2492,2.0395,1.9761,2.2687,2.3135,2.3135,2.3135,2.3135,2.3408,2.4082,2.4365,2.4404,2.416,2.4141,2.418,2.4277,2.4189,2.4141,2.4141,2.3486,2.3301,2.3652,2.3301,2.3135,2.3135,2.3135,2.332,2.3652,2.3652,2.3828,2.4232,2.5711,2.6835,2.7712,2.9295,3.0707,3.1876,3.1989,3.2591,3.337,3.3495,3.3809,3.4198,3.4324,3.4449,3.4562,3.4675,3.4726,3.4726,3.4726,3.4726,3.4726,3.4726,3.4726,3.4726,3.4726,3.455,3.4361,3.4361,3.4361,3.4361,3.4361,3.5831,3.7167,3.7538,3.9182,4.0546,4.0935,4.0397,3.9963,3.9963,3.9394,3.899,3.899,3.899,3.899,3.899,3.899,3.899,3.899,3.899,3.899,3.899,3.899,3.905,3.9185,3.9185,3.9185,3.9185,3.9185,3.8586,3.7419,3.8959,4.0193,4.1036,4.2598,4.3284,4.333,4.33,4.2423,4.0993,4.0816,4.0616,4.045,4.0261,4.0905,4.1878,4.1354,4.1594,4.2288,2.7013,2.64,2.5189,2.2581,2.2152,2.2175,2.2246,2.1676,2.1676,2.296,2.3135,2.3135,2.3135,2.3135,2.3652,2.4932,2.4951,2.4756,2.4443,2.4414,2.4512,2.4717,2.4531,2.4609,2.5039,2.4199,2.3857,2.4092,2.3857,2.375,2.375,2.375,2.3867,2.4092,2.4696,2.4736,2.4588,2.6963,2.8074,2.8485,3.0589,3.1994,3.3043,3.3307,3.3784,3.4299,3.4299,3.4474,3.4763,3.5027,3.5115,3.5165,3.5429,3.5504,3.5504,3.5504,3.5504,3.5504,3.5504,3.5504,3.5504,3.5504,3.5504,3.5366,3.4839,3.4726,3.4726,3.4726,3.6057,3.7392,3.7965,3.9382,4.0713,4.1293,4.1085,4.0876,4.0876,4.0307,4.0008,4.0322,3.9798,3.9424,3.9424,3.9424,3.9544,3.9858,3.9888,4.0023,4.0337,4.0053,3.9888,3.9888,3.9888,3.9888,3.9888,4.0202,4.0197,4.0008,4.01,4.086,4.2109,4.2483,4.2909,4.3246,4.2395,4.1733,4.1117,4.0729,4.0656,4.0876,4.0876,4.1474,4.2327,4.1983,4.2545,4.3715,2.5717,2.5342,2.4404,2.1915,2.2379,2.2753,2.1726,2.2298,2.2909,2.3164,2.3359,2.3437,2.3437,2.3525,2.4131,2.5478,2.5254,2.4961,2.4795,2.4766,2.4951,2.5381,2.5059,2.5205,2.5937,2.5234,2.4756,2.4531,2.4453,2.4414,2.4414,2.4414,2.4453,2.4531,2.5584,2.5635,2.5175,2.8361,2.9544,2.961,3.2215,3.3545,3.4085,3.455,3.4776,3.4864,3.4864,3.4926,3.5077,3.5529,3.568,3.578,3.6332,3.6508,3.6521,3.6621,3.6634,3.6634,3.6634,3.6634,3.6621,3.6521,3.6571,3.6383,3.5366,3.5077,3.5002,3.5002,3.6017,3.719,3.8198,3.9371,4.0538,4.1545,4.1624,4.1549,4.1549,4.098,4.0771,4.1309,4.0412,3.9753,3.9753,3.9753,3.9978,4.0531,4.0561,4.0801,4.1354,4.0861,4.0561,4.0561,4.0561,4.0561,4.0561,4.1115,4.1864,4.2792,4.1589,4.1892,4.3408,4.2686,4.2623,4.3098,4.1708,4.1233,4.1576,4.0842,4.095,4.1549,4.1549,4.2091,4.2816,4.2816,4.3594,4.4791,2.6178,2.5048,2.3905,2.2619,2.1342,2.0874,2.2209,2.2057,2.2245,2.3531,2.4258,2.4648,2.4648,2.5088,2.5283,2.5019,2.5381,2.581,2.625,2.6182,2.6309,2.6738,2.6689,2.6719,2.6836,2.6728,2.6113,2.498,2.46,2.4414,2.4414,2.4414,2.4619,2.498,2.5159,2.6017,2.7306,2.884,3.0329,3.1829,3.3192,3.4123,3.4613,3.47,3.5014,3.5429,3.5429,3.5742,3.6157,3.6219,3.6257,3.6345,3.6897,3.7073,3.7161,3.7651,3.7789,3.7789,3.7789,3.7789,3.7663,3.7199,3.7425,3.7613,3.6998,3.6483,3.6132,3.6132,3.7896,3.9477,3.965,4.1357,4.2808,4.2996,4.2596,4.2222,4.2222,4.1669,4.128,4.1369,4.122,4.1115,4.1115,4.1115,4.1145,4.125,4.125,4.128,4.1384,4.1294,4.125,4.125,4.125,4.125,4.125,4.1324,4.1864,4.2679,4.2509,4.2949,4.3971,4.3805,4.3416,4.2755,4.2543,4.2061,4.146,4.131,4.1639,4.2222,4.2222,4.3137,4.4463,4.4463,4.4273,4.4122,2.5542,2.5099,2.4265,2.2829,2.2544,2.2408,2.2288,2.2548,2.3104,2.3699,2.415,2.4531,2.4853,2.54,2.5635,2.5391,2.5879,2.6279,2.6455,2.6631,2.6816,2.7012,2.7012,2.7012,2.7012,2.7012,2.6728,2.6152,2.5732,2.5518,2.5508,2.5273,2.5391,2.5898,2.6547,2.7445,2.8538,3.0413,3.1937,3.3098,3.4346,3.5152,3.5642,3.5642,3.5793,3.5994,3.5994,3.6157,3.6408,3.6722,3.6822,3.6923,3.7475,3.7651,3.7688,3.7939,3.8002,3.8002,3.8002,3.8002,3.7952,3.7701,3.7826,3.7939,3.7701,3.745,3.7274,3.7274,3.8382,3.9582,4.0192,4.1397,4.2548,4.317,4.309,4.2895,4.2895,4.2342,4.1788,4.1429,4.1698,4.1788,4.1414,4.1384,4.1534,4.1893,4.1938,4.2087,4.2447,4.2132,4.1938,4.1938,4.1938,4.1938,4.1938,4.2864,4.3484,4.384,4.384,4.3912,4.4026,4.3494,4.3091,4.2695,4.2218,4.1942,4.1938,4.1938,4.2312,4.2895,4.2895,4.3374,4.4004,4.4586,4.4611,4.4526]},{"header":{"parameterUnit":"m.s-1","parameterCategory":1,"la1":30.6,"la2":28.766,"lo1":-90.7593,"lo2":-88.6598,"dy":0.0162,"dx":0.0183,"nx":116,"ny":114,"refTime":"2024-04-21T12:00:00:Z","depth":0,"parameterNumber":3,"parameterNumberName":"V-component_of_WINDS"},"data":[0.0,0.0,0.0,0.0,0.0,0.0,0.0,0.0,0.0,0.0,0.0,0.0,0.0,0.0,0.0,0.0,0.0,0.0,0.0,0.0,0.0,0.0,0.0,0.0,0.0,0.0,0.0,0.0,0.0,0.0,0.0,0.0,0.0,0.0,0.0,0.0,0.0,0.0,0.0,0.0,0.0,0.0,0.0,0.0,0.0,0.0,0.0,0.0,0.0,0.0,0.0,0.0,0.0,0.0,0.0,0.0,0.0,0.0,0.0,0.0,0.0,0.0,0.0,0.0,0.0,0.0,0.0,0.0,0.0,0.0,0.0,0.0,0.0,0.0,0.0,0.0,0.0,0.0,0.0,0.0,0.0,0.0,0.0,0.0,0.0,0.0,0.0,0.0,0.0,0.0,0.0,0.0,0.0,0.0,0.0,0.0,0.0,0.0,0.0,0.0,0.0,0.0,0.0,0.0,0.0,0.0,0.0,0.0,0.0,0.0,0.0,0.0,0.0,0.0,0.0,0.0,0.0,0.0,0.0,0.0,0.0,0.0,0.0,0.0,0.0,0.0,0.0,0.0,0.0,0.0,0.0,0.0,0.0,0.0,0.0,0.0,0.0,0.0,0.0,0.0,0.0,0.0,0.0,0.0,0.0,0.0,0.0,0.0,0.0,0.0,0.0,0.0,0.0,0.0,0.0,0.0,0.0,0.0,0.0,0.0,0.0,0.0,0.0,0.0,0.0,0.0,0.0,0.0,0.0,0.0,0.0,0.0,0.0,0.0,0.0,0.0,0.0,0.0,0.0,0.0,0.0,0.0,0.0,0.0,0.0,0.0,0.0,0.0,0.0,0.0,0.0,0.0,0.0,0.0,0.0,0.0,0.0,0.0,0.0,0.0,0.0,0.0,0.0,0.0,0.0,0.0,0.0,0.0,0.0,0.0,0.0,0.0,0.0,0.0,0.0,0.0,0.0,0.0,0.0,0.0,0.0,0.0,0.0,0.0,0.0,0.0,0.0,0.0,0.0,0.0,0.0,0.0,0.0,0.0,0.0,0.0,0.0,0.0,0.0,0.0,0.0,0.0,0.0,0.0,0.0,0.0,0.0,0.0,0.0,0.0,0.0,0.0,0.0,0.0,0.0,0.0,0.0,0.0,0.0,0.0,0.0,0.0,0.0,0.0,0.0,0.0,0.0,0.0,0.0,0.0,0.0,0.0,0.0,0.0,0.0,0.0,0.0,0.0,0.0,0.0,0.0,0.0,0.0,0.0,0.0,0.0,0.0,0.0,0.0,0.0,0.0,0.0,0.0,0.0,0.0,0.0,0.0,0.0,0.0,0.0,0.0,0.0,0.0,0.0,0.0,0.0,0.0,0.0,0.0,0.0,0.0,0.0,0.0,0.0,0.0,0.0,0.0,0.0,0.0,0.0,0.0,0.0,0.0,0.0,0.0,0.0,0.0,0.0,0.0,0.0,0.0,0.0,0.0,0.0,0.0,0.0,0.0,0.0,0.0,0.0,0.0,0.0,0.0,0.0,0.0,0.0,0.0,0.0,0.0,0.0,0.0,0.0,0.0,0.0,0.0,0.0,0.0,0.0,0.0,0.0,0.0,0.0,0.0,0.0,0.0,0.0,0.0,0.0,0.0,0.0,0.0,0.0,0.0,0.0,0.0,0.0,0.0,0.0,0.0,0.0,0.0,0.0,0.0,0.0,0.0,0.0,0.0,0.0,0.0,0.0,0.0,0.0,0.0,0.0,0.0,0.0,0.0,0.0,0.0,0.0,0.0,0.0,0.0,0.0,0.0,0.0,0.0,0.0,0.0,0.0,0.0,0.0,0.0,0.0,0.0,0.0,0.0,0.0,0.0,0.0,0.0,0.0,0.0,0.0,0.0,0.0,0.0,0.0,0.0,0.0,0.0,0.0,0.0,0.0,0.0,0.0,0.0,0.0,0.0,0.0,0.0,0.0,0.0,0.0,0.0,0.0,0.0,0.0,0.0,0.0,0.0,0.0,0.0,0.0,0.0,0.0,0.0,0.0,0.0,0.0,0.0,0.0,0.0,0.0,0.0,0.0,0.0,0.0,0.0,0.0,0.0,0.0,0.0,0.0,0.0,0.0,0.0,0.0,0.0,0.0,0.0,0.0,0.0,0.0,0.0,0.0,0.0,0.0,0.0,0.0,0.0,0.0,0.0,0.0,0.0,0.0,0.0,0.0,0.0,0.0,0.0,0.0,0.0,0.0,0.0,0.0,0.0,0.0,0.0,0.0,0.0,0.0,0.0,0.0,0.0,0.0,0.0,0.0,0.0,0.0,0.0,0.0,0.0,0.0,0.0,0.0,0.0,0.0,0.0,0.0,0.0,0.0,0.0,0.0,0.0,0.0,0.0,0.0,0.0,0.0,0.0,0.0,0.0,0.0,0.0,0.0,0.0,0.0,0.0,0.0,0.0,0.0,0.0,0.0,0.0,0.0,0.0,0.0,0.0,0.0,0.0,0.0,0.0,0.0,0.0,0.0,0.0,0.0,0.0,0.0,0.0,0.0,0.0,0.0,0.0,0.0,0.0,0.0,0.0,0.0,0.0,0.0,0.0,0.0,0.0,0.0,0.0,0.0,0.0,0.0,0.0,0.0,0.0,0.0,0.0,0.0,0.0,0.0,0.0,0.0,0.0,0.0,0.0,0.0,0.0,0.0,0.0,0.0,0.0,0.0,0.0,0.0,0.0,0.0,0.0,0.0,0.0,0.0,0.0,0.0,0.0,0.0,0.0,0.0,0.0,0.0,0.0,0.0,0.0,0.0,0.0,0.0,0.0,0.0,0.0,0.0,0.0,0.0,0.0,0.0,0.0,0.0,0.0,0.0,0.0,0.0,0.0,0.0,0.0,0.0,0.0,0.0,0.0,0.0,0.0,0.0,0.0,0.0,0.0,0.0,0.0,0.0,0.0,0.0,0.0,0.0,0.0,0.0,0.0,0.0,0.0,0.0,0.0,0.0,0.0,0.0,0.0,0.0,0.0,0.0,0.0,0.0,0.0,0.0,0.0,0.0,0.0,0.0,0.0,0.0,0.0,0.0,0.0,0.0,0.0,0.0,0.0,0.0,0.0,0.0,0.0,0.0,0.0,0.0,0.0,0.0,0.0,0.0,0.0,0.0,0.0,0.0,0.0,0.0,0.0,0.0,0.0,0.0,0.0,0.0,0.0,0.0,0.0,0.0,0.0,0.0,0.0,0.0,0.0,0.0,0.0,0.0,0.0,0.0,0.0,0.0,0.0,0.0,0.0,0.0,0.0,0.0,0.0,0.0,0.0,0.0,0.0,0.0,0.0,0.0,0.0,0.0,0.0,0.0,0.0,0.0,0.0,0.0,0.0,0.0,0.0,0.0,0.0,0.0,0.0,0.0,0.0,0.0,0.0,0.0,0.0,0.0,0.0,0.0,0.0,0.0,0.0,0.0,0.0,0.0,0.0,0.0,0.0,0.0,0.0,0.0,0.0,0.0,0.0,0.0,0.0,0.0,0.0,0.0,0.0,0.0,0.0,0.0,0.0,0.0,0.0,0.0,0.0,0.0,0.0,0.0,0.0,0.0,0.0,0.0,0.0,0.0,0.0,0.0,0.0,0.0,0.0,0.0,0.0,0.0,0.0,0.0,0.0,0.0,0.0,0.0,0.0,0.0,0.0,0.0,0.0,0.0,0.0,0.0,0.0,0.0,0.0,0.0,0.0,0.0,0.0,0.0,0.0,0.0,0.0,0.0,0.0,0.0,0.0,0.0,0.0,0.0,0.0,0.0,0.0,0.0,0.0,0.0,0.0,0.0,0.0,0.0,0.0,0.0,0.0,0.0,0.0,0.0,0.0,0.0,0.0,0.0,0.0,0.0,0.0,0.0,0.0,0.0,0.0,0.0,0.0,0.0,0.0,0.0,0.0,0.0,0.0,0.0,0.0,0.0,0.0,0.0,0.0,0.0,0.0,0.0,0.0,0.0,0.0,0.0,0.0,0.0,0.0,0.0,0.0,0.0,0.0,0.0,0.0,0.0,0.0,0.0,0.0,0.0,0.0,0.0,0.0,0.0,0.0,0.0,0.0,0.0,0.0,0.0,0.0,0.0,0.0,0.0,0.0,0.0,0.0,0.0,0.0,0.0,0.0,0.0,0.0,0.0,0.0,0.0,0.0,0.0,0.0,0.0,0.0,0.0,0.0,0.0,0.0,0.0,0.0,0.0,0.0,0.0,0.0,0.0,0.0,0.0,0.0,0.0,0.0,0.0,0.0,0.0,0.0,0.0,0.0,0.0,0.0,0.0,0.0,0.0,0.0,0.0,0.0,0.0,0.0,0.0,0.0,0.0,0.0,0.0,0.0,0.0,0.0,0.0,0.0,0.0,0.0,0.0,0.0,0.0,0.0,0.0,0.0,0.0,0.0,0.0,0.0,0.0,0.0,0.0,0.0,0.0,0.0,0.0,0.0,0.0,0.0,0.0,0.0,0.0,0.0,0.0,0.0,0.0,0.0,0.0,0.0,0.0,0.0,0.0,0.0,0.0,0.0,0.0,0.0,0.0,0.0,0.0,0.0,0.0,0.0,0.0,0.0,0.0,0.0,0.0,0.0,0.0,0.0,0.0,0.0,0.0,0.0,0.0,0.0,0.0,0.0,0.0,0.0,0.0,0.0,0.0,0.0,0.0,0.0,0.0,0.0,0.0,0.0,0.0,0.0,0.0,0.0,0.0,0.0,0.0,0.0,0.0,0.0,0.0,0.0,0.0,0.0,0.0,0.0,0.0,0.0,0.0,0.0,0.0,0.0,0.0,0.0,0.0,0.0,0.0,0.0,0.0,0.0,0.0,0.0,0.0,0.0,0.0,0.0,0.0,0.0,0.0,0.0,0.0,0.0,0.0,0.0,0.0,0.0,0.0,0.0,0.0,0.0,0.0,0.0,0.0,0.0,0.0,0.0,0.0,0.0,0.0,0.0,0.0,0.0,0.0,0.0,0.0,0.0,0.0,0.0,0.0,0.0,0.0,0.0,0.0,0.0,0.0,0.0,0.0,0.0,0.0,0.0,0.0,0.0,0.0,0.0,0.0,0.0,0.0,0.0,0.0,0.0,0.0,0.0,0.0,0.0,0.0,0.0,0.0,0.0,0.0,0.0,0.0,0.0,0.0,0.0,0.0,0.0,0.0,0.0,0.0,0.0,0.0,0.0,0.0,0.0,0.0,0.0,0.0,0.0,0.0,0.0,0.0,0.0,0.0,0.0,0.0,0.0,0.0,0.0,0.0,0.0,0.0,0.0,0.0,0.0,0.0,0.0,0.0,0.0,0.0,0.0,0.0,0.0,0.0,0.0,0.0,0.0,0.0,0.0,0.0,0.0,0.0,0.0,0.0,0.0,0.0,0.0,0.0,0.0,0.0,0.0,0.0,0.0,0.0,0.0,0.0,0.0,0.0,0.0,0.0,0.0,0.0,0.0,0.0,0.0,0.0,0.0,0.0,0.0,0.0,0.0,0.0,0.0,0.0,0.0,0.0,0.0,0.0,0.0,0.0,0.0,0.0,0.0,0.0,0.0,0.0,0.0,0.0,0.0,0.0,0.0,0.0,0.0,0.0,0.0,0.0,0.0,0.0,0.0,0.0,0.0,0.0,0.0,0.0,0.0,0.0,0.0,0.0,0.0,0.0,0.0,0.0,0.0,0.0,0.0,0.0,0.0,0.0,0.0,0.0,0.0,0.0,0.0,0.0,0.0,0.0,0.0,0.0,0.0,0.0,0.0,0.0,0.0,0.0,0.0,0.0,0.0,0.0,0.0,0.0,0.0,0.0,0.0,0.0,0.0,0.0,0.0,0.0,0.0,0.0,0.0,0.0,0.0,0.0,0.0,0.0,0.0,0.0,0.0,0.0,0.0,0.0,0.0,0.0,0.0,0.0,0.0,0.0,0.0,0.0,0.0,0.0,0.0,0.0,0.0,0.0,0.0,0.0,0.0,0.0,0.0,0.0,0.0,0.0,0.0,0.0,0.0,0.0,0.0,0.0,0.0,0.0,0.0,0.0,0.0,0.0,0.0,0.0,0.0,0.0,0.0,0.0,0.0,0.0,0.0,0.0,0.0,0.0,0.0,0.0,0.9336,0.0,0.0,0.0,0.0,0.0,0.0,0.0,0.0,0.0,0.0,0.0,0.0,0.0,0.0,0.0,0.0,0.0,0.0,0.0,0.0,0.0,0.0,0.0,0.0,0.665,0.7207,0.7852,0.8609,0.8985,0.8827,0.0,0.0,0.0,0.0,0.0,0.6394,0.6226,0.6501,0.7264,0.8408,1.0178,1.2523,1.386,1.4226,1.3782,0.0,0.0,0.0,0.0,0.0,0.0,0.0,0.0,0.0,0.0,0.0,0.0,0.0,0.0,0.0,0.0,0.0,0.0,0.0,0.0,0.0,0.0,0.0,0.0,0.0,0.0,0.0,0.0,0.0,0.0,0.0,0.0,0.0,0.0,0.0,0.0,0.0,0.0,0.0,0.0,0.0,0.0,0.0,0.0,0.0,0.0,0.0,0.0,0.0,0.0,0.0,0.0,0.0,0.0,0.0,0.0,0.0,0.0,0.0,0.0,0.0,0.0,0.0,0.0,0.0,0.0,0.0,0.0,0.0,0.0,0.0,0.8857,0.0,0.0,0.0,0.0,0.0,0.0,0.0,0.0,0.0,0.0,0.0,0.0,0.0,0.0,0.0,0.0,0.0,0.0,0.0,0.0,0.0,0.577,0.6089,0.6626,0.7301,0.8127,0.8639,0.879,0.8563,0.8009,0.7443,0.6833,0.6337,0.6213,0.6458,0.6458,0.7105,0.8455,0.9973,1.2506,1.5969,1.6508,1.5825,1.4088,1.3976,0.0,0.0,0.0,0.0,0.0,0.0,0.0,0.0,0.0,0.0,0.0,0.0,0.0,0.0,0.0,0.0,0.0,0.0,0.0,0.0,0.0,0.0,0.0,0.0,0.0,0.0,0.0,0.0,0.0,0.0,0.0,0.0,0.0,0.0,0.0,0.0,0.0,0.0,0.0,0.0,0.0,0.0,0.0,0.0,0.0,0.0,0.0,0.0,0.0,0.0,0.0,0.0,0.0,0.0,0.0,0.0,0.0,0.0,0.0,0.0,0.0,0.0,0.0,1.5547,1.5669,1.5372,1.4253,1.3768,1.3605,1.1466,1.0132,0.9512,0.0,0.0,0.0,0.0,0.0,0.0,0.0,0.0,0.0,0.0,0.0,0.0,0.0,0.0,0.0,0.0,0.0,0.0,0.0,0.0,0.707,0.7329,0.8042,0.8637,0.8932,0.9195,0.9127,0.8701,0.8068,0.7452,0.6915,0.6582,0.6372,0.6248,0.7082,0.7864,0.8573,1.1968,1.4896,1.734,1.7424,1.7576,1.7668,1.629,0.0,0.0,0.0,0.0,0.0,0.0,0.0,0.0,0.0,0.0,0.0,0.0,0.0,0.0,0.0,0.0,0.0,0.0,0.0,0.0,0.0,0.0,0.0,0.0,0.0,0.0,0.0,0.0,0.0,0.0,0.0,0.0,0.0,0.0,0.0,0.0,0.0,0.0,0.0,0.0,0.0,0.0,0.0,0.8131,0.8731,0.0,0.0,0.0,0.0,0.0,0.0,0.0,0.0,0.0,0.0,0.0,0.0,0.0,0.0,1.5785,1.7078,1.8226,1.9131,1.9,1.867,1.8247,1.7246,1.6598,1.6239,1.5081,0.0,1.1592,1.1507,0.0,0.0,0.0,0.0,0.0,0.0,0.0,0.0,0.0,0.0,0.0,0.0,0.0,0.0,0.0,0.0,0.0,0.0,0.0,0.0,0.0,0.8428,0.8839,0.919,0.9616,0.9488,0.859,0.8303,0.7765,0.6881,0.6368,0.6426,0.7081,0.7356,0.8882,1.1789,1.5138,1.8014,2.0436,2.0813,2.1287,2.1764,2.0322,1.8529,1.656,1.6492,0.0,0.0,0.0,0.0,0.0,0.0,0.0,0.0,0.0,0.0,0.0,0.0,0.0,0.0,0.0,0.0,0.0,0.0,0.0,0.0,0.0,0.0,0.0,0.0,0.0,0.0,0.0,0.0,0.0,0.0,0.0,0.0,0.0,0.0,0.0,0.0,0.0,0.0,0.0,0.8325,0.8173,0.8206,0.8063,0.7714,0.0,0.0,0.0,0.0,0.0,0.0,0.0,0.0,0.0,1.1824,1.3248,1.5157,1.7649,1.9563,2.091,2.1771,2.2012,2.1761,2.1047,1.9765,1.9122,1.8924,1.7988,1.6869,1.5489,1.2924,1.1654,1.1112,0.0,0.0,0.0,0.0,1.0734,1.1451,0.0,0.0,0.0,0.0,0.0,0.0,0.0,0.0,0.0,0.0,0.0,0.0,0.83,0.8608,0.8945,0.9427,0.9824,0.9619,0.8626,0.8342,0.7848,0.6944,0.6379,0.6583,0.7694,0.8252,1.0717,1.5212,1.7977,2.0733,2.3373,2.4021,2.4574,2.4968,2.4037,2.1438,1.7754,1.7734,1.7109,0.0,0.0,0.0,0.0,0.0,0.0,0.0,0.0,0.0,0.0,0.0,0.0,0.0,0.0,0.0,0.0,0.0,0.0,0.0,0.0,0.0,0.0,0.0,0.0,0.0,0.0,0.0,0.0,0.0,0.0,0.0,0.0,0.0,0.0,0.0,0.0,0.0,0.0,0.8366,0.8063,0.7849,0.7867,0.7697,0.0,0.0,0.0,0.0,0.0,0.0,0.9969,1.0593,1.1938,1.4091,1.6021,1.7945,1.9964,2.2207,2.3699,2.4436,2.4682,2.4292,2.3367,2.1951,2.1134,2.0703,2.0068,1.9473,1.8618,1.4774,1.2988,1.2555,1.132,1.0878,1.1056,1.1944,1.2733,1.3433,0.0,0.0,0.0,0.0,0.0,0.0,0.0,0.0,0.0,0.0,0.0,0.712,0.8203,0.8805,0.9363,0.982,0.9722,0.9429,0.9008,0.8067,0.7433,0.7197,0.6967,0.7063,0.7498,1.0301,1.3726,1.7725,1.9796,2.2378,2.5373,2.6057,2.6383,2.6414,2.6352,2.4168,2.0512,1.9181,1.7942,1.6834,0.0,0.0,0.0,0.0,0.0,0.0,0.0,0.0,0.0,0.0,0.0,0.0,0.0,0.0,0.0,0.0,0.0,0.0,0.0,0.0,0.0,0.0,0.0,0.0,0.0,0.0,0.0,0.0,0.0,0.0,0.0,0.0,0.0,0.0,0.0,0.0,0.0,0.0,0.0,0.8026,0.8689,0.0,0.0,0.0,0.0,0.905,0.9554,1.0501,1.2003,1.326,1.5045,1.7324,1.995,2.2185,2.3985,2.5604,2.6856,2.7826,2.6928,2.5949,2.4882,2.3827,2.2582,2.1201,2.1152,2.0644,1.9662,1.7591,1.645,1.5973,1.514,1.4821,1.4823,1.4801,1.5547,1.6451,0.0,0.0,0.0,0.0,0.0,0.6268,0.6617,0.6755,0.7166,0.8086,0.7909,0.8294,0.9798,0.9801,1.01,1.0981,1.0803,1.04,0.9883,0.8986,0.8138,0.7439,0.6787,0.6836,0.7668,1.1236,1.4217,1.6559,2.0267,2.326,2.5605,2.667,2.7379,2.7752,2.7348,2.5922,2.3773,2.2034,2.0079,1.8109,1.7257,1.638,0.0,0.0,0.0,0.0,0.0,0.0,0.0,0.0,0.0,0.0,0.0,0.0,0.0,0.0,0.0,0.0,0.0,0.0,0.0,0.0,0.0,0.0,0.0,0.0,0.0,0.0,0.0,0.0,0.0,0.0,0.0,0.0,0.0,0.0,0.0,0.0,0.0,1.0289,1.0872,0.0,0.0,1.0242,1.0397,1.0361,1.1048,1.2495,1.4749,1.5796,1.7397,1.9802,2.2121,2.3921,2.5273,2.6796,2.8106,2.9189,2.8106,2.6974,2.5945,2.4573,2.3227,2.2041,2.1768,2.1475,2.1123,2.0149,1.8646,1.6903,1.5813,1.5399,1.556,1.6622,1.7276,1.7755,0.0,0.0,0.0,0.0,0.0,0.6513,0.7008,0.7178,0.7627,0.8696,0.8626,0.9108,1.0706,1.0569,1.0759,1.1854,1.1425,1.1031,1.0933,0.9693,0.8793,0.8379,0.7257,0.7101,0.8016,1.1201,1.4172,1.6705,2.0292,2.3483,2.6234,2.7067,2.7842,2.8496,2.8015,2.7255,2.6183,2.4642,2.2256,1.9425,1.8389,1.7434,1.6487,0.0,0.0,0.0,0.0,0.0,0.0,0.0,0.0,0.0,0.0,0.0,0.0,0.0,0.0,0.0,0.0,0.0,0.0,0.0,0.0,0.0,0.0,0.0,0.0,0.0,0.0,0.0,0.0,0.0,0.0,0.0,0.0,0.0,0.0,0.0,1.1939,1.2321,1.3157,1.3134,1.1808,1.2151,1.2221,1.187,1.2969,1.4591,1.6834,1.8053,1.9587,2.1568,2.3794,2.5338,2.6071,2.777,2.9028,2.9792,2.9028,2.8108,2.7023,2.5645,2.4187,2.2879,2.233,2.1928,2.1678,2.1526,2.0447,1.8845,1.7888,1.7503,1.7658,1.8889,1.938,1.9571,0.0,0.0,0.0,0.0,0.0,0.657,0.715,0.7453,0.7949,0.8816,0.8955,0.9435,1.0687,1.0971,1.1445,1.2441,1.1533,1.1267,1.2099,1.0159,0.9278,0.9864,0.8395,0.7843,0.8468,1.0312,1.361,1.8383,1.9944,2.2972,2.7265,2.7345,2.7754,2.8463,2.8463,2.8155,2.761,2.6916,2.4442,2.0825,2.0151,1.9412,1.8565,0.0,0.0,0.0,0.0,0.0,0.0,0.0,0.0,0.0,0.0,0.0,0.0,0.0,0.0,0.0,0.0,0.0,0.0,0.0,0.0,0.0,0.0,0.0,0.0,0.0,0.0,0.0,0.0,0.0,0.0,0.0,0.0,0.0,1.1005,1.2586,1.3787,1.3926,1.5335,1.5698,1.4221,1.4926,1.5028,1.3776,1.5365,1.6807,1.802,1.9856,2.1388,2.2471,2.5099,2.6487,2.6416,2.8688,2.9792,2.9792,2.9792,2.9197,2.8084,2.6964,2.5469,2.3721,2.2887,2.2135,2.148,2.1797,2.1914,2.1875,2.1426,2.125,2.1289,2.1738,2.1914,2.1924,0.0,0.0,0.0,0.6937,0.6466,0.649,0.7788,0.8299,0.8794,0.9465,0.9982,1.05,1.1035,1.182,1.2626,1.3397,1.2323,1.194,1.2705,1.027,0.8446,0.7648,0.7061,0.7014,0.7703,0.997,1.2571,1.5439,1.9344,2.2333,2.4448,2.6021,2.7159,2.786,2.786,2.8047,2.8308,2.8128,2.6805,2.4651,2.2244,2.0161,1.8296,0.0,0.0,0.0,0.0,0.0,0.0,0.0,0.0,0.0,0.0,0.0,0.0,0.0,0.0,0.0,0.0,0.0,0.0,0.0,0.0,0.0,0.0,0.0,0.0,0.0,0.0,0.0,0.0,0.0,0.0,0.0,0.0,1.2387,1.2473,1.4258,1.5794,1.6537,1.7814,1.8301,1.7417,1.6783,1.6369,1.6265,1.6699,1.7613,1.9034,1.992,2.0841,2.1735,2.4326,2.5562,2.5267,2.8297,2.9792,2.9792,2.9792,2.9197,2.8084,2.6964,2.5755,2.4407,2.3348,2.285,2.2591,2.2448,2.231,2.2274,2.188,2.1514,2.1318,2.207,2.2539,2.2666,0.0,0.0,0.0,0.6876,0.66,0.6839,0.854,0.9143,0.9691,1.0486,1.1038,1.1491,1.1943,1.2139,1.2558,1.335,1.2399,1.2039,1.2698,1.0561,0.8469,0.672,0.6343,0.653,0.7421,0.9783,1.2244,1.4845,1.884,2.1773,2.3662,2.5286,2.6602,2.7625,2.7625,2.785,2.8173,2.7846,2.7201,2.6144,2.4055,2.2219,2.0528,1.8935,1.8162,1.7726,1.6231,1.5405,1.4887,1.391,0.0,0.0,0.0,0.0,0.0,0.0,0.0,0.0,0.0,0.0,0.0,0.0,0.0,0.0,0.0,0.0,0.0,0.0,0.0,0.0,0.0,0.0,0.0,0.0,1.2949,1.4044,1.4396,1.6052,1.761,1.877,1.9912,2.0292,1.9557,1.8506,1.7792,1.7454,1.791,1.8541,1.948,2.0721,2.1554,2.1859,2.447,2.5662,2.5101,2.8231,2.9792,2.9792,2.9792,2.9443,2.8767,2.7209,2.6073,0.0,2.3725,2.3026,2.2958,2.281,2.2611,0.0,0.0,0.0,0.0,0.0,2.293,2.3008,0.0,0.0,0.6287,0.669,0.6739,0.7309,0.9065,0.9719,1.0352,1.1318,1.1799,1.2266,1.2758,1.2146,1.2055,1.2884,1.2088,1.1653,1.1868,1.0642,0.8901,0.6619,0.622,0.6506,0.7545,0.9826,1.2453,1.5487,1.8448,2.1308,2.3966,2.4939,2.6215,2.7625,2.7509,2.7599,2.7799,2.7045,2.6608,2.6483,2.5788,2.4945,2.3832,2.1693,2.1199,2.1316,1.8808,1.7316,1.6361,1.4846,0.0,0.0,0.0,0.0,0.0,0.0,0.0,0.0,0.0,0.0,0.0,0.0,0.0,0.0,0.0,0.0,0.0,0.0,0.0,0.0,0.0,0.0,0.0,0.0,1.4105,1.584,1.6551,1.7827,1.9238,2.0488,2.1377,2.1633,2.1012,2.0197,1.9222,1.8234,1.9131,1.967,1.967,0.0,0.0,0.0,0.0,2.6153,2.5704,2.8383,2.9792,2.9792,2.9792,2.9792,2.9702,2.7476,2.6324,2.5919,2.3957,2.2972,2.2734,2.3004,2.292,2.2578,2.248,2.2471,2.2549,2.2822,2.3018,2.3076,0.0,0.5815,0.5514,0.6343,0.6265,0.6599,0.8134,0.8934,0.9531,0.9957,1.1048,1.1616,1.1199,1.2226,1.3041,1.3223,1.2083,1.0611,0.8816,0.8993,0.8286,0.6261,0.7104,0.7757,0.8069,1.0672,1.292,1.4892,1.8226,2.0993,2.3073,2.4673,2.6215,2.7575,2.6982,2.7636,2.919,2.8341,2.8179,2.8478,2.8291,2.6574,2.39,2.2942,2.1881,2.0648,1.8978,1.7879,1.6935,1.5143,1.4533,1.4296,1.327,0.0,0.0,0.0,0.0,0.0,0.0,0.0,0.0,0.0,0.0,0.0,0.0,0.0,0.0,0.0,0.0,0.0,0.0,0.0,0.0,1.3523,1.5124,1.6731,1.8498,1.9273,2.0019,2.0986,2.1572,2.2094,2.2582,2.1621,2.0845,2.0666,2.0845,2.0935,2.0935,2.1765,0.0,2.2917,2.4686,2.584,2.6203,2.8623,2.9792,2.9792,0.0,0.0,2.9702,2.7476,2.6453,2.6285,2.4063,2.3047,2.2987,2.3076,2.3096,2.2949,2.2275,2.2217,2.2432,2.1826,2.2256,2.3027,0.0,0.5603,0.5279,0.6029,0.6056,0.6582,0.8326,0.8878,0.9537,1.0781,1.1453,1.2052,1.2677,1.2381,1.2595,1.3656,1.1858,1.0109,0.8898,0.8076,0.7096,0.5914,0.6725,0.7649,0.8687,1.1316,1.3688,1.576,1.8786,2.1152,2.2971,2.4644,2.6,2.7049,2.7401,2.8127,2.9047,2.863,2.842,2.8484,2.8107,2.6893,2.5172,2.4594,2.3667,2.2482,2.0806,1.9654,1.8552,1.63,1.5429,1.5038,1.359,1.2559,1.1669,0.0,0.0,0.0,0.0,0.0,0.0,0.0,0.0,0.0,0.0,0.0,0.0,0.0,0.0,0.7262,0.892,0.0,1.346,1.5714,1.7004,1.8211,1.9453,1.9971,2.0566,2.1455,2.1562,2.1973,2.3037,2.1845,2.1085,2.1275,2.1293,2.1293,2.1293,2.2149,2.292,2.3525,2.5126,2.6247,2.6828,2.8787,2.9792,2.9792,2.9792,2.9792,2.9702,2.7476,2.6483,2.64,2.4059,2.3135,2.3125,2.291,2.2822,2.2783,2.2363,2.2461,2.2773,2.2344,2.2588,2.3047,0.0,0.5492,0.5303,0.5804,0.6085,0.6833,0.8564,0.8911,0.9644,1.1548,1.1663,1.2102,1.3557,1.192,1.1358,1.3015,1.0991,0.9547,0.9412,0.7349,0.5937,0.5521,0.6271,0.7477,0.9244,1.2072,1.4586,1.6888,1.9541,2.1616,2.321,2.4667,2.5853,2.6697,2.7718,2.8442,2.8764,2.8487,2.8423,2.8393,2.7597,2.7,2.6498,2.5728,2.5121,2.4379,2.2428,2.0986,1.9686,1.7197,1.598,1.5279,1.3561,1.2757,1.2129,1.0443,0.9922,0.0,0.0,0.0,0.0,0.0,0.0,0.0,0.0,0.0,0.5636,0.601,0.7002,0.8558,1.0975,1.313,1.5223,1.7463,1.8666,1.9501,1.9814,2.0283,2.083,2.1543,2.1396,2.1699,2.29,2.1804,2.1236,2.163,2.1658,2.1658,2.1658,2.258,2.3561,2.4481,2.5764,2.6951,2.7783,2.9114,2.9792,2.9792,2.9792,2.9792,2.9714,2.7706,2.6719,2.64,2.4059,2.3135,2.3105,2.2773,2.2637,2.2637,2.2637,2.2842,2.3135,2.3135,2.3135,2.3096,0.0,0.5407,0.5468,0.5746,0.6378,0.7053,0.7753,0.8411,0.9111,0.9893,1.0178,1.0181,0.9874,0.9738,0.9625,0.9499,0.8715,0.8172,0.8024,0.6482,0.5458,0.5182,0.6709,0.8175,0.9503,1.334,1.5909,1.7139,2.0266,2.2454,2.3715,2.4869,2.6063,2.7219,2.6881,2.7744,2.9421,2.8732,2.9045,2.9972,2.9094,2.7998,2.6725,2.5421,2.4569,2.3817,2.1801,2.0132,1.8487,1.6482,1.5142,1.4306,1.3629,1.29,1.2097,1.1475,1.079,0.9889,0.8213,0.6476,0.5423,0.6566,0.6894,0.7058,0.0,0.0,0.8776,0.8174,0.9319,1.0886,1.2381,1.4308,1.6122,1.7642,1.901,1.9805,1.9902,2.0283,2.0605,2.0703,2.1025,2.1592,2.249,2.2359,2.2504,2.2833,2.2862,2.2862,2.2862,2.3047,2.4074,2.6155,2.6393,2.7463,2.9515,2.9704,2.9792,2.9792,2.9792,2.9792,2.9792,2.8518,2.736,2.64,2.4059,2.3135,2.3135,2.3086,2.3066,2.3066,2.3066,2.3096,2.3135,2.3135,2.3135,2.3135,0.0,0.5585,0.5452,0.5597,0.5712,0.6243,0.7564,0.772,0.8312,0.9998,1.0358,1.0546,1.0804,1.0557,0.9912,0.8768,0.7826,0.7472,0.7885,0.5988,0.4804,0.4769,0.6406,0.8167,0.9899,1.3331,1.6201,1.8443,2.0389,2.2092,2.3414,2.4313,2.503,2.5588,2.6605,2.7578,2.8418,2.9248,2.9637,2.9662,2.9348,2.8057,2.6232,2.4619,2.2994,2.1455,2.0466,1.9191,0.0,0.0,1.4901,1.4249,1.3474,1.2772,1.208,1.131,1.0622,0.9763,0.8359,0.7803,0.7693,0.0,0.8645,0.922,0.9792,1.006,1.0047,0.9833,1.1138,1.2797,1.4088,1.6111,1.7974,0.0,1.9885,2.0236,2.033,2.0234,2.0098,1.9853,1.9111,1.9068,2.0265,2.1004,2.1374,2.1395,2.2269,2.2881,2.3125,2.3135,2.38,2.5462,2.6141,2.6976,2.7879,2.9131,2.9456,2.8846,2.9456,2.9792,2.9804,2.8923,2.7624,2.5861,2.3921,2.3135,2.3135,2.3135,2.3135,2.3135,2.3135,2.3135,2.3135,2.3135,2.3135,2.3135,0.0,0.5763,0.5516,0.5572,0.5329,0.5718,0.7454,0.7465,0.8047,1.0152,1.0241,1.0235,1.0625,0.9784,0.8821,0.7923,0.6985,0.6569,0.683,0.5544,0.4654,0.4307,0.6136,0.8125,1.0265,1.3536,1.6426,1.8894,2.0417,2.1748,2.2899,2.354,2.3883,2.4112,2.592,2.6909,2.7339,2.8818,2.9296,2.9071,2.8425,2.72,2.5405,2.3191,2.1015,1.9075,1.887,1.783,0.0,0.0,1.4358,1.3948,1.2839,1.2446,1.2192,1.0931,0.9914,0.9135,0.8711,0.0,0.0,0.95,1.0087,1.0775,1.1597,1.1512,1.1323,1.1432,1.2678,1.4087,1.5234,1.6988,1.8694,2.0061,2.0276,2.0341,2.0419,2.001,1.9365,1.834,1.7021,1.6334,1.6722,1.865,2.009,2.0661,2.1841,2.2695,2.3115,2.3135,2.38,2.521,2.6058,2.6812,2.7383,2.8961,2.9365,2.8597,2.9378,2.988,2.9952,2.9032,2.7736,2.598,2.4122,2.3252,2.3135,2.3135,2.3135,2.3135,2.3135,2.3135,2.3135,2.3135,2.3135,2.3135,0.0,0.0,0.5796,0.5785,0.5631,0.5944,0.7294,0.7929,0.8685,0.9865,0.9177,0.8265,0.7434,0.57,0.5022,0.6076,0.5773,0.5087,0.3992,0.5068,0.5169,0.388,0.6053,0.8329,1.0541,1.4505,1.697,1.7854,2.028,2.1794,2.2322,2.2525,2.2921,2.3493,2.4357,2.5459,2.6611,2.6683,2.7455,2.8427,2.6307,2.504,2.4162,2.0868,1.8679,1.7334,1.7154,0.0,0.0,1.3281,1.3071,1.2995,1.1621,1.1882,0.0,1.0481,0.8803,0.7878,0.0,0.0,0.7895,0.9999,1.0604,1.1001,1.2452,1.2946,1.3094,1.3101,1.3796,1.4627,1.542,1.6401,1.7569,1.9102,1.9658,1.9922,1.9932,1.957,1.8369,1.583,1.5127,1.392,0.0,1.5419,1.9131,2.166,2.2256,2.2695,2.3115,2.3135,2.4145,2.6389,2.6472,2.7557,2.9702,2.9792,2.9792,2.9792,2.9792,3.0068,3.0528,2.8719,2.7648,2.7126,2.4808,2.3525,2.3135,2.3135,2.3135,2.3135,2.3135,2.3135,2.3135,2.3135,2.3135,2.3135,0.0,0.0,0.0,0.0,0.0,0.6151,0.7087,0.7009,0.7308,0.8641,0.9136,0.0,0.0,0.0,0.0,0.0,0.5046,0.4733,0.4483,0.2731,0.2253,0.347,0.5465,0.748,0.9559,1.3208,1.5782,1.7269,1.9016,2.0125,2.0639,2.0703,2.0861,2.108,2.2218,2.2943,2.3434,2.4732,2.5809,2.6449,2.4843,2.3841,2.2904,1.9225,1.6808,1.5129,0.0,0.0,1.2469,1.2058,1.1596,1.1149,1.0878,1.0618,1.0138,0.8571,0.9052,0.9857,0.0,0.0,1.0709,1.1341,1.1877,1.2552,1.3434,1.3567,1.344,1.3253,1.3859,1.4296,1.404,1.4575,1.5588,1.7236,1.6567,1.6729,1.9164,1.7536,1.6336,1.7066,1.515,0.0,0.0,0.0,0.0,1.7939,2.0283,2.1973,2.2685,2.3639,2.4542,2.5378,2.6789,2.7197,2.6449,2.7936,2.7936,2.6532,2.8371,2.9682,3.0447,2.87,2.758,2.6922,2.4736,2.376,2.3691,2.3301,2.3135,2.3135,2.3135,2.3135,2.3135,2.3135,2.3135,2.3135,0.0,0.0,0.0,0.0,0.0,0.0,0.0,0.0,0.0,0.0,0.0,0.0,0.0,0.0,0.0,0.0,0.0,0.4519,0.3978,0.2198,0.1816,0.3278,0.5252,0.7045,0.8588,1.1796,1.4013,1.5173,1.6858,1.7898,1.8228,1.8308,1.849,1.8776,1.9843,2.0452,2.075,2.1982,2.2757,2.3011,2.1386,2.0474,1.9778,1.639,1.4345,0.0,0.0,0.0,1.0865,1.0751,1.0599,1.0375,1.0034,0.9384,0.8757,0.8692,0.9662,1.0667,0.0,1.1534,1.3187,1.3569,1.3916,1.4142,1.4427,1.3933,1.3286,1.3119,1.35,1.358,1.2866,1.324,1.4097,1.5467,1.4705,1.5117,1.838,1.6725,1.5763,1.7164,1.5249,1.4457,0.0,0.0,0.0,1.6827,1.9423,2.1436,2.2471,2.371,2.4822,2.592,2.7023,2.7023,2.6025,2.7023,2.7115,2.6289,2.8302,2.9618,3.0351,2.9053,2.781,2.6621,2.4796,2.3898,2.3713,2.332,2.3135,2.3135,2.3135,2.3135,2.3135,2.3135,2.3135,2.3135,0.0,0.0,0.0,0.0,0.0,0.0,0.0,0.0,0.0,0.0,0.0,0.0,0.0,0.0,0.0,0.0,0.0,0.0,0.2566,0.3344,0.0,0.319,0.539,0.6929,0.7557,1.0293,1.1759,1.1793,1.4088,1.5205,1.5242,1.5561,1.6026,1.6715,1.7402,1.8063,1.8616,1.8534,1.8523,1.8339,1.6247,1.5418,1.5096,1.2532,0.0,0.0,0.0,0.0,0.9242,0.9427,1.0047,1.0568,0.9229,0.8453,0.845,1.0636,1.0656,1.0579,1.3331,1.4479,1.518,1.6598,1.6332,1.5584,1.532,1.3952,1.2798,1.2791,1.2747,1.2505,0.0,0.0,1.2902,1.3799,1.3931,1.4821,1.7471,1.7109,1.6445,0.0,0.0,0.0,0.0,0.0,0.0,1.8415,0.0,2.1243,2.259,2.3358,2.5096,2.8024,2.7128,2.7046,2.8016,2.6883,2.7144,2.874,2.9404,2.9853,3.0237,2.9613,2.8332,2.6347,2.4947,2.4068,2.3436,2.3152,2.3135,2.3135,2.3135,2.3135,2.3135,2.3135,2.3135,2.3135,0.0,0.0,0.0,0.0,0.0,0.0,0.0,0.0,0.0,0.0,0.0,0.0,0.0,0.0,0.0,0.0,0.0,0.0,0.3127,0.258,0.0,0.0,0.0,0.0,0.0,0.0,0.0,1.0209,1.1733,1.266,1.2956,1.3823,1.4396,1.475,1.5875,1.6367,1.6318,1.5994,1.5951,1.5928,0.0,1.3373,1.3494,0.0,0.0,0.0,0.0,0.0,0.0,0.0,0.0,0.0,0.0,1.0715,1.0921,1.0953,1.2466,1.4063,1.3667,1.5463,1.7345,1.725,1.6259,1.5268,1.4766,1.3419,1.2241,1.1851,1.1311,1.0897,0.0,0.0,0.0,1.2652,1.148,0.0,1.5385,1.5356,0.0,1.6267,0.0,1.7367,1.8311,1.935,0.0,0.0,2.1643,2.2717,2.3748,2.5813,2.729,2.8072,2.7844,2.7452,2.6883,2.4978,2.4947,2.6944,2.7588,2.804,2.831,2.8608,2.7575,2.544,2.4687,2.4202,2.3772,2.3271,2.3135,2.3135,2.3135,2.3135,2.3135,2.3135,2.3135,2.3135,0.0,0.0,0.0,0.0,0.0,0.0,0.0,0.0,0.0,0.0,0.0,0.0,0.0,0.0,0.0,0.0,0.0,0.0,0.0,0.2527,0.2003,0.0,0.0,0.0,0.0,0.0,0.0,0.0,0.0,0.0,1.0671,1.1881,1.2629,1.3046,1.4108,1.4171,1.347,1.3107,0.0,0.0,0.0,0.0,0.0,0.0,0.0,0.0,0.0,0.0,0.0,0.0,0.0,1.0459,1.1634,1.2433,1.2936,1.3271,0.0,1.6253,1.6262,1.7602,1.897,1.8994,1.7499,1.5813,1.4973,1.3172,1.1537,1.0929,1.0279,0.0,0.0,0.0,0.0,0.0,0.0,0.0,1.4206,1.4409,1.4963,0.0,1.7329,0.0,1.999,2.1013,2.1727,0.0,2.2603,2.3466,2.4853,2.6581,2.7934,2.8821,2.7936,2.6625,2.5062,2.3724,2.4165,2.6262,2.6487,2.6821,2.7264,2.7511,2.6531,2.4665,0.0,2.4018,2.3682,2.3281,2.3135,2.3135,2.3135,2.3135,2.3135,2.3135,2.3135,2.3135,0.0,0.0,0.0,0.0,0.0,0.0,0.0,0.0,0.0,0.0,0.0267,0.0,0.0,0.0,0.0,0.0,0.0,0.0,0.0,0.0,0.0,0.0,0.0,0.0,0.0,0.0,0.0,0.0,0.0,0.0,0.0,0.0,0.0,0.0,0.0,0.0,0.0,0.0,0.0,0.0,0.0,0.0,0.0,0.0,0.0,0.0,0.0,0.0,0.0,0.0,1.0071,1.0526,1.2771,1.3931,1.4764,1.6331,1.7027,1.7642,1.9268,1.9912,2.0244,2.0898,1.8948,1.6623,1.5431,1.2949,1.0714,1.0147,0.0,0.8901,0.8947,0.7946,0.7744,0.9764,0.0,1.0244,1.3011,1.3909,1.5067,1.738,1.7549,1.8422,2.0861,2.1597,2.2431,2.3816,2.3605,2.4237,2.607,2.6822,2.7843,2.9316,2.7464,2.54,2.3135,2.3135,2.4047,2.5999,2.5781,2.6055,2.6597,2.6478,2.5581,2.4028,0.0,0.0,2.3362,2.3152,2.3135,2.3135,2.3135,2.3135,2.3135,2.3135,2.3135,2.3135,0.0,0.0,0.0,0.0,0.0,0.0,0.0,0.0,0.0,0.0,0.1677,-0.1049,0.0,0.0,0.0,0.0,0.0,0.0,0.0,0.0,0.0,0.0,0.0,0.0,0.0,0.0,0.0,0.0,0.0,0.0,0.0,0.0,0.0,0.0,0.0,0.0,0.0,0.0,0.0,0.0,0.0,0.0,0.0,0.0,0.0,0.0,0.0,0.0,0.0,0.0,0.9907,1.1811,1.4694,1.6125,1.685,1.7158,1.8262,1.9287,1.8945,1.9912,2.0869,2.0283,1.8375,1.6369,1.534,1.2532,0.0,0.0,0.8592,0.8127,0.9527,0.8584,0.8262,1.0344,0.0,0.0,0.0,0.0,1.5656,0.0,0.0,0.0,0.0,0.0,0.0,0.0,0.0,2.6878,2.7705,2.8733,2.857,2.7128,2.673,2.54,2.3135,2.3135,2.3477,2.4237,2.5658,2.584,2.4871,2.6333,2.5783,2.386,2.3849,0.0,2.3114,2.3105,2.3135,2.3135,2.3135,2.3135,2.3135,2.3135,2.3135,2.3135,0.0,0.0,0.0,0.0,0.0,0.0,0.0,0.6048,0.4316,0.4506,0.3436,0.1678,-0.0919,0.0955,0.3058,0.0,0.0,0.0,0.0,0.0,0.0,0.0,0.0,0.0,0.0,0.0,0.0,0.0,0.0,0.0,0.0,0.0,0.0,0.0,0.0,0.0,0.0,0.0,0.0,0.0,0.0,0.0,0.0,0.0,0.0,0.0,0.0,0.0,0.0,0.0,0.8495,0.9884,1.4107,1.6162,1.7041,1.7224,1.838,1.9629,1.9829,2.0757,2.1598,2.1668,1.9761,1.741,1.5511,0.0,0.0,0.0,0.8059,0.7571,0.8659,0.0,0.0,0.0,0.0,0.0,0.0,0.0,0.0,0.0,0.0,0.0,0.0,0.0,0.0,0.0,0.0,2.6894,2.8423,2.9372,2.8803,2.6565,2.6483,2.54,2.3135,2.3135,2.3614,2.4642,2.5274,2.5326,2.4936,2.5592,2.4961,2.3457,2.3457,0.0,2.233,2.2862,2.2785,2.2349,2.2872,2.3135,2.3135,2.3135,2.3135,2.3135,0.0,0.0,0.0,0.0,0.0,0.0,0.0,0.6692,0.5312,0.4408,0.4615,0.4386,0.3204,0.3254,0.3741,0.0,0.0,0.0,0.0,0.0,0.0,0.0,0.0,0.0,0.0,0.0,0.0,0.0,0.0,0.0,0.0,0.0,0.0,0.0,0.0,0.0,0.0,0.0,0.0,0.0,0.0,0.0,0.0,0.0,0.0,0.0,0.0,0.0,0.0,0.0,0.7033,0.7662,1.2289,1.4694,1.5969,1.6718,1.8041,1.9535,2.0722,2.1722,2.2431,2.2778,2.0975,1.8432,1.5886,1.3327,0.0,0.0,0.7592,0.7052,0.7563,0.0,0.6441,0.0,0.0,0.0,0.0,0.0,0.0,0.0,0.0,0.0,0.0,0.0,0.0,0.0,0.0,0.0,2.8988,2.9541,2.8803,2.6565,2.6483,2.54,2.3135,2.3299,2.4058,2.5256,2.5466,2.5572,2.5592,2.5296,2.4553,2.3464,2.3222,0.0,0.0,2.2697,2.2551,2.1694,2.2716,2.3135,2.3135,2.3135,2.3135,2.3135,0.0,0.0,0.0,0.0,0.0,0.0,0.0,0.7423,0.6699,0.4809,0.4245,0.4402,0.5458,0.5968,0.5541,0.0,0.0,0.0,0.0,0.0,0.0,0.0,0.0,0.0,0.0,0.0,0.0,0.0,0.0,0.0,0.0,0.0,0.0,0.0,0.0,0.0,0.0,0.0,0.0,0.0,0.0,0.0,0.0,0.0,0.0,0.0,0.0,0.0,0.0,0.0,0.0,0.7148,0.9518,1.1482,1.335,1.5669,0.0,0.0,2.0665,2.2218,2.3143,2.1841,2.032,1.8608,1.6479,0.0,0.0,0.8325,0.7063,0.6481,0.7127,0.7364,0.7842,0.9065,0.0,0.8427,0.0,0.0,0.0,0.0,0.0,0.0,0.0,0.0,0.0,0.0,0.0,0.0,2.9641,2.9767,2.8803,2.6565,2.6483,2.54,2.3135,2.4135,2.4723,2.485,2.6871,2.7302,2.6373,2.6329,2.5724,2.4628,2.3551,0.0,0.0,2.2697,2.2551,2.1694,2.2716,2.3135,2.3135,2.3135,2.3135,2.3135,0.0,0.0,0.0,0.0,0.0,0.0,0.7087,0.5781,0.5108,0.5183,0.4619,0.4381,0.4827,0.5794,0.6296,0.5976,0.0,0.0,0.0,0.0,0.0,0.0,0.0,0.0,0.0,0.0,0.0,0.0,0.0,0.0,0.0,0.0,0.0,0.0,0.0,0.0,0.0,0.0,0.0,0.0,0.0,0.0,0.0,0.0,0.0,0.0,0.0,0.0,0.0,0.0,0.0,0.0,0.642,0.7587,0.0,0.0,1.5078,1.7643,1.8762,2.1293,2.3429,2.263,2.155,1.9774,1.647,0.0,1.1132,0.8702,0.6968,0.602,0.6466,0.6117,0.6325,0.8023,0.7484,0.0,0.0,0.0,0.0,0.0,0.0,0.0,0.0,0.0,0.0,0.0,0.0,0.0,2.9139,2.9603,2.8803,2.6565,2.6483,2.54,2.3135,2.4211,2.5126,2.5797,2.7348,2.7855,2.7441,2.6801,2.588,2.4702,2.3551,0.0,0.0,2.2398,2.2155,2.0799,2.2427,2.3135,2.3135,2.3135,2.3135,2.3135,0.0,0.0,0.0,0.0,0.0,0.9448,0.7383,0.5706,0.4917,0.5625,0.5005,0.4544,0.4664,0.5786,0.6789,0.7383,0.6602,0.0,0.0,0.0,0.0,0.0,0.0,0.0,0.0,0.0,0.0523,0.2406,0.4909,0.0,0.0,0.0,0.0,0.0,0.0,0.0,0.0,0.0,0.0,0.0,0.0,0.0,0.0,0.0,0.0,0.0,0.0,0.0,0.0,0.0,0.0,0.0,0.0,0.0,0.0,0.0,1.2857,1.6005,1.7492,2.059,2.3212,2.2832,2.1575,1.9532,0.0,0.0,1.1057,0.8295,0.7013,0.6271,0.5825,0.5441,0.5714,0.7344,0.7348,0.8353,1.183,0.0,0.0,0.0,0.0,0.0,0.0,0.0,0.0,0.0,0.0,0.0,0.0,2.9062,2.8621,2.6554,2.6483,2.5557,2.3637,2.4713,2.587,2.6964,2.8108,2.844,2.8059,2.7313,2.614,2.4732,0.0,0.0,0.0,2.2359,2.2097,2.0684,2.2388,2.3135,2.3135,2.3135,2.3135,2.3135,0.0,0.0,0.0,0.0,0.0,0.0,0.8999,0.8171,0.7264,0.614,0.5233,0.4967,0.5703,0.6568,0.7145,0.7285,0.5789,0.0,0.0,0.0,0.0,0.0,0.0,0.0,0.0,0.0,0.1314,0.2394,0.4816,0.6137,0.6403,0.0,0.0,0.0,0.0,0.0,0.0,0.0,0.0,0.0,0.0,0.0,0.0,0.0,0.0,0.0,0.0,0.0,0.0,0.0,0.0,0.0,0.0,0.5136,0.5816,0.8376,1.1433,1.4647,1.7436,2.04,2.2551,2.1894,1.9712,1.7085,0.0,0.0,0.9286,0.6654,0.7165,0.7423,0.5308,0.5923,0.6911,0.7344,0.8507,0.0,1.0437,0.0,0.0,0.0,0.0,0.0,0.0,0.0,0.0,0.0,0.0,0.0,0.0,2.8012,2.8142,2.6543,2.6483,2.5975,2.4787,2.588,2.7046,2.8096,2.9275,2.9138,2.7878,2.8035,2.6815,0.0,0.0,0.0,0.0,2.2697,2.2541,2.1675,2.2707,2.3135,2.3135,2.3135,2.3135,2.3135,0.0,0.0,0.0,0.0,0.0,0.0,0.0,0.7537,0.6728,0.6881,0.5579,0.4964,0.5834,0.5778,0.6092,0.7144,0.6324,0.0,0.0,0.0,0.0,0.0,0.0,0.0,0.0,0.0,0.1933,0.3288,0.4838,0.5593,0.5566,0.5384,0.5058,0.0,0.0,0.0,0.0,0.0,0.0,0.0,0.0,0.0,0.0,0.0,0.0,0.0,0.0,0.0,0.0,0.0,0.0,0.0,0.0,0.0,0.0,0.6315,0.9272,1.2416,1.3954,1.6338,1.8114,1.6939,1.606,1.4762,1.1895,0.0,0.9212,0.6638,0.6798,0.6949,0.5399,0.5664,0.6625,0.816,0.8399,0.0,0.0,0.0,0.0,0.0,0.0,0.0,0.0,0.0,0.0,0.0,0.0,0.0,0.0,2.7656,2.7754,2.6532,2.7209,2.7035,2.5964,2.7035,2.7763,2.8084,2.9275,2.9126,2.7939,2.8035,0.0,0.0,0.0,0.0,0.0,2.2697,2.2551,2.1694,2.2716,2.3135,2.3135,2.3135,2.3135,2.3135,0.0,0.0,0.0,0.0,0.0,0.0,0.0,0.7807,0.6939,0.7389,0.5893,0.4978,0.5499,0.5507,0.5684,0.6134,0.5841,0.0,0.0,0.0,0.0,0.0,0.0,0.0,0.0,0.1498,0.3503,0.4571,0.5529,0.5861,0.5568,0.5251,0.4769,0.4141,0.3462,0.0,0.0,0.0,0.0,0.0,0.0,0.0,0.1379,0.0,0.0,0.0,0.0,0.0,0.0,0.0,0.0,0.0,0.0,0.0,0.0,0.0,0.7356,0.9713,1.1724,1.3943,1.5519,1.4763,1.4003,1.2871,0.0,0.0,0.8744,0.6557,0.7735,0.8356,0.5651,0.6598,0.7736,0.7506,0.8637,0.0,0.0,0.0,0.0,0.0,0.0,0.0,0.0,0.0,0.0,0.0,0.0,0.0,0.0,2.6668,2.7172,2.6251,2.7417,2.7763,2.7128,2.7763,2.8347,2.8767,2.9456,2.9126,2.7939,2.8448,0.0,0.0,0.0,0.0,0.0,2.2833,2.2736,2.2308,2.3332,2.3714,2.3714,2.3222,2.3387,2.3714,0.0,0.0,0.0,0.0,0.0,0.0,0.0,0.8613,0.7636,0.7745,0.6205,0.5016,0.484,0.5661,0.5783,0.4679,0.4605,0.0,0.0,0.0,0.0,0.0,0.0,0.0,0.0397,0.3585,0.5485,0.5997,0.6655,0.6697,0.6158,0.5756,0.4924,0.3729,0.3423,0.2709,0.0,0.0,0.0,0.0,0.1185,0.1424,0.0,0.0,0.0,0.0,0.0,0.0,0.0,0.0,0.0,0.0,0.0,0.0,0.0,0.0,0.0,0.0,0.0,1.2806,1.4295,1.4551,1.3079,1.1382,1.0702,0.0,0.0,0.672,0.9742,1.1162,0.6412,0.871,1.0014,0.6051,0.9249,0.0,0.0,0.0,0.0,0.0,0.0,0.0,0.0,0.0,0.0,0.0,0.0,0.0,0.0,2.5127,2.6335,2.579,2.7298,2.8219,2.8255,2.8255,2.873,2.9679,2.9754,2.9088,2.7827,2.9176,0.0,0.0,0.0,0.0,0.0,2.3135,2.3135,2.3222,2.4372,2.4787,2.4702,2.3637,2.3877,2.4628,0.0,0.0,0.0,0.0,0.0,0.0,0.0,0.0,0.0,0.0,0.6353,0.4976,0.503,0.5243,0.5382,0.0,0.0,0.0,0.0,0.0,0.0,0.0,0.0,0.0,0.1492,0.2966,0.4436,0.5925,0.6488,0.6421,0.5734,0.5481,0.4612,0.3253,0.3077,0.2471,0.0,0.0,0.0,0.0,0.1349,0.1451,0.0,0.0,0.0,0.0,0.2485,0.2656,0.0,0.0,0.0,0.0,0.0,0.0,0.0,0.0,0.523,0.6029,0.82,0.0,1.0789,1.0848,1.0587,1.0126,0.0,0.8905,0.0,0.0,0.0,1.2143,1.0132,1.1887,1.247,0.8968,0.0,0.0,0.0,0.0,0.0,0.0,0.0,0.0,0.0,0.0,0.0,0.0,0.0,0.0,0.0,2.4796,2.5896,2.5779,2.7687,2.8919,2.9365,2.9365,2.9033,2.8375,2.9301,2.86,2.6494,2.8737,0.0,0.0,0.0,0.0,2.3135,2.3135,2.3135,2.3222,2.4372,2.4787,2.4787,2.4542,2.4542,2.4628,0.0,0.0,0.0,0.0,0.0,0.0,0.0,0.0,0.0,0.0,0.6247,0.4958,0.5003,0.4981,0.5082,0.0,0.0,0.0,0.0,0.0,0.0,0.0,0.0,0.0823,0.21,0.3256,0.4569,0.6043,0.6416,0.6279,0.5633,0.5276,0.4295,0.2808,0.2274,0.1704,0.114,0.0,0.0,0.0,0.1771,0.0,0.0,0.0,0.0,0.0,0.2749,0.2986,0.0,0.3093,0.2629,0.2195,0.0,0.0,0.0,0.0,0.4682,0.539,0.6999,0.8178,0.9189,1.014,1.0381,1.042,1.0484,1.0053,0.0,0.0,0.0,1.2127,1.0839,1.1497,0.0,0.0,0.0,0.0,0.0,0.0,0.0,0.0,0.0,0.0,0.0,0.0,0.0,0.0,0.0,0.0,0.0,2.3893,2.5096,2.5116,2.7557,2.9202,2.9779,2.9792,2.9151,2.7914,2.9176,2.8737,2.6924,2.8925,2.824,0.0,0.0,0.0,2.3125,2.3428,2.3381,2.3309,2.4967,2.5546,2.5546,2.5546,2.5546,2.5294,0.0,0.0,0.0,0.0,0.0,0.0,0.0,0.0,0.0,0.0,0.0,0.0,0.0,0.0,0.0,0.0,0.0,0.0,0.0,0.0,0.0,0.0,0.0869,0.1642,0.2574,0.3885,0.5088,0.619,0.6433,0.6234,0.5633,0.519,0.4119,0.2499,0.1547,0.0984,0.0812,0.1463,0.0,0.0,0.2226,0.0,0.0,0.0,0.0,0.0,0.0,0.0,0.0,0.325,0.2906,0.2655,0.2953,0.0,0.0,0.0,0.0,0.0,0.6412,0.7305,0.8406,1.0825,1.1402,1.158,1.2383,0.0,0.0,0.0,0.0,0.0,1.083,1.0926,0.0,0.0,0.0,0.0,0.0,0.0,0.0,0.0,0.0,0.0,0.0,0.0,0.0,0.0,0.0,0.0,0.0,2.2896,2.4326,2.4544,2.7247,2.895,2.9528,2.9704,2.9151,2.7914,2.9176,2.9126,2.7939,2.9201,2.8621,0.0,0.0,0.0,2.3105,2.3662,2.3639,2.3551,2.5641,2.6637,2.6719,2.6554,2.6483,2.6141,0.0,0.0,0.0,0.0,0.0,0.0,0.0,0.0,0.0,0.0,0.0,0.0,0.0,0.0,0.0,0.0,0.0,0.0,0.0,0.0,0.0,0.0578,0.0956,0.1921,0.3465,0.4059,0.4959,0.6202,0.6509,0.625,0.5432,0.5413,0.4453,0.2716,0.1997,0.145,0.1057,0.1344,0.1734,0.2177,0.2351,0.0,0.0,0.0,0.0,0.0,0.0,0.0,0.0,0.4151,0.3333,0.2423,0.3737,0.0,0.0,0.0,0.0,0.0,0.6049,0.6287,0.7119,1.1067,1.2554,1.2931,1.2525,0.0,0.0,0.0,0.0,0.0,0.0,1.6107,0.0,0.0,0.0,0.0,0.0,0.0,0.0,0.0,0.0,0.0,0.0,0.0,0.0,0.0,0.0,0.0,0.0,0.0,2.4186,2.5498,2.6832,2.7808,2.836,2.9315,2.9151,2.7914,2.9176,2.9126,2.7939,2.9201,2.8621,0.0,0.0,2.5241,2.3135,2.324,2.374,2.4713,2.5975,2.7035,2.7763,2.6801,2.6483,2.6141,0.0,0.0,0.0,0.0,0.0,0.0,0.0,0.0,0.0,0.0,0.0,0.0,0.0,0.0,0.0,0.0,0.0,0.0,0.0,0.0,0.1968,0.1689,0.2108,0.2719,0.3523,0.46,0.5697,0.6803,0.6735,0.6371,0.5705,0.4747,0.3759,0.2709,0.1904,0.1411,0.1246,0.1876,0.2254,0.2466,0.0,0.0,0.0,0.0,0.0,0.0,0.0,0.0,0.0,0.0,0.3812,0.3619,0.3645,0.0,0.0,0.0,0.0,0.0,0.5626,0.5457,0.6142,1.0727,1.1317,1.1535,0.0,0.0,0.0,0.0,0.0,0.0,0.0,0.0,0.0,0.0,0.0,0.0,0.0,0.0,0.0,0.0,0.0,0.0,0.0,0.0,0.0,0.0,0.0,0.0,0.0,0.0,2.4066,2.5337,2.6596,2.7406,2.7657,2.8762,2.8687,2.7454,2.9038,2.9126,2.7939,2.8614,2.8039,2.6461,0.0,2.4902,2.3125,2.3473,2.4091,2.4872,2.6058,2.7128,2.7936,2.6883,2.5724,2.4467,0.0,0.0,0.0,0.0,0.0,0.0,0.0,0.0,0.0,0.0,0.0,0.0,0.0,0.0,0.0,0.0,0.0,0.0,0.0,0.0,0.2639,0.2606,0.3263,0.3684,0.3781,0.5166,0.6293,0.7113,0.6708,0.6202,0.5597,0.4167,0.3208,0.2634,0.1916,0.1485,0.1363,0.2263,0.2665,0.2799,0.0,0.0,0.0,0.0,0.0,0.0,0.0,0.0,0.0,0.0,0.0,0.0,0.0,0.0,0.0,0.4646,0.4667,0.4886,0.5228,0.4946,0.5643,1.0128,0.0,0.0,0.0,0.0,0.0,0.0,0.0,0.0,0.0,0.0,0.0,0.0,0.0,0.0,0.0,0.0,0.0,0.0,0.0,0.0,0.0,0.0,0.0,0.0,0.0,0.0,0.0,0.0,2.3936,2.5107,2.6429,2.7092,2.7092,2.8059,2.8174,2.7454,2.9038,2.9263,2.8313,2.8144,2.7522,2.6461,2.5732,2.4545,2.3115,2.3618,2.4336,2.5294,2.6141,2.6964,2.7614,2.6801,2.5062,2.3135,0.0,0.0,0.0,0.0,0.0,0.0,0.0,0.0,0.0,0.0,0.0,0.0,0.0,0.0,0.0,0.0,0.0,0.0,0.0,0.0,0.2724,0.2606,0.3883,0.469,0.4887,0.556,0.612,0.655,0.6143,0.5467,0.4512,0.426,0.3584,0.2606,0.2543,0.205,0.1341,0.1909,0.2619,0.34,0.4095,0.0,0.0,0.0,0.0,0.0,0.0,0.0,0.0,0.0,0.0,0.0,0.0,0.0,0.5979,0.4909,0.4984,0.5331,0.4882,0.4909,0.5874,0.9345,0.892,0.0,1.5044,1.1531,0.0,1.8447,0.0,0.0,0.0,0.0,0.0,0.0,0.0,0.0,0.0,0.0,0.0,0.0,0.0,0.0,0.0,0.0,0.0,0.0,0.0,0.0,0.0,0.0,0.0,2.5515,2.6214,2.6584,2.6584,2.7105,2.7871,2.8737,2.9478,2.9741,2.9601,2.856,2.7522,2.6472,2.5346,2.418,2.3135,2.3193,2.4447,2.6389,2.6483,2.6554,2.6637,2.6565,2.5062,2.3135,0.0,0.0,0.0,0.0,0.0,0.0,0.0,0.0,0.0,0.0,0.0,0.0,0.0,0.0,0.0,0.0,0.0,0.0,0.0,0.3141,0.2907,0.3258,0.4119,0.4796,0.5232,0.5994,0.6328,0.6202,0.5403,0.4786,0.4325,0.3779,0.3205,0.266,0.2363,0.1891,0.1341,0.1909,0.2624,0.3406,0.4254,0.4929,0.0,0.0,0.0,0.0,0.0,0.0,0.0,0.0,0.5638,0.5969,0.6763,0.7219,0.7266,0.6125,0.5553,0.5254,0.4963,0.4775,0.5738,1.017,0.8649,0.0,0.0,1.2885,1.133,1.9964,1.634,0.0,0.0,0.0,0.0,0.0,0.0,0.0,0.0,0.0,0.0,0.0,0.0,0.0,0.0,0.0,0.0,0.0,0.0,0.0,0.0,0.0,0.0,2.5532,2.6163,2.6533,2.6533,2.7005,2.7494,2.7921,2.8825,2.9076,2.8687,2.7573,2.6701,2.5861,2.4343,2.3464,2.3135,2.3877,2.5052,2.6565,2.7197,2.7128,2.6389,2.5714,2.4467,2.3135,0.0,0.0,0.0,0.0,0.0,0.0,0.0,0.0,0.0,0.0,0.0,0.0,0.0,0.0,0.0,0.0,0.0,0.0,0.4004,0.3207,0.3081,0.3851,0.4391,0.4849,0.5272,0.6252,0.6575,0.6181,0.5272,0.4624,0.4252,0.3547,0.3035,0.2682,0.2372,0.1916,0.1474,0.215,0.2815,0.355,0.4579,0.5333,0.0,0.0,0.0,0.0,0.0,0.0,0.0,0.0,0.6282,0.6998,0.7571,0.8063,0.818,0.6961,0.6228,0.5764,0.5446,0.4865,0.5476,1.0055,0.0,0.0,1.583,1.3915,1.2656,2.057,1.8114,0.0,0.0,0.0,0.0,0.0,0.0,0.0,0.0,0.0,0.0,0.0,0.0,0.0,0.0,0.0,0.0,0.0,0.0,0.0,0.0,0.0,0.0,0.0,2.59,2.6276,2.6533,2.6841,2.7017,2.703,2.7959,2.8398,2.8312,2.6895,2.6054,2.5817,2.3917,2.3135,2.3222,2.4296,2.5714,2.7046,2.7844,2.7441,2.6389,2.521,2.4049,2.3135,0.0,0.0,0.0,0.0,0.0,0.0,0.0,0.0,0.6797,0.5929,0.5228,0.0,0.0,0.0,0.0,0.0,0.0,0.0,0.4578,0.3475,0.3244,0.426,0.4756,0.5001,0.501,0.6235,0.68,0.6591,0.5839,0.5034,0.4184,0.3706,0.3205,0.2697,0.2702,0.235,0.1755,0.2584,0.3273,0.3904,0.5112,0.6077,0.6743,0.0,0.0,0.0,0.0,0.0,0.0,0.0,0.7187,0.7429,0.8099,0.8585,0.8623,0.7259,0.6995,0.7023,0.6321,0.5222,0.5122,0.8625,0.0,0.0,1.5883,1.4205,1.3025,1.9723,0.0,0.0,0.0,0.0,0.0,0.0,0.0,0.0,0.0,0.0,0.0,0.0,0.0,0.0,0.0,0.0,0.0,0.0,0.0,0.0,0.0,0.0,0.0,0.0,2.5322,2.5862,2.6508,2.6521,2.6521,2.6533,2.7017,2.7846,2.8825,2.6584,2.5898,2.6378,2.4049,2.3135,2.3212,2.4372,2.6108,2.8084,2.8096,2.7452,2.6389,2.521,2.4049,2.3135,0.0,0.0,0.0,0.0,0.0,0.0,0.0,0.0,0.706,0.6755,0.6132,0.0,0.0,0.0,0.0,0.0,0.0,0.0,0.4179,0.3624,0.3588,0.4264,0.4697,0.503,0.5214,0.5631,0.5767,0.5624,0.4503,0.3707,0.3205,0.3026,0.2735,0.2403,0.3582,0.34,0.2307,0.3904,0.4335,0.4011,0.4953,0.5657,0.6195,0.0,0.0,0.0,0.0,0.0,0.0,0.0,0.0,0.0,0.8753,0.8762,0.8717,0.9952,0.8158,0.6131,0.7661,0.5844,0.0,0.8569,0.0,0.0,0.0,1.3605,0.0,0.0,0.0,0.0,0.0,0.0,0.0,0.0,0.0,0.0,0.0,0.0,0.0,0.0,0.0,0.0,0.0,0.0,0.0,0.0,0.0,0.0,0.0,0.0,0.0,0.0,2.477,2.531,2.585,2.585,2.605,2.6533,2.6697,2.6503,2.6094,2.552,2.4701,2.378,2.2992,2.2705,2.2886,2.5093,2.729,2.9118,2.7545,2.6801,2.6224,2.4307,2.3387,2.3135,0.0,0.0,0.0,0.0,0.0,0.0,0.0,0.0,0.6827,0.6228,0.6562,0.6585,0.0,0.0,0.0,0.0,0.0,0.0,0.0,0.3526,0.363,0.4267,0.4736,0.5193,0.5613,0.4898,0.4637,0.4878,0.3976,0.3352,0.2995,0.2733,0.2606,0.2654,0.367,0.3615,0.2832,0.4603,0.4984,0.4536,0.557,0.6117,0.6322,0.0,0.0,0.0,0.0,0.0,0.0,0.0,0.0,0.0,0.9125,0.9512,0.9872,1.0416,0.8887,0.7474,0.95,0.7738,0.0,1.1789,1.1088,0.9734,1.1998,0.0,0.0,0.0,0.0,0.0,0.0,0.0,0.0,0.0,0.0,0.0,0.0,0.0,0.0,0.0,0.0,0.0,0.0,0.0,0.0,0.0,0.0,0.0,0.0,0.0,0.0,0.0,2.4205,2.4757,2.5285,2.5485,2.5774,2.6126,2.642,2.5721,2.4443,2.4582,2.4105,2.2956,2.2509,2.2739,2.3649,2.5491,2.7242,2.8643,2.714,2.6224,2.5641,2.38,2.3135,2.3135,0.0,0.0,0.6268,0.6684,0.0,0.0,0.0,0.0,0.6263,0.5052,0.6589,0.7023,0.0,0.0,0.0,0.0,0.0,0.0,0.0,0.3265,0.3434,0.421,0.4777,0.5369,0.6031,0.4193,0.3609,0.4368,0.3967,0.3588,0.3175,0.2735,0.2773,0.3178,0.3419,0.3441,0.3387,0.4902,0.5427,0.5331,0.6598,0.7027,0.6884,0.6692,0.0,0.0,0.0,0.0,0.0,0.0,0.0,0.0,0.9274,1.0405,1.1319,0.9418,0.9259,1.0012,1.1374,1.0109,0.9853,1.6008,1.3821,0.0,1.3694,1.5568,1.812,0.0,0.0,0.0,0.0,0.0,0.0,0.0,0.0,0.0,0.0,0.0,0.0,0.0,0.0,0.0,0.0,0.0,0.0,0.0,0.0,0.0,0.0,0.0,0.0,2.3078,2.359,2.4142,2.4745,2.5209,2.5473,0.0,2.5983,2.5214,2.3402,2.3877,2.3853,2.32,2.2361,2.3091,2.5038,2.5565,2.6324,2.7203,2.6551,2.5681,2.4617,2.3551,2.3135,2.3135,0.0,0.0,0.6331,0.5808,0.0,0.0,0.0,0.0,0.0,0.6318,0.0,0.0,0.0,0.0,0.0,0.0,0.0,0.0,0.0,0.303,0.3236,0.3722,0.4459,0.5092,0.5549,0.4156,0.3638,0.4093,0.333,0.2737,0.2288,0.2713,0.2928,0.3025,0.4587,0.4798,0.4107,0.5945,0.6487,0.6148,0.6387,0.6655,0.6884,0.6733,0.6488,0.0,0.0,0.0,0.0,0.0,0.0,0.0,0.9257,0.9321,0.9431,0.9955,0.9625,0.9425,1.0919,0.911,0.0,0.0,1.0747,1.2083,1.8499,1.8602,1.8326,0.0,0.0,0.0,0.0,0.0,0.0,0.0,0.0,0.0,0.0,0.0,0.0,0.0,0.0,0.0,0.0,0.0,0.0,0.0,0.0,0.0,0.0,0.0,0.0,2.3053,2.2836,2.315,2.4167,2.428,2.4556,0.0,2.4413,2.3485,2.2383,2.3268,2.2906,2.175,2.2278,2.3481,2.5004,2.5116,2.6003,2.7167,2.5359,2.4723,2.4617,2.3551,2.3135,2.3135,0.0,0.0,0.0,0.0,0.0,0.0,0.0,0.0,0.0,0.0,0.0,0.0,0.0,0.0,0.0,0.0,0.0,0.0,0.0,0.0,0.3554,0.4292,0.4316,0.449,0.4877,0.3743,0.313,0.3032,0.2747,0.2437,0.2102,0.2389,0.2778,0.3281,0.4223,0.4576,0.4564,0.6298,0.6815,0.644,0.6884,0.6987,0.6825,0.6703,0.6497,0.6387,0.7087,0.0,0.0,0.0,0.0,0.0,0.0,0.0,1.0386,0.9916,0.9454,0.9215,0.9801,0.0,0.0,1.145,0.0,1.5668,1.852,1.912,1.9558,0.0,0.0,0.0,0.0,0.0,0.0,0.0,0.0,0.0,0.0,0.0,0.0,0.0,0.0,0.0,0.0,0.0,0.0,0.0,0.0,0.0,0.0,2.1506,2.1631,2.1945,2.2184,2.2598,2.3188,2.3728,2.4142,2.4431,2.3802,2.2867,2.1713,2.1775,2.1673,2.1585,2.2174,2.3373,2.4998,2.4774,2.5236,2.6014,2.4665,2.4148,2.3877,2.3299,2.3135,2.3047,0.0,0.0,0.0,0.0,0.0,0.0,0.0,0.0,0.0,0.0,0.0,0.0,0.0,0.0,0.0,0.0,0.0,0.0,0.0,0.0,0.0,0.4893,0.4302,0.4071,0.4365,0.3449,0.2727,0.2237,0.2403,0.256,0.2747,0.2737,0.3169,0.3957,0.3987,0.4262,0.4794,0.6174,0.6641,0.6537,0.7414,0.7518,0.7095,0.6971,0.6911,0.6967,0.7718,0.8188,0.847,0.8784,0.0,0.0,0.0,0.0,1.178,0.964,0.9343,0.9606,0.902,0.984,1.1587,1.4598,1.7055,0.0,1.7252,1.8569,0.0,0.0,0.0,0.0,0.0,0.0,0.0,0.0,0.0,0.0,0.0,0.0,0.0,0.0,0.0,0.0,0.0,0.0,0.0,0.0,0.0,0.0,2.0706,2.1004,2.1079,2.0869,2.1694,2.2221,2.2309,2.3339,2.3779,2.3654,2.3025,2.2127,2.0907,2.035,2.0802,2.2027,2.2178,2.3294,2.4969,2.4408,2.4334,2.4659,2.397,2.3395,2.3027,2.3027,2.3076,2.296,0.0,0.0,0.0,0.0,0.0,0.0,0.0,0.0,0.0,0.0,0.6043,0.5893,0.0,0.3886,0.3275,0.2925,0.2534,0.2244,0.2077,0.0,0.0,0.4199,0.44,0.4548,0.4639,0.3958,0.3454,0.3219,0.2625,0.3199,0.0,0.0,0.0,0.544,0.6135,0.5819,0.4841,0.5442,0.6072,0.6704,0.7121,0.7729,0.8351,0.8281,0.8613,0.9165,0.0,0.9411,0.9692,0.9348,0.924,0.0,0.0,0.0,1.0698,0.9447,1.0221,1.1246,1.0254,0.0,1.3761,0.0,1.5031,1.5691,0.0,0.0,0.0,0.0,0.0,0.0,0.0,0.0,0.0,0.0,0.0,0.0,0.0,0.0,0.0,0.0,0.0,0.0,0.0,0.0,0.0,0.0,0.0,0.0,2.0693,2.0263,2.0439,2.1343,2.1518,2.1832,2.2309,2.2937,2.2874,2.2183,2.0629,1.9526,1.9021,2.0175,2.1167,2.2027,2.2925,2.3963,2.4945,2.3959,2.3832,2.4061,2.2298,2.1967,2.2598,2.2598,2.2822,2.296,0.0,0.0,0.0,0.0,0.0,0.0,0.0,0.0,0.0,0.0,0.0,0.5578,0.4533,0.3684,0.3118,0.2915,0.2535,0.2316,0.2331,0.2892,0.342,0.3857,0.405,0.4015,0.3756,0.3348,0.2813,0.2169,0.2373,0.3566,0.0,0.7051,0.7093,0.0,0.0,0.0,0.4935,0.7102,0.7309,0.6268,0.7011,0.7369,0.7562,0.0,0.0,0.0,0.0,0.0,0.0,1.0699,1.0687,1.0802,1.1129,0.0,0.0,0.0,1.0784,1.1493,1.1843,1.2119,1.3071,0.0,1.5594,1.5128,1.8846,0.0,0.0,0.0,0.0,0.0,0.0,0.0,0.0,0.0,0.0,0.0,0.0,0.0,0.0,0.0,0.0,0.0,0.0,0.0,0.0,0.0,0.0,1.9911,2.0162,1.9936,2.0024,2.0526,2.0853,2.1142,2.1393,2.2246,2.214,2.1164,1.9879,1.9282,1.9381,1.9993,2.1062,2.2531,2.3481,2.4295,2.4909,2.3595,2.3191,2.3217,2.204,2.1973,2.2539,2.2773,2.2978,2.296,0.0,0.0,0.0,0.0,0.0,0.0,0.0,0.0,0.0,0.0,0.0,0.5459,0.4712,0.0,0.0,0.0,0.2996,0.2919,0.2924,0.3184,0.3485,0.3833,0.3784,0.3561,0.3126,0.2944,0.2433,0.1579,0.2272,0.3756,0.6021,0.7752,0.8058,0.0,0.8954,0.0,0.0,0.0,0.0,0.6805,0.7791,0.7735,0.7189,0.0,0.0,0.0,0.0,0.0,0.0,0.0,0.0,0.0,0.0,0.0,0.0,0.0,0.0,1.1718,0.0,0.0,1.2894,1.6733,1.5889,1.486,0.0,0.0,0.0,0.0,0.0,0.0,0.0,0.0,0.0,0.0,0.0,0.0,0.0,0.0,0.0,0.0,0.0,0.0,0.0,0.0,0.0,0.0,0.0,1.9798,1.9798,1.9798,1.9798,1.9798,2.0363,2.0718,2.0718,2.1517,2.1452,2.0336,1.9629,1.9477,1.9735,2.0122,2.1246,2.2926,2.3616,2.4257,2.4708,2.3299,2.2633,2.2449,2.1929,2.1982,2.2402,2.2822,2.3047,2.296,0.0,0.0,0.0,0.0,0.0,0.0,0.0,0.0,0.0,0.0,0.0,0.5663,0.5796,0.5393,0.4732,0.3838,0.4083,0.4156,0.3844,0.3377,0.3457,0.4239,0.3852,0.0,0.3481,0.334,0.3062,0.2611,0.2604,0.3842,0.6199,0.7338,0.8496,0.9627,0.9536,1.0056,1.0865,0.0,0.0,0.9275,1.0031,0.9523,0.0,0.0,0.0,0.0,0.0,0.0,0.0,0.0,0.0,0.0,0.0,0.0,0.0,0.0,0.0,0.0,0.0,1.4179,0.0,1.5178,1.4743,0.0,0.0,0.0,0.0,0.0,0.0,0.0,0.0,0.0,0.0,0.0,0.0,0.0,0.0,0.0,0.0,0.0,0.0,0.0,0.0,0.0,0.0,0.0,0.0,1.9798,1.9798,1.9798,1.9798,1.9798,2.0363,2.0718,2.0718,2.0964,2.0647,1.9749,1.9469,1.9309,1.9351,2.0709,2.1815,2.2692,2.3179,2.37,2.4198,2.3163,2.2437,2.1959,2.1471,2.1533,2.1973,2.2393,2.2793,2.296,0.0,0.0,0.0,0.0,0.0,0.0,0.0,0.0,0.0,0.0,0.0,0.0,0.0,0.5703,0.5075,0.4267,0.3774,0.3421,0.3272,0.3437,0.3606,0.3718,0.3769,0.3575,0.3123,0.3035,0.2783,0.2367,0.2572,0.3584,0.5385,0.611,0.7602,0.9777,1.2241,1.1715,0.912,1.2076,0.0,0.0,0.0,0.0,0.0,0.0,0.0,0.0,0.0,0.0,0.0,0.0,0.0,0.0,0.0,0.0,0.0,0.0,0.0,0.0,0.0,0.0,0.0,1.5724,1.4262,1.2872,0.0,0.0,0.0,0.0,0.0,0.0,0.0,0.0,0.0,0.0,0.0,0.0,0.0,0.0,0.0,0.0,0.0,0.0,0.0,0.0,0.0,0.0,0.0,0.0,1.9761,1.9046,1.8983,1.9773,1.9999,2.0064,1.9976,1.9738,1.9454,1.8976,1.9209,1.9562,2.015,2.1232,2.2151,2.2936,2.2543,2.2706,2.3128,2.1887,2.1209,2.1158,2.1519,2.1748,2.1973,2.2656,2.3008,2.3047,0.0,0.0,0.0,0.0,0.0,0.8313,0.8219,0.8208,0.8233,0.0,0.0,0.0,0.0,0.0,0.5393,0.4687,0.3689,0.3189,0.3427,0.3605,0.3721,0.3727,0.3735,0.3513,0.3068,0.2935,0.2697,0.2367,0.2654,0.3409,0.4631,0.5423,0.6939,0.9147,1.2407,1.2501,0.0,0.0,0.0,0.9548,0.0,0.0,1.0718,0.0,0.0,0.0,0.0,0.0,0.0,0.0,0.0,0.0,0.0,0.0,0.0,0.0,0.0,0.0,1.5147,0.0,0.0,0.0,0.0,1.2396,0.0,0.0,0.0,0.0,0.0,0.0,0.0,0.0,0.0,0.0,0.0,0.0,0.0,0.0,0.0,0.0,0.0,0.0,0.0,0.0,0.0,0.0,0.0,0.0,1.9761,1.9021,1.8909,1.9773,1.9579,1.9385,1.9304,1.9298,1.9148,1.8814,1.9447,2.0204,2.1037,2.1628,2.2187,2.2641,2.1803,2.1804,2.2306,2.1073,2.0571,2.0635,2.1387,2.1758,2.1973,2.2676,2.3018,2.3135,0.0,0.0,0.8444,0.7992,0.8487,0.8842,0.8478,0.8159,0.8216,0.902,0.0,0.0,0.0,0.0,0.0,0.516,0.4009,0.3656,0.4418,0.3879,0.377,0.4363,0.3769,0.3418,0.3417,0.3152,0.2918,0.2729,0.2912,0.3368,0.4059,0.0,0.6626,0.7866,0.9736,1.2331,1.53,0.0,1.5844,1.6378,0.0,1.5443,1.4858,0.0,0.0,0.0,1.708,1.7527,0.0,0.0,0.0,0.0,0.0,0.0,0.0,0.0,0.0,0.0,0.0,0.0,0.0,0.0,0.0,0.0,1.047,0.0,0.0,0.0,0.0,0.0,0.0,0.0,0.0,0.0,0.0,0.0,0.0,0.0,0.0,0.0,0.0,0.0,0.0,0.0,0.0,0.0,0.0,1.9761,1.9798,1.9798,1.9798,1.9747,1.9097,1.8661,1.8661,1.9648,1.9761,1.9063,2.012,2.1037,2.1877,2.1939,2.1939,2.1877,2.0974,2.1073,2.1749,2.0945,2.0571,2.0596,2.1055,2.1504,2.1934,2.2353,2.2783,2.3135,0.0,0.8139,0.7952,0.8152,0.8122,0.8269,0.896,0.9022,0.906,0.0,0.0,0.0,0.0,0.0,0.0,0.51,0.4587,0.4186,0.3872,0.3866,0.393,0.4106,0.3928,0.3934,0.4115,0.357,0.3418,0.3713,0.3477,0.3793,0.0,0.0,0.0,0.0,0.898,1.0741,1.2889,1.5606,0.0,0.0,1.7011,1.6687,0.0,0.0,0.0,0.0,0.0,1.8642,0.0,0.0,1.8621,1.7141,0.0,0.0,0.0,0.0,0.0,0.0,1.4957,0.0,0.0,0.0,0.0,0.0,1.2857,1.4394,0.0,0.0,0.0,0.0,0.0,0.0,0.0,0.0,0.0,0.0,0.0,0.0,0.0,0.0,0.0,0.0,0.0,0.0,0.0,0.0,1.8635,1.8821,1.9761,1.9798,1.9579,1.9044,1.8821,1.8167,1.7146,1.8034,1.8391,1.8291,1.9868,2.1037,2.1939,2.2506,2.2445,2.1877,2.0974,2.0545,2.0387,1.991,1.9811,2.0176,2.0937,2.1504,2.1934,2.2353,2.2783,2.3135,0.8296,0.7993,0.7912,0.799,0.8227,0.8549,0.8981,0.9487,0.9769,0.0,0.0,0.0,0.0,0.0,0.0,0.5414,0.4953,0.4524,0.4119,0.397,0.3901,0.3988,0.417,0.4303,0.4402,0.4132,0.4028,0.409,0.4166,0.0,0.0,0.0,0.0,0.0,0.7986,0.9091,0.0,0.0,0.0,0.0,1.7093,0.0,0.0,1.8111,1.8603,0.0,0.0,0.0,2.02,2.1033,1.9911,0.0,0.0,0.0,0.0,0.0,0.0,0.0,0.0,0.0,0.0,0.0,0.0,0.0,1.39,1.5285,1.6313,0.0,0.0,0.0,0.0,0.0,0.0,0.0,0.0,0.0,0.0,0.0,0.0,0.0,0.0,0.0,0.0,0.0,0.0,1.839,1.8159,1.8471,1.9434,1.9364,1.915,1.8715,1.8394,1.7688,1.6482,1.7749,1.8401,1.8544,2.0308,2.1553,2.2445,2.2884,2.2445,2.1302,2.0846,2.003,1.9148,1.9239,1.9531,1.998,2.0684,2.1338,2.1914,2.2158,2.2627,2.3135,0.0,0.8335,0.8151,0.7784,0.8582,0.9131,0.8778,0.9601,1.0209,0.0,0.0,0.0,0.0,0.0,0.0,0.0,0.5336,0.4946,0.4867,0.4269,0.3969,0.4066,0.4401,0.4536,0.4435,0.4617,0.4529,0.4167,0.0,0.0,0.0,0.0,0.0,0.0,0.7188,0.7821,0.0,0.0,0.0,1.7225,1.6654,1.8257,0.0,0.0,1.945,0.0,2.2063,2.1919,2.1139,2.2869,2.1734,0.0,0.0,0.0,0.0,0.0,1.6162,0.0,0.0,0.0,0.0,0.0,0.0,0.0,1.4203,1.5768,1.6857,0.0,0.0,0.0,0.0,0.0,0.0,0.0,0.0,0.0,0.0,0.0,0.0,0.0,0.0,0.0,0.0,1.8113,1.793,1.742,1.789,1.8442,1.8945,1.877,1.8602,1.8608,1.7841,1.7146,1.6492,1.8108,1.9033,1.9351,2.104,2.2225,2.2977,2.3053,2.2187,2.059,2.059,1.9617,1.8076,1.8877,1.9463,1.9893,2.0381,2.1103,2.1885,2.1885,2.2412,2.3135,0.9039,0.8536,0.8202,0.8441,0.8448,0.8541,0.8815,0.9286,0.959,0.9587,0.0,0.0,0.0,0.0,0.0,0.0,0.0,0.6235,0.5258,0.5328,0.5128,0.4496,0.4449,0.4489,0.4646,0.4273,0.4215,0.4495,0.0,0.0,0.0,0.0,0.0,0.0,0.8201,0.8858,0.0,0.0,0.0,1.4891,1.6857,0.0,1.7559,1.952,1.9361,1.8552,2.1599,2.1895,2.0919,0.0,2.1385,2.0553,0.0,0.0,0.0,0.0,0.0,0.0,0.0,0.0,0.0,0.0,0.0,0.0,1.5171,1.5189,1.5196,0.0,0.0,0.0,0.0,0.0,0.0,0.0,0.0,0.0,0.0,0.0,0.0,0.0,0.0,0.0,0.0,1.7514,1.751,1.742,1.789,1.8442,1.8945,1.8418,1.7961,1.7829,1.709,1.6652,1.6492,1.7212,1.8239,1.9521,2.0665,2.1608,2.2485,2.2924,2.2187,2.059,2.059,1.9617,1.8047,1.8555,1.9023,1.9492,2.0264,2.1103,2.1885,2.1885,2.2412,2.3135,0.8573,0.8227,0.8157,0.8778,0.9071,0.9293,0.9552,0.9865,1.0118,1.0185,0.0,0.0,0.0,0.0,0.0,0.0,0.0,0.0,0.0,0.0,0.5132,0.4728,0.4642,0.459,0.4563,0.4573,0.4589,0.4549,0.0,0.0,0.0,0.0,0.0,0.0,0.0,0.0,0.0,0.0,1.2241,1.4117,1.6041,0.0,1.7785,1.9583,1.9979,1.981,2.1535,2.1988,2.1663,2.1088,2.1075,0.0,0.0,1.854,1.7552,0.0,1.5809,1.5564,0.0,0.0,0.0,1.5921,0.0,0.0,0.0,1.6132,1.6138,1.5523,0.0,0.0,0.0,0.0,0.0,0.0,0.0,0.0,0.0,0.0,0.0,0.0,0.0,0.0,0.0,1.7106,1.7074,1.7363,1.7639,1.8154,1.8933,1.8321,1.796,1.8155,1.7413,1.7034,1.7034,1.7967,1.8794,1.9602,2.1001,2.1876,2.2322,2.2455,2.1803,2.059,2.0139,1.9233,1.8047,1.8467,1.8896,1.9346,1.999,2.0918,2.1885,2.1885,2.2412,2.3135,0.8029,0.7986,0.8231,0.8975,0.9724,1.0196,1.0191,1.0431,1.064,0.0,0.0,0.0,0.0,0.0,0.0,0.0,0.0,0.0,0.0,0.0,0.5304,0.5038,0.5012,0.4903,0.4688,0.5162,0.5204,0.4759,0.0,0.0,0.0,0.0,0.0,0.0,0.0,0.0,0.0,0.0,0.0,1.4288,0.0,1.704,1.8575,1.9478,2.0315,2.1114,2.1453,2.2034,2.241,2.0997,0.0,2.1357,2.087,1.959,0.0,0.0,0.0,0.0,0.0,0.0,0.0,0.0,0.0,1.6538,0.0,0.0,0.0,1.5796,0.0,0.0,0.0,0.0,0.0,0.0,0.0,0.0,0.0,0.0,0.0,0.0,0.0,0.0,0.0,1.643,1.657,1.7162,1.7212,1.7643,1.8598,1.8063,1.7918,1.8263,1.7688,1.7468,1.7578,1.8649,1.9428,1.9824,2.1386,2.2209,2.2264,2.2019,2.1428,2.0526,1.9694,1.8787,1.8047,1.8467,1.8896,1.9326,1.9746,2.0723,2.1885,2.1885,2.2412,2.3135,0.8358,0.8525,0.8788,0.9122,0.9761,1.0091,0.9817,0.989,0.0,0.0,0.0,0.0,0.0,0.0,0.0,0.0,0.0,0.0,0.7238,0.0,0.0,0.5833,0.5708,0.5691,0.5737,0.5783,0.5808,0.5753,0.0,0.0,0.0,0.0,0.0,0.0,0.813,0.0,0.0,0.0,1.3182,0.0,1.7136,1.7499,0.0,1.8856,1.9311,1.9338,2.0986,2.1911,2.2167,0.0,2.1166,2.1569,0.0,1.8582,0.0,0.0,0.0,0.0,0.0,0.0,0.0,0.0,1.5608,0.0,0.0,0.0,1.5141,1.4436,0.0,0.0,0.0,0.0,0.0,0.0,0.0,0.0,0.0,0.0,0.0,0.0,0.0,0.0,0.0,0.0,1.5825,1.6534,1.6609,1.6819,1.729,1.724,1.7082,1.6733,1.6652,1.6922,1.7567,1.7744,1.8776,2.0557,2.1292,2.1832,2.2264,2.2019,2.1428,2.0526,1.9694,1.8787,1.8047,1.8467,1.8896,1.9326,1.9746,2.0723,2.1885,2.1885,2.2412,2.3135,0.8869,0.9075,0.9458,1.0234,1.0457,1.0538,1.0459,1.0239,0.0,0.0,0.0,0.0,0.0,0.0,0.0,0.0,0.0,0.944,0.0,0.0,0.0,0.0,0.6924,0.6187,0.5741,0.6232,0.6216,0.5667,0.6805,0.0,0.0,0.0,0.0,0.0,0.8335,0.0,1.0185,0.0,0.0,0.0,0.0,0.0,0.0,1.8854,1.9774,2.0093,2.0241,2.1138,2.2033,0.0,2.0893,0.0,0.0,0.0,0.0,0.0,0.0,0.0,0.0,0.0,0.0,0.0,0.0,0.0,0.0,0.0,1.768,0.0,0.0,0.0,0.0,0.0,0.0,0.0,0.0,0.0,0.0,0.0,0.0,0.0,0.0,0.0,0.0,0.0,0.0,0.0,0.0,1.5343,1.6067,1.6011,1.6521,1.7763,1.7357,1.7688,1.8874,1.9198,1.9866,2.0677,2.1067,2.135,2.1522,2.0734,2.0204,1.9824,1.8911,1.8476,1.8389,1.8564,1.9033,1.9668,1.9844,2.0723,2.1885,2.1885,2.2412,2.3135,0.956,0.0,0.0,0.0,1.1015,1.0897,1.0801,0.0,0.0,0.0,0.0,0.0,1.0297,0.9543,0.0,0.0,0.0,1.0144,0.0,0.0,0.8542,0.0,0.0,0.0,0.0,0.6998,0.6823,0.5898,0.7118,0.0,0.0,0.0,0.0,0.0,0.0,0.9298,0.9932,0.0,0.0,1.5328,1.6897,1.7556,1.7713,1.8857,1.9919,2.0719,2.0003,2.0768,2.1815,1.9941,2.0676,0.0,2.0142,0.0,0.0,0.0,0.0,0.0,1.7612,0.0,0.0,0.0,0.0,0.0,0.0,0.0,0.0,0.0,0.0,0.0,0.0,0.0,0.0,0.0,0.0,0.0,0.0,0.0,0.0,0.0,0.0,0.0,0.0,0.0,0.0,0.0,0.0,0.0,1.5016,1.5258,1.6219,1.8035,1.7786,1.829,1.971,1.9944,2.03,2.0773,2.07,2.0838,2.1173,1.991,1.9431,1.9562,1.8582,1.8359,1.8652,1.8896,1.9355,1.9932,2.0185,2.0937,2.1885,2.1885,2.2412,2.3135,1.0467,1.0276,0.0,0.0,0.0,0.0,0.0,0.0,0.0,0.0,0.0,0.0,0.0,0.0,0.0,0.0,0.0,0.981,1.0312,0.0,0.9982,0.0,0.0,0.8058,0.0,0.0,0.7834,0.6955,0.8346,0.0,0.0,0.0,0.0,0.0,0.0,0.9994,1.1597,1.2995,1.4996,1.7349,1.8967,1.9591,1.9527,0.0,1.9119,2.0382,2.0814,0.0,0.0,2.05,2.0763,0.0,0.0,0.0,0.0,0.0,0.0,0.0,0.0,0.0,0.0,1.7873,0.0,0.0,0.0,0.0,1.8788,0.0,0.0,0.0,0.0,0.0,0.0,0.0,0.0,0.0,0.0,0.0,0.0,0.0,0.0,0.0,0.0,0.0,0.0,0.0,0.0,0.0,1.4168,1.5443,1.6271,1.6574,1.7246,1.8256,1.961,1.8771,1.9263,2.095,2.0114,2.046,2.1791,2.0074,1.9748,2.0484,1.9168,1.8623,1.8701,1.9531,1.9893,2.0,2.0859,2.1475,2.1885,2.1885,2.2412,2.3135,1.167,0.0,0.0,0.0,0.0,0.0,0.0,1.1076,0.0,0.0,0.0,0.0,0.0,0.0,1.028,0.0,0.0,1.2582,1.2563,1.2162,0.0,0.0,0.0,1.0927,0.0,0.0,0.0,0.0,0.0,0.0,0.0,0.0,0.0,0.0,0.0,1.1028,0.0,0.0,0.0,0.0,0.0,1.9373,1.9713,0.0,0.0,2.0797,2.0926,2.1462,0.0,2.1172,2.1411,2.1895,2.1165,2.0636,2.048,2.1369,2.0497,0.0,0.0,0.0,2.061,2.0492,0.0,0.0,0.0,0.0,0.0,0.0,0.0,0.0,0.0,0.0,0.0,0.0,0.0,0.0,0.0,0.0,0.0,0.0,0.0,0.0,0.0,0.0,0.0,0.0,0.0,0.0,0.0,1.3273,1.48,1.7171,1.7465,1.8475,2.0316,1.98,2.0018,2.1009,2.0551,2.0231,2.0139,1.9562,1.9266,1.9226,1.8774,1.8955,1.9502,1.9795,2.0254,2.082,2.1123,2.167,2.2305,2.2305,2.2656,2.3135,1.1934,0.0,0.0,0.0,0.0,0.0,0.0,0.0,0.0,0.0,1.2024,0.0,1.1114,0.0,1.1914,0.0,1.2292,1.3477,1.4237,1.2557,0.0,1.4672,1.3019,0.0,0.0,0.0,0.0,0.0,0.0,0.906,0.0,0.0,0.0,0.0,0.0,1.1642,1.2208,0.0,1.6091,0.0,0.0,1.9379,0.0,0.0,1.9931,2.1096,0.0,2.1446,2.2022,2.1746,2.1942,2.2209,2.1783,2.1521,2.1511,2.244,2.1748,2.0938,2.1884,2.1989,0.0,2.2046,2.2435,0.0,2.2802,0.0,0.0,0.0,0.0,0.0,0.0,0.0,0.0,0.0,0.0,0.0,0.0,1.3957,0.0,0.0,0.0,0.0,0.0,0.0,0.0,0.0,0.0,0.0,0.0,0.0,1.3952,1.7023,1.7645,1.8765,2.049,2.018,2.0271,2.0854,2.005,1.9694,1.9748,1.911,1.8897,1.9044,1.8931,1.9268,1.9922,2.0078,2.0576,2.125,2.1406,2.1894,2.251,2.251,2.2783,2.3135,1.1419,1.163,0.0,0.0,1.1399,0.0,0.0,0.0,1.3062,0.0,1.4068,1.4513,1.3163,1.3477,1.3646,1.3234,1.234,0.0,1.5145,1.1584,0.0,0.0,1.1864,1.0985,1.2925,0.0,0.0,0.0,0.0,0.0,0.0,0.0,0.0,0.0,1.1781,0.0,1.1343,1.466,1.6454,1.7189,1.8696,1.9677,2.0113,1.859,1.9423,2.1315,2.1083,2.1275,2.1688,2.2135,2.231,2.231,2.231,2.2755,2.3313,2.3346,2.3496,2.3538,2.3205,2.2734,2.2377,2.2452,0.0,0.0,0.0,0.0,2.2718,0.0,0.0,0.0,0.0,0.0,0.0,0.0,0.0,0.0,0.0,0.0,0.0,0.0,0.0,0.0,0.0,0.0,0.0,0.0,0.0,0.0,0.0,0.0,1.3648,1.6233,1.7695,1.9011,2.0169,1.9803,1.9939,2.0526,1.8875,1.8942,2.0431,1.8838,1.8763,1.9858,1.9481,1.9561,1.998,2.042,2.0859,2.1309,2.1748,2.2178,2.2539,2.2539,2.2793,2.3135,1.2865,1.2438,1.2026,0.0,1.2401,1.2462,0.0,0.0,0.0,0.0,1.4947,1.5856,1.7778,1.7137,1.6074,1.4747,1.5489,0.0,0.0,0.0,0.0,1.722,1.6798,1.6111,1.5256,1.5139,0.0,1.3341,0.0,0.0,1.2837,0.0,0.0,0.0,0.0,0.0,1.3104,1.5821,1.7922,1.9425,1.9287,1.9578,0.0,0.0,1.9941,2.1748,2.1182,2.1477,2.2135,2.2254,2.231,2.231,2.231,2.2195,2.2175,2.2644,2.2638,2.2561,2.312,2.315,2.3062,2.3243,2.3277,2.3264,0.0,0.0,0.0,0.0,0.0,0.0,0.0,0.0,0.0,0.0,0.0,0.0,0.0,0.0,0.0,1.5024,0.0,0.0,0.0,0.0,0.0,0.0,0.0,0.0,0.0,0.0,0.0,1.6666,1.6949,1.8105,2.0157,1.9355,1.9182,1.9628,1.951,1.9336,1.915,1.9694,1.9951,1.9865,1.9772,2.0,2.043,2.0879,2.1318,2.1758,2.2187,2.2607,2.2978,2.2978,2.3047,2.3135,1.2645,0.0,0.0,1.278,0.0,0.0,1.2792,0.0,0.0,1.5591,1.6592,0.0,1.8584,1.8656,1.8248,1.7236,1.6502,0.0,0.0,0.0,0.0,1.7997,1.7561,1.685,1.5951,1.6245,0.0,1.5287,0.0,0.0,1.5269,0.0,0.0,0.0,0.0,1.4845,0.0,1.7524,1.9651,2.1257,2.0021,0.0,0.0,1.9494,2.0369,2.2015,2.1951,2.2095,2.2361,2.2682,2.2784,2.2835,2.3156,2.2909,2.2667,2.3358,2.3098,2.2744,2.3553,2.3605,2.3466,2.3591,2.3618,2.3559,2.3416,2.3363,2.3343,0.0,0.0,0.0,0.0,0.0,0.0,0.0,0.0,0.0,0.0,0.0,0.0,0.0,0.0,0.0,0.0,0.0,0.0,0.0,0.0,0.0,0.0,0.0,0.0,1.6157,1.7416,1.8563,1.9769,2.0136,2.0017,1.9501,1.979,1.9637,1.9183,1.9778,2.0005,1.9912,1.9912,2.0273,2.0879,2.1133,2.1602,2.2197,2.2627,2.293,2.3135,2.3135,2.3135,2.3135,1.1847,0.0,0.0,0.0,0.0,0.0,0.0,1.4454,0.0,1.6242,0.0,1.9428,1.7918,1.9165,1.9961,1.9642,0.0,1.5896,1.8399,1.4862,1.4345,1.8138,1.6694,1.5949,1.6303,1.6481,0.0,0.0,0.0,0.0,0.0,0.0,0.0,0.0,0.0,0.0,0.0,1.9264,2.1059,0.0,2.0926,2.0638,2.1038,2.048,2.1135,2.2407,2.2999,2.2882,2.2564,2.3216,2.3371,2.3422,2.4084,2.395,2.365,2.4384,2.3941,2.3354,2.4097,2.3948,2.3595,2.3595,2.3595,2.3595,2.3595,2.367,2.3714,2.3625,2.367,2.3413,0.0,0.0,0.0,0.0,0.0,0.0,0.0,0.0,0.0,0.0,0.0,0.0,0.0,0.0,0.0,0.0,0.0,0.0,0.0,0.0,0.0,1.5417,1.8001,0.0,1.9321,0.0,2.1277,1.9714,1.9899,1.9958,1.9903,1.9601,1.9658,2.0,2.0068,2.0527,2.124,2.1357,2.1875,2.2627,2.2998,2.3135,2.3135,2.3135,2.3135,2.3135,0.0,0.0,0.0,0.0,0.0,1.5096,1.4866,1.5862,1.705,1.8198,1.931,2.0167,2.055,2.0684,2.0294,1.9211,1.8892,0.0,0.0,0.0,0.0,1.9376,1.9084,1.9071,1.9504,1.9538,1.9805,0.0,0.0,0.0,0.0,0.0,0.0,0.0,0.0,0.0,1.9038,1.9626,0.0,2.1636,2.1934,2.1933,2.1847,2.2799,2.3358,2.3588,2.372,2.3516,2.3249,2.3551,2.3241,2.2799,2.3137,2.2925,2.2686,2.3373,2.3176,2.2953,2.3586,2.3681,2.3595,2.3595,2.3595,2.3595,2.3595,2.4044,2.4283,2.3714,2.4059,2.4208,2.3458,0.0,0.0,0.0,0.0,0.0,0.0,0.0,0.0,0.0,0.0,0.0,0.0,0.0,0.0,0.0,0.0,0.0,0.0,0.0,0.0,0.0,1.6446,0.0,0.0,0.0,1.9985,1.9882,2.0308,2.0257,1.992,2.0213,2.0381,2.0469,2.084,2.1094,2.1289,2.2002,2.2588,2.3037,2.3105,2.3135,2.3135,2.3135,2.3135,2.3135,0.0,0.0,0.0,0.0,0.0,0.0,0.0,1.867,0.0,1.9346,2.0223,2.1052,2.1469,2.1974,2.1801,2.0504,1.9602,1.9184,1.9465,1.9209,1.9331,1.9984,2.0227,0.0,1.9484,2.0271,2.0496,2.0156,0.0,0.0,0.0,0.0,0.0,0.0,0.0,1.955,0.0,0.0,0.0,2.2701,2.3306,2.3304,2.3038,2.3984,2.4413,2.4463,2.4547,2.4377,2.4131,2.4248,2.3862,2.3474,2.3967,2.3815,2.3451,2.3792,2.3534,2.3221,2.352,2.3595,2.3595,2.3595,2.3595,2.3684,2.4059,2.4388,2.4492,2.4208,2.4403,2.4208,2.3013,2.1732,0.0,0.0,0.0,0.0,0.0,0.0,0.0,0.0,0.0,0.0,0.0,0.0,0.0,0.0,0.0,0.0,0.0,0.0,0.0,0.0,0.0,0.0,0.0,0.0,0.0,1.9879,2.0545,2.0573,1.9932,2.0361,2.0693,2.0918,2.1143,2.1484,2.1943,2.2578,2.2959,2.3135,2.3135,2.3135,2.3135,2.3135,2.3135,2.3135,0.0,1.6471,0.0,0.0,1.7917,0.0,1.9419,2.1053,2.1681,2.0321,2.1156,2.1995,2.2251,2.318,2.3239,2.1849,2.0342,1.9727,2.0355,1.9481,1.9363,2.0283,2.0764,2.0478,1.9354,2.0492,2.0754,0.0,0.0,0.0,0.0,0.0,0.0,0.0,0.0,0.0,0.0,0.0,2.4087,2.4207,2.4567,2.4656,2.4564,2.5011,2.5277,2.5376,2.5366,2.5167,2.486,2.4736,2.4365,2.4046,2.465,2.4592,2.4225,2.4225,2.4028,2.3819,2.3819,2.3924,2.4029,2.4029,2.4029,2.4163,2.4717,2.4896,2.4955,2.4821,2.4791,2.4402,2.3009,2.2481,0.0,0.0,0.0,0.0,0.0,0.0,0.0,0.0,0.0,0.0,0.0,0.0,0.0,0.0,0.0,1.3066,1.3094,1.4273,0.0,0.0,0.0,1.8967,1.9479,0.0,2.1096,0.0,2.0814,2.0828,2.0059,2.041,2.081,2.124,2.1338,2.1855,2.2676,2.2998,2.3135,2.3135,2.3135,2.3135,2.3135,2.3135,2.3135,2.3135,0.0,0.0,0.0,0.0,0.0,0.0,0.0,2.1373,2.2023,2.1561,2.2146,2.301,2.405,2.4261,2.3631,2.1925,2.2316,2.1735,1.9479,2.0249,2.0685,2.0499,2.0797,2.1117,2.1308,2.1486,2.1698,0.0,0.0,0.0,0.0,0.0,0.0,0.0,0.0,0.0,0.0,2.4098,2.5052,2.5438,2.5473,2.5863,2.6455,2.6489,2.6522,2.6489,2.6087,2.5603,2.507,2.4602,2.3973,2.3403,2.3667,2.3724,2.3681,2.3681,2.4088,2.4492,2.4492,2.4971,2.542,2.542,2.542,2.5435,2.5495,2.5974,2.6243,2.5644,2.5525,2.5465,2.527,2.4416,2.3125,0.0,0.0,0.0,0.0,0.0,0.0,0.0,0.0,0.0,0.0,0.0,0.0,0.0,0.0,1.2864,1.3777,1.4541,1.5209,1.5644,0.0,1.9116,1.975,2.0614,2.1097,2.1056,2.1135,2.0992,2.0508,2.0547,2.081,2.126,2.165,2.2295,2.3086,2.3125,2.3135,2.3135,2.3135,2.3135,2.3135,2.3135,2.3135,2.3135,0.0,0.0,0.0,0.0,0.0,0.0,0.0,2.2457,2.2883,2.2874,2.3146,2.3472,2.3882,2.4511,2.4595,2.388,2.2391,2.1447,2.1327,2.0982,2.0926,2.1134,2.1554,2.1857,2.2003,2.2032,2.2106,0.0,0.0,0.0,0.0,0.0,0.0,0.0,0.0,2.3891,2.3361,2.4722,2.5416,2.5642,2.6082,2.6437,2.6742,2.7199,2.7368,2.7314,2.6929,2.6647,2.6325,2.5428,2.4379,2.3489,2.3548,2.3879,2.4223,2.4223,2.4687,2.5211,2.5211,2.542,2.5615,2.5615,2.5615,2.5719,2.6108,2.6408,2.6512,2.6258,2.5884,2.5615,2.5615,2.4912,2.388,0.0,0.0,0.0,0.0,0.0,0.0,0.0,0.0,0.0,0.0,0.0,0.0,0.0,0.0,1.3366,1.34,1.4164,1.4801,1.5298,0.0,1.8685,1.9504,2.0201,2.07,2.083,2.0844,2.0904,2.0967,2.0967,2.1348,2.2021,2.2451,2.2832,2.3135,2.3135,2.3135,2.3135,2.3135,2.3135,2.3135,2.3135,2.3135,2.3174,1.9944,0.0,2.1521,0.0,2.1226,2.1762,2.2868,2.3533,2.3838,2.3571,2.4283,2.4787,2.4719,2.5028,2.5335,2.5635,2.3569,2.2394,2.2659,2.215,2.1955,2.2302,2.2714,0.0,2.2953,2.2733,2.2733,2.2953,2.2691,0.0,0.0,0.0,0.0,0.0,2.4013,2.4462,2.4313,2.5452,2.6065,2.6285,2.6573,2.6826,2.7046,2.7412,2.7542,2.7481,2.7162,2.7042,2.6871,2.5894,2.4971,2.4193,2.4193,2.4522,2.4866,2.4866,2.539,2.5899,2.5899,2.6033,2.6183,2.6183,2.6183,2.6303,2.6782,2.6871,2.6871,2.6871,2.6512,2.6183,2.6183,2.5809,2.5072,2.3771,0.0,0.0,0.0,0.0,0.0,0.0,0.0,1.7037,1.682,0.0,0.0,0.0,0.0,0.0,1.4568,1.4708,0.0,0.0,0.0,0.0,0.0,2.0463,2.0828,2.0957,2.0957,2.1113,2.1426,2.1553,2.1943,2.2539,2.2959,2.3135,2.3135,2.3135,2.3135,2.3135,2.3135,2.3135,2.3135,2.3135,2.3223,2.3379,2.0584,2.1014,2.1756,2.2847,2.304,2.3053,2.3125,2.4368,2.4811,2.3339,2.5713,2.7527,2.7348,2.6054,2.5598,2.6624,2.6641,2.5528,2.2857,2.3786,2.4317,0.0,0.0,2.4489,2.4489,2.3748,2.3731,2.4489,0.0,0.0,2.489,0.0,2.5532,2.4925,2.6143,2.6251,2.5625,2.637,2.7114,2.7688,2.6996,2.7148,2.7737,2.7143,2.6902,2.6885,2.6549,2.6421,2.6348,2.5786,2.56,2.5585,2.5585,2.5585,2.56,2.56,2.6063,2.6572,2.6572,2.7051,2.7595,2.7595,2.7595,2.7595,2.761,2.761,2.761,2.761,2.761,2.7595,2.7595,2.7595,2.6996,2.5272,0.0,0.0,0.0,0.0,0.0,0.0,1.8385,1.8261,1.8443,0.0,0.0,0.0,0.0,0.0,0.0,0.0,0.0,1.8123,1.9714,0.0,2.0563,2.1496,2.1983,2.1865,2.1865,2.1875,2.1894,2.2305,2.25,2.2539,2.2959,2.3135,2.3135,2.3135,2.3135,2.3135,2.3135,2.3135,2.3135,2.3135,2.3408,2.3779,2.1761,2.2209,2.2689,2.3065,2.3078,2.3078,2.3078,2.3531,2.4368,2.5957,2.8466,3.047,3.165,2.9384,2.7913,0.0,2.6589,2.5379,0.0,2.4741,2.4561,2.4337,2.423,2.4164,2.4164,2.394,2.3922,2.4164,0.0,0.0,0.0,2.6216,2.6282,2.5431,2.6826,2.7334,2.7165,2.7943,2.8383,2.8602,2.8349,2.8399,2.8617,2.8489,2.8474,2.8396,2.7992,2.7814,2.772,2.7176,2.6946,2.6946,2.6946,2.6632,2.6273,2.6273,2.6752,2.726,2.726,2.746,2.7625,2.7625,2.7625,2.7694,2.8173,2.8622,2.8816,2.8368,2.8637,2.8801,2.8353,2.7889,2.7026,2.5301,2.5077,0.0,0.0,0.0,0.0,0.0,1.9092,1.8711,0.0,1.7371,0.0,0.0,0.0,0.0,0.0,0.0,0.0,0.0,1.9404,0.0,2.0984,2.1809,2.2104,2.1885,2.1885,2.2031,2.2324,2.2744,2.2939,2.2949,2.3076,2.3135,2.3135,2.3135,2.3135,2.3135,2.3135,2.3135,2.3135,2.3135,2.3223,2.3428,2.2613,2.2701,2.2803,2.3047,2.3078,2.3812,2.594,2.6253,2.6891,2.87,3.0836,3.2598,3.3662,3.1426,0.0,2.9038,2.7698,2.6855,2.6612,2.6135,2.5883,2.5896,2.5343,2.4919,2.4785,0.0,0.0,2.4993,2.5682,2.615,2.6458,2.7416,2.7504,2.6911,2.7841,2.8264,2.8281,2.8772,2.9144,2.9381,2.9093,2.9016,2.9059,2.8903,2.8718,2.8474,2.8248,2.814,2.8091,2.771,2.7625,2.767,2.7874,2.7679,2.735,2.735,2.7814,2.8329,2.8023,2.8143,2.8263,2.8023,2.8143,2.8442,2.8861,2.928,2.946,2.9056,2.9295,2.9385,2.8727,2.8248,2.7554,2.6189,2.5979,2.5033,2.2468,0.0,0.0,0.0,0.0,0.0,0.0,1.8659,0.0,0.0,0.0,0.0,0.0,0.0,0.0,1.8413,1.9854,0.0,2.1849,2.2261,2.2493,2.2353,2.2353,2.2735,2.3323,2.3181,2.3299,2.3714,2.3309,2.3135,2.3135,2.3135,2.3135,2.3135,2.3135,2.3135,2.3154,2.332,2.3486,2.3721,2.3271,2.2698,0.0,0.0,2.339,0.0,3.0718,3.1482,3.1535,3.1702,3.3112,3.41,3.399,3.2437,3.0786,2.9282,0.0,0.0,0.0,2.7813,2.7958,2.8197,2.7317,2.6627,2.6258,2.5956,2.6149,2.686,2.7554,2.8281,2.9011,2.9011,2.9011,2.9011,2.9025,2.9059,2.9059,2.911,2.9533,3.0125,2.9377,2.9159,2.919,2.8544,2.7989,2.7504,2.7584,2.7655,2.7685,2.7685,2.773,2.7829,2.8472,2.8697,2.8727,2.8682,2.9101,2.9445,2.8831,2.9116,2.943,2.8831,2.916,2.9639,2.9594,2.9654,2.9699,2.9654,2.9684,2.952,2.8861,2.8697,2.8442,2.7754,2.7051,2.5928,2.4002,0.0,0.0,0.0,0.0,0.0,0.0,2.0595,1.9401,0.0,0.0,0.0,0.0,0.0,1.878,2.0554,2.1134,2.1903,2.29,2.3002,2.3089,2.3135,2.3135,2.3714,2.4787,2.3637,2.3714,2.4702,2.3551,2.3135,2.3135,2.3135,2.3135,2.3135,2.3135,2.3135,2.3193,2.3633,2.4033,2.4443,0.0,0.0,2.2802,2.2454,2.6366,2.9944,3.1319,3.1482,3.2807,3.6451,3.7283,3.7074,3.5844,3.4193,3.2487,3.082,2.987,2.9471,2.9799,2.8873,2.83,2.8213,2.8116,2.7958,2.7708,2.7769,2.8029,2.8486,2.8619,2.8805,2.9011,2.9011,2.9011,2.9008,2.9583,2.9837,2.9871,3.0429,3.0768,3.0881,3.0249,3.0022,2.9903,2.8851,2.8358,2.8199,2.775,2.7919,2.8353,2.8353,2.8682,2.9131,2.9295,2.9669,2.9953,2.949,2.946,2.9549,2.94,2.946,2.9549,2.9385,2.9819,3.0163,2.9684,3.0357,3.0926,3.0387,3.0702,3.0866,3.0178,2.9669,2.9131,2.8472,2.7365,2.6041,2.4405,2.4416,0.0,0.0,2.2779,2.2933,2.2778,2.0973,1.993,0.0,0.0,0.0,0.0,1.9739,2.0287,2.0597,2.2465,2.336,2.308,2.3903,2.3921,2.3135,2.3135,2.3714,2.4787,2.3637,2.3714,2.4702,2.3551,2.3135,2.3135,2.3135,2.3135,2.3135,2.3135,2.3135,2.3193,2.3633,2.3857,2.4224,2.3815,2.5348,2.6844,2.6529,2.9226,3.1482,3.1482,3.3377,3.5402,3.7064,3.8117,3.8377,3.7496,3.5616,3.3845,3.2326,3.0874,3.0268,3.0776,2.9824,2.9332,2.9567,2.9365,2.933,2.9567,2.9689,2.9997,3.0535,3.0535,3.0666,3.1004,3.1004,3.1004,3.1021,3.1427,3.1613,3.1613,3.1664,3.1901,3.2131,3.1148,3.0795,3.0716,2.9767,2.9258,2.8971,2.8643,2.8727,2.9056,2.9056,2.928,2.9624,2.9909,3.0447,3.0971,3.0926,3.0926,3.0851,3.0552,3.0911,3.1375,3.1375,3.1629,3.1794,3.145,3.1689,3.1869,3.1495,3.148,3.133,3.0627,2.9998,2.937,2.8712,2.7116,2.5707,2.4812,2.4512,0.0,2.3698,2.4131,2.4394,2.416,2.2557,2.1481,2.1288,0.0,0.0,2.0012,2.1223,2.1592,2.0869,2.2563,2.3283,2.3135,2.3714,2.3714,2.3144,2.3637,2.4211,2.4787,2.4125,2.4211,2.4702,2.3551,2.3135,2.3135,2.3135,2.3135,2.3135,2.3135,2.3262,2.3486,2.3916,2.4554,2.5452,2.4004,2.7879,3.1482,3.1482,3.1482,3.1616,3.2019,3.6277,3.8717,3.6679,3.7918,3.8896,3.8761,3.6845,3.5066,3.3802,3.2432,3.1647,3.1647,3.0987,3.0852,3.1393,3.0903,3.0937,3.163,3.1562,3.1833,3.2459,3.2459,3.278,3.3406,3.3406,3.3406,3.3406,3.3406,3.3406,3.3372,3.2713,3.2831,3.3296,3.2011,3.1469,3.1438,3.0779,3.0158,2.9579,2.9579,2.9639,2.9729,2.9729,2.9789,2.9983,3.0612,3.121,3.175,3.2467,3.2736,3.2662,3.2003,3.2647,3.3499,3.3499,3.3499,3.3499,3.3499,3.3066,3.2662,3.2662,3.2138,3.1539,3.1046,3.0208,2.943,2.8913,2.6941,2.5365,2.5137,0.0,2.4136,2.4749,2.5356,2.5728,2.5879,2.4472,2.3279,2.2369,2.1935,2.145,2.084,2.2402,2.2676,2.1435,2.2355,2.3021,2.3377,2.3222,2.3222,2.3387,2.4382,2.4872,2.5041,2.4872,2.4787,2.4702,2.3551,2.3135,2.3135,2.3135,2.3135,2.3144,2.3213,2.3546,2.4108,2.4601,2.5829,2.7317,2.6013,2.899,3.1482,3.1482,3.1482,3.2228,3.4547,3.9345,4.213,4.0468,4.0141,3.9808,3.9114,3.8025,3.6679,3.5151,3.4226,3.3711,3.3711,3.3203,3.2763,3.2493,3.2747,3.3152,3.3711,3.3288,3.3119,3.3237,3.3237,3.3288,3.3406,3.3406,3.3406,3.3406,3.3406,3.3406,3.3406,3.3288,3.3305,3.3347,3.2619,3.2017,3.1422,3.0814,3.0195,2.9579,2.9579,2.9924,3.0357,3.0357,3.0746,3.1345,3.2003,3.2273,3.2497,3.3155,3.3739,3.4023,3.3365,3.3335,3.3499,3.3499,3.3499,3.3499,3.3499,3.3425,3.3335,3.3335,3.2826,3.2497,3.2946,3.1135,2.966,2.9814,2.7735,2.5777,2.491,0.0,2.5314,2.5314,2.6311,2.6999,2.7005,2.5295,2.4074,2.3854,2.2263,2.145,2.166,2.3176,2.3505,2.2314,2.3683,2.447,2.4542,2.3551,2.3551,2.4542,2.4702,2.5294,2.6224,2.521,2.4787,2.4702,2.3551,2.3135,2.3135,2.3135,2.3135,2.3174,2.3545,2.4315,2.5409,2.6194,2.7361,2.8668,3.1034,3.1406,3.193,3.3425,3.3679,3.4083,3.531,3.9032,4.1818,4.2333,4.1423,4.037,3.9385,3.8454,3.7519,3.6561,3.5941,3.5582,3.5586,3.421,3.3305,3.3102,3.3677,3.4286,3.4945,3.4726,3.481,3.5216,3.481,3.503,3.5808,3.4979,3.4827,3.5199,3.4793,3.459,3.4573,3.4167,3.4218,3.4469,3.3053,3.2531,3.2554,3.1867,3.1403,3.121,3.1554,3.1869,3.2123,3.2123,3.2332,3.2647,3.2946,3.329,3.3634,3.3933,3.4247,3.4487,3.4562,3.4577,3.4577,3.4577,3.4577,3.4577,3.4577,3.4292,3.4023,3.4023,3.3499,3.314,3.344,3.1928,3.0609,3.0615,2.8117,0.0,0.0,2.5768,2.5837,2.6723,2.7627,2.8172,2.8172,2.6294,2.5247,2.5506,2.357,2.2615,2.3073,2.4328,2.4962,2.4661,2.4108,2.4211,2.4787,2.4296,2.4553,2.5714,2.6284,2.6532,2.6472,2.5975,2.5378,2.4702,2.3551,2.3135,2.3135,2.3135,2.3271,2.3595,2.4472,2.5362,2.6468,2.7536,2.8847,3.0183,3.4307,3.3185,3.2736,3.51,3.5797,3.6133,3.6538,3.8804,4.1241,4.3232,4.2278,4.0963,3.9833,3.8818,3.7983,3.7447,3.7212,3.6983,3.6899,3.5345,3.4472,3.4447,3.4979,3.5554,3.6129,3.6146,3.6451,3.7043,3.6451,3.6755,3.7889,3.6705,3.6468,3.7009,3.6231,3.5977,3.6113,3.5351,3.5346,3.5723,3.4105,3.3598,3.3757,3.3184,3.2841,3.2811,3.332,3.3499,3.3499,3.3499,3.3499,3.3529,3.3679,3.4068,3.4502,3.4666,3.4711,3.4831,3.5355,3.5504,3.5504,3.5504,3.5504,3.5504,3.5504,3.51,3.4711,3.4711,3.4188,3.3769,3.3933,3.2556,3.1396,3.1272,0.0,0.0,0.0,2.6569,2.6488,2.787,2.8556,2.8988,2.9114,2.7187,2.6223,2.6919,2.499,2.4059,2.4666,2.5739,2.6484,2.6871,2.4967,2.4221,2.4787,2.4787,2.5462,2.6883,2.7695,2.7522,2.6483,2.6483,2.5714,2.4372,2.3464,2.3135,2.3144,2.3252,2.3654,2.4316,2.5467,2.6683,2.7891,2.8992,3.0349,3.1677,3.2273,3.2647,3.3814,3.525,3.6662,3.8092,3.9558,4.0856,4.2085,4.3356,4.2812,4.1855,4.0742,3.9381,3.8188,3.7233,3.7539,3.7606,3.7123,3.7388,3.7587,3.7568,3.7597,3.7686,3.7736,3.7736,3.777,3.7821,3.777,3.7804,3.7905,3.7787,3.777,3.7787,3.7026,3.7077,3.7686,3.6924,3.6645,3.6602,3.6434,3.5616,3.4415,3.4361,3.3952,3.3425,3.3484,3.3499,3.3499,3.3499,3.3499,3.3604,3.4203,3.4442,3.4607,3.5235,3.5429,3.5444,3.5489,3.5504,3.5504,3.5504,3.5504,3.5504,3.5504,3.5474,3.5429,3.5429,3.4876,3.4607,3.5235,3.302,3.1223,3.161,0.0,0.0,2.7219,2.755,2.7895,2.8044,2.8561,2.9139,2.9679,2.774,2.6885,2.7897,2.5915,2.5209,2.6251,2.7383,2.7968,2.8004,2.6883,2.5808,2.4787,2.4787,2.5859,2.8004,2.8084,2.7522,2.6483,2.6483,2.5305,2.3222,2.3135,2.3135,2.3164,2.3574,2.4444,2.5564,2.6445,2.8254,3.0336,3.0808,3.184,3.2982,3.4188,3.4397,3.5193,3.6691,3.66,3.689,3.843,4.1039,4.3014,4.3444,4.325,4.2375,4.051,3.9877,3.9112,3.8091,3.8783,3.8916,3.8068,3.7956,3.7874,3.7885,3.7872,3.7905,3.7905,3.7905,3.8125,3.8582,3.8125,3.8379,3.9225,3.8328,3.8142,3.8548,3.7804,3.7635,3.7889,3.7601,3.7183,3.6648,3.6231,3.5458,3.45,3.4485,3.4316,3.4158,3.4592,3.4741,3.4741,3.4741,3.4741,3.4786,3.504,3.54,3.5774,3.6043,3.6118,3.6118,3.6118,3.5818,3.5504,3.5504,3.5504,3.5504,3.5504,3.5504,3.5504,3.5504,3.5295,3.4981,3.4647,3.3361,3.2127,3.1484,0.0,2.8379,2.8231,2.816,2.8214,2.8549,2.9114,2.9553,2.9779,2.8359,2.7947,2.9028,2.7683,2.7023,2.7441,2.7855,2.8096,2.8096,2.7683,2.7267,2.6849,2.6849,2.7602,2.9118,2.9118,2.8698,2.7917,2.6948,2.5804,2.4456,2.3505,2.3135,2.3174,2.3613,2.4715,2.6151,2.7518,2.9217,3.1049,3.2066,3.2698,3.3081,3.5504,3.5504,3.591,3.7294,3.6646,3.6368,3.7589,4.0431,4.2426,4.2426,4.2426,4.1919,4.0594,4.0254,3.98,3.9123,3.9681,3.9816,3.9103,3.8766,3.8481,3.8261,3.8464,3.8582,3.8582,3.8582,3.8836,3.9343,3.8836,3.9106,4.0054,3.9056,3.8853,3.9292,3.8565,3.8379,3.8565,3.8068,3.7534,3.7004,3.6294,3.5513,3.482,3.4796,3.4801,3.4891,3.5564,3.5804,3.5848,3.6043,3.6103,3.6103,3.6103,3.6402,3.6776,3.6776,3.6776,3.6776,3.6776,3.6447,3.6103,3.6103,3.6103,3.6103,3.6103,3.6103,3.6103,3.6103,3.5953,3.557,3.4741,3.3839,3.2849,3.1841,3.0281,2.9258,2.9416,2.8988,2.8775,2.9151,2.9553,2.9792,2.9792,2.8767,2.8597,2.9702,2.8767,2.8255,2.8597,2.8597,2.8681,2.8839,2.8851,2.8851,2.8851,2.8339,2.8688,2.9792,2.963,2.9056,2.8196,2.6937,2.5851,2.4808,2.3949,2.3467,2.3389,2.4396,2.5681,2.7244,2.8891,3.0461,3.1865,3.2797,3.3081,3.3081,3.5504,3.5504,3.5846,3.6814,3.6995,3.716,3.7748,3.9119,4.007,4.007,4.007,4.0368,4.1133,4.0546,4.007,4.007,4.007,4.007,4.007,4.007,3.9749,3.9039,3.9698,4.007,4.007,4.007,4.007,4.007,4.007,4.007,4.007,4.007,4.007,4.0054,3.9326,3.9411,4.002,3.8446,3.7834,3.7748,3.6904,3.618,3.5519,3.5519,3.5519,3.5609,3.6267,3.6492,3.6596,3.721,3.7404,3.7404,3.7419,3.7419,3.7419,3.7419,3.7419,3.7419,3.7419,3.7419,3.7419,3.7404,3.7404,3.7404,3.7404,3.7404,3.7404,3.7404,3.6926,3.6387,3.5984,3.452,3.3254,3.2881,3.1547,3.062,3.062,3.0143,2.9804,2.9804,2.9804,2.9804,2.9804,2.8779,2.8609,2.9727,2.8779,2.8609,2.9714,2.9804,3.0055,3.0608,3.062,3.062,3.062,2.8955,2.8688,2.9804,2.9153,2.8208,2.7041,2.6416,2.5257,2.3828,2.4238,2.418,2.3947,2.6063,2.7698,2.9003,3.0578,3.1965,3.3081,3.3081,3.3081,3.3081,3.5504,3.6085,3.6768,3.7456,3.7573,3.7978,3.9226,3.9799,4.007,4.007,4.007,4.0154,4.0417,4.0254,4.007,4.007,4.007,4.007,4.007,4.007,3.9986,3.9766,3.9969,4.007,4.007,4.007,4.007,4.007,4.007,4.007,4.007,4.007,4.007,4.007,3.9851,3.9868,4.0054,3.9615,3.8797,3.7764,3.7515,3.694,3.6193,3.6193,3.6462,3.6866,3.706,3.7135,3.7165,3.7345,3.7404,3.7494,3.7943,3.8093,3.8093,3.8093,3.8093,3.8093,3.8093,3.8093,3.7988,3.7524,3.7404,3.7404,3.7404,3.7404,3.7404,3.7404,3.6689,3.5798,3.4983,3.3813,3.2697,3.197,3.141,3.116,3.116,3.1022,3.0909,3.0909,3.0909,3.0909,3.0909,3.0642,3.0562,3.0909,3.0642,3.0562,3.0909,3.0909,3.0984,3.116,3.116,3.116,3.116,3.0288,2.9829,2.9792,3.0002,2.9177,2.7531,2.7425,2.6378,2.4678,2.4492,2.4876,2.5589,2.6543,2.814,3.0161,3.0932,3.2183,3.3658,3.3658,3.3658,3.3658,3.5894,3.6399,3.7144,3.8076,3.8149,3.8635,4.0285,4.1059,4.1105,4.0204,4.007,4.007,4.007,4.007,4.007,4.007,4.007,4.007,4.007,4.007,4.0206,4.051,4.024,4.007,4.007,4.007,4.007,4.007,4.007,4.007,4.007,4.007,4.007,4.007,4.007,4.007,4.007,3.9454,3.8652,3.778,3.7414,3.6965,3.6507,3.6761,3.709,3.7434,3.7704,3.7808,3.7838,3.8108,3.8377,3.8706,3.9364,3.9574,3.9574,3.9574,3.9574,3.9574,3.9574,3.9574,3.9484,3.908,3.8586,3.8197,3.8197,3.8197,3.8197,3.8197,3.7168,3.5994,3.5218,3.4014,3.2958,3.218,3.1863,3.1725,3.1725,3.1524,3.1386,3.1386,3.1386,3.1386,3.1386,3.1386,3.1386,3.1386,3.1386,3.1386,3.1386,3.1386,3.1486,3.1712,3.1725,3.1725,3.1725,3.1399,3.0972,3.0432,3.0474,2.9677,2.8043,2.7898,2.6781,2.5153,2.5515,2.6003,2.6668,2.8036,2.9498,3.0882,3.1656,3.2758,3.3897,3.3897,3.4035,3.4223,3.6446,3.6661,3.7188,3.8712,3.8908,3.9318,4.0886,4.2368,4.2562,4.0385,4.007,4.007,4.007,4.007,4.0121,4.0273,4.0324,4.0324,4.0273,4.0273,4.0595,4.1271,4.0646,4.0273,4.0273,4.0155,4.0104,4.0172,4.0104,4.007,4.007,4.007,4.0121,4.0172,4.0172,4.0206,4.0223,3.8737,3.8056,3.7945,3.7036,3.6663,3.6716,3.7285,3.7569,3.7764,3.8362,3.8601,3.8751,3.9379,3.9993,4.0591,4.119,4.1384,4.1384,4.1384,4.1384,4.1384,4.1384,4.1384,4.1384,4.1384,4.0487,3.9589,3.9589,3.9589,3.9589,3.9589,3.815,3.6803,3.6425,3.4929,3.3654,3.3303,3.2742,3.2365,3.2365,3.1888,3.1537,3.1537,3.1537,3.1537,3.1537,3.1537,3.1537,3.1537,3.1537,3.1537,3.1537,3.1537,3.1775,3.2277,3.229,3.229,3.229,3.229,3.1989,3.1399,3.0713,2.9741,2.8601,2.7929,2.6804,2.5421,2.694,2.7431,2.7522,3.012,3.1335,3.156,3.2686,3.352,3.4035,3.3985,3.4324,3.4698,3.6446,3.7084,3.7971,3.9291,4.0114,4.0573,4.0368,4.1358,4.1664,4.0303,4.007,4.007,4.007,4.007,4.0544,4.1711,4.2202,4.2269,4.1847,4.1813,4.188,4.2049,4.1897,4.1813,4.1813,4.0679,4.0358,4.0967,4.0358,4.007,4.007,4.007,4.0392,4.0967,4.0967,4.1271,4.176,4.075,3.9972,3.9393,3.8525,3.8089,3.7988,3.8123,3.8841,3.9768,3.9918,4.0292,4.0756,4.0905,4.1055,4.119,4.1324,4.1384,4.1384,4.1384,4.1384,4.1384,4.1384,4.1384,4.1384,4.1384,4.1175,4.095,4.095,4.095,4.095,4.095,3.9275,3.7822,3.7702,3.5904,3.4477,3.4349,3.3897,3.3533,3.3533,3.3056,3.2717,3.2717,3.2717,3.2717,3.2717,3.2717,3.2717,3.2717,3.2717,3.2717,3.2717,3.2717,3.2767,3.288,3.288,3.288,3.288,3.288,3.2378,3.1399,3.0713,2.9741,2.8601,2.7929,2.7442,2.7076,2.7453,2.8615,3.0334,3.0897,3.2019,3.3344,3.3633,3.4324,3.514,3.47,3.4901,3.5014,3.8046,3.8592,3.9161,4.0116,4.08,4.1054,4.0549,4.0767,4.0767,4.0171,4.007,4.007,4.007,4.007,4.0967,4.3183,4.3217,4.2878,4.2337,4.2286,4.2455,4.2811,4.2489,4.2625,4.3369,4.1914,4.1322,4.1728,4.1322,4.1136,4.1136,4.1136,4.1339,4.1728,4.1305,4.1577,4.2162,4.0544,4.0094,4.0306,3.9329,3.9158,3.9379,3.9694,4.0262,4.0876,4.0876,4.1085,4.1429,4.1743,4.1848,4.1908,4.2222,4.2312,4.2312,4.2312,4.2312,4.2312,4.2312,4.2312,4.2312,4.2312,4.2312,4.2147,4.1519,4.1384,4.1384,4.1384,4.0046,3.8721,3.8131,3.6724,3.5391,3.4803,3.4474,3.4299,3.4299,3.3822,3.3571,3.3834,3.3395,3.3081,3.3081,3.3081,3.3181,3.3445,3.347,3.3583,3.3847,3.3608,3.347,3.347,3.347,3.347,3.347,3.3734,3.3283,3.1967,3.1189,2.9823,2.8137,2.8386,2.8132,2.7683,2.8866,3.0182,3.1693,3.2253,3.3217,3.4299,3.4299,3.4801,3.5516,3.5228,3.5071,3.4617,3.9982,4.036,4.0615,4.1216,4.1432,4.1473,4.1294,4.0854,4.0492,4.0324,4.046,4.0595,4.0595,4.0747,4.1796,4.413,4.3741,4.3234,4.2946,4.2895,4.3217,4.3961,4.3403,4.3656,4.4925,4.3707,4.2878,4.2489,4.2354,4.2286,4.2286,4.2286,4.2354,4.2489,4.1749,4.1833,4.2316,4.013,3.9926,4.0942,3.996,3.9978,4.0621,4.1175,4.1444,4.1549,4.1549,4.1624,4.1803,4.2342,4.2521,4.2641,4.3299,4.3509,4.3524,4.3643,4.3658,4.3658,4.3658,4.3658,4.3643,4.3524,4.3584,4.3359,4.2147,4.1803,4.1713,4.1713,4.071,3.9534,3.8533,3.7362,3.6181,3.5171,3.4926,3.4864,3.4864,3.4387,3.4211,3.4663,3.3909,3.3357,3.3357,3.3357,3.3545,3.401,3.4035,3.4236,3.47,3.4286,3.4035,3.4035,3.4035,3.4035,3.4035,3.45,3.4053,3.2687,3.1912,3.0297,2.8189,2.9201,2.9294,2.8661,3.0582,3.1926,3.2629,3.3667,3.4361,3.4864,3.4864,3.5007,3.5295,3.5295,3.4832,3.406,4.0893,4.1481,4.2038,4.2765,4.2806,4.2798,4.2892,4.2597,4.2058,4.1172,4.2016,4.2692,4.2692,4.3453,4.3792,4.3335,4.3961,4.4705,4.5466,4.5348,4.5568,4.6312,4.6227,4.6278,4.6481,4.6295,4.5229,4.3267,4.2608,4.2286,4.2286,4.2286,4.2642,4.3267,4.3141,4.3086,4.3069,4.1963,4.1554,4.1481,4.0625,4.0666,4.125,4.1354,4.1728,4.2222,4.2222,4.2596,4.309,4.3165,4.321,4.3314,4.3973,4.4182,4.4287,4.487,4.5035,4.5035,4.5035,4.5035,4.4885,4.4332,4.4601,4.4825,4.4092,4.3479,4.306,4.306,4.1357,3.9823,3.965,3.7896,3.64,3.6238,3.5742,3.5429,3.5429,3.4964,3.4638,3.4713,3.4587,3.45,3.45,3.45,3.4525,3.4613,3.4613,3.4638,3.4726,3.465,3.4613,3.4613,3.4613,3.4613,3.4613,3.4675,3.4053,3.2897,3.2766,3.1926,3.0504,3.0673,3.1255,3.2218,3.2497,3.3308,3.4329,3.451,3.4939,3.5429,3.5429,3.5088,3.4582,3.4582,3.4125,3.3551,4.23,4.261,4.2889,4.3162,4.2849,4.259,4.2587,4.2184,4.1681,4.1256,4.183,4.2489,4.3047,4.3995,4.4401,4.3978,4.4823,4.5517,4.5821,4.6126,4.6447,4.6786,4.6786,4.6786,4.6786,4.6786,4.6295,4.5297,4.457,4.4198,4.4181,4.3775,4.3978,4.4632,4.4181,4.4135,4.4368,4.3033,4.2575,4.2747,4.1851,4.1893,4.2476,4.2476,4.2656,4.2895,4.2895,4.309,4.3389,4.3763,4.3883,4.4003,4.4661,4.487,4.4915,4.5214,4.5289,4.5289,4.5289,4.5289,4.5229,4.493,4.508,4.5214,4.493,4.4631,4.4421,4.4421,4.2815,4.1167,4.0544,3.8772,3.715,3.6546,3.6157,3.5994,3.5994,3.5529,3.5064,3.4763,3.4989,3.5064,3.4751,3.4726,3.4851,3.5152,3.519,3.5316,3.5617,3.5353,3.519,3.519,3.519,3.519,3.519,3.4711,3.428,3.3792,3.3792,3.2791,3.0971,3.1746,3.2324,3.2909,3.3582,3.4421,3.519,3.519,3.5504,3.5994,3.5994,3.5754,3.5475,3.4678,3.4231,3.3859]}]]